Time,TemperatureF,DewpointF,PressureIn,WindDirection,WindDirectionDegrees,WindSpeedMPH,WindSpeedGustMPH,Humidity,HourlyPrecipIn,Conditions,Clouds,dailyrainin,SoftwareType,DateUTC
2013-08-25 00:39:00,95.9,56.5,0.00,South,180,13.6,19.7,27,0.00,,---,0.00,VWS V14.01,2013-08-25 05:39:00,
2013-08-25 00:40:00,95.9,56.5,0.00,WSW,248,10.1,19.7,27,0.00,,---,0.00,VWS V14.01,2013-08-25 05:40:00,
2013-08-25 00:42:00,95.9,56.5,0.00,SW,225,8.7,19.7,27,0.00,,---,0.00,VWS V14.01,2013-08-25 05:42:00,
2013-08-25 00:43:00,95.9,56.5,0.00,SW,225,12.5,19.7,27,0.00,,---,0.00,VWS V14.01,2013-08-25 05:43:00,
2013-08-25 00:44:00,96.0,56.7,0.00,NW,315,10.3,19.7,27,0.00,,---,0.00,VWS V14.01,2013-08-25 05:44:00,
2013-08-25 00:45:00,96.2,56.8,0.00,NW,315,8.1,19.7,27,0.00,,---,0.00,VWS V14.01,2013-08-25 05:45:00,
2013-08-25 00:46:00,96.4,56.0,0.00,SW,225,8.1,9.6,26,0.00,,---,0.00,VWS V14.01,2013-08-25 05:46:00,
2013-08-25 00:47:00,96.4,56.0,0.00,SW,225,10.3,16.1,26,0.00,,---,0.00,VWS V14.01,2013-08-25 05:47:00,
2013-08-25 00:48:00,96.6,57.2,0.00,SW,225,12.5,16.1,27,0.00,,---,0.00,VWS V14.01,2013-08-25 05:48:00,
2013-08-25 00:49:00,96.8,57.3,0.00,South,180,10.7,16.1,27,0.00,,---,0.00,VWS V14.01,2013-08-25 05:49:00,
2013-08-25 00:50:00,96.6,56.1,0.00,SW,225,14.8,22.8,26,0.00,,---,0.00,VWS V14.01,2013-08-25 05:50:00,
2013-08-25 00:51:00,96.4,56.0,0.00,SSW,202,13.0,22.8,26,0.00,,---,0.00,VWS V14.01,2013-08-25 05:51:00,
2013-08-25 00:52:00,96.0,56.7,0.00,SW,225,14.3,22.8,27,0.00,,---,0.00,VWS V14.01,2013-08-25 05:52:00,
2013-08-25 00:53:00,95.9,56.5,0.00,South,180,19.0,22.8,27,0.00,,---,0.00,VWS V14.01,2013-08-25 05:53:00,
2013-08-25 00:54:00,95.9,56.5,0.00,SW,225,13.4,22.8,27,0.00,,---,0.00,VWS V14.01,2013-08-25 05:54:00,
2013-08-25 00:55:00,96.2,56.8,0.00,SW,225,10.3,22.8,27,0.00,,---,0.00,VWS V14.01,2013-08-25 05:55:00,
2013-08-25 00:56:00,96.2,56.8,0.00,SW,225,10.3,22.8,27,0.00,,---,0.00,VWS V14.01,2013-08-25 05:56:00,
2013-08-25 00:57:00,96.6,57.2,0.00,SSW,202,9.2,22.8,27,0.00,,---,0.00,VWS V14.01,2013-08-25 05:57:00,
2013-08-25 00:58:00,96.6,56.1,0.00,SW,225,13.9,22.8,26,0.00,,---,0.00,VWS V14.01,2013-08-25 05:58:00,
2013-08-25 00:59:00,96.8,56.3,0.00,SSW,202,14.8,22.8,26,0.00,,---,0.00,VWS V14.01,2013-08-25 05:59:00,
2013-08-25 01:00:00,96.6,56.1,0.00,West,270,16.6,22.8,26,0.00,,---,0.00,VWS V14.01,2013-08-25 06:00:00,
2013-08-25 01:02:00,96.6,56.1,0.00,SW,225,14.8,16.6,26,0.00,,---,0.00,VWS V14.01,2013-08-25 06:02:00,
2013-08-25 01:03:00,96.6,56.1,0.00,SW,225,15.2,16.6,26,0.00,,---,0.00,VWS V14.01,2013-08-25 06:03:00,
2013-08-25 01:04:00,96.8,56.3,0.00,SW,225,10.5,16.6,26,0.00,,---,0.00,VWS V14.01,2013-08-25 06:04:00,
2013-08-25 01:05:00,96.9,56.4,0.00,SW,225,10.7,16.6,26,0.00,,---,0.00,VWS V14.01,2013-08-25 06:05:00,
2013-08-25 01:06:00,96.9,56.4,0.00,SSW,202,14.1,16.6,26,0.00,,---,0.00,VWS V14.01,2013-08-25 06:06:00,
2013-08-25 01:07:00,96.8,56.3,0.00,SW,225,15.9,16.6,26,0.00,,---,0.00,VWS V14.01,2013-08-25 06:07:00,
2013-08-25 01:08:00,96.6,55.0,0.00,SW,225,15.2,16.8,25,0.00,,---,0.00,VWS V14.01,2013-08-25 06:08:00,
2013-08-25 01:09:00,96.6,55.0,0.00,SW,225,10.3,16.8,25,0.00,,---,0.00,VWS V14.01,2013-08-25 06:09:00,
2013-08-25 01:10:00,96.6,56.1,0.00,South,180,10.7,16.8,26,0.00,,---,0.00,VWS V14.01,2013-08-25 06:10:00,
2013-08-25 01:11:00,96.0,55.7,0.00,SSW,202,15.7,16.8,26,0.00,,---,0.00,VWS V14.01,2013-08-25 06:11:00,
2013-08-25 01:12:00,96.2,55.8,0.00,SW,225,13.2,16.8,26,0.00,,---,0.00,VWS V14.01,2013-08-25 06:12:00,
2013-08-25 01:13:00,95.9,55.5,0.00,SSW,202,16.3,18.8,26,0.00,,---,0.00,VWS V14.01,2013-08-25 06:13:00,
2013-08-25 01:14:00,95.5,55.2,0.00,SW,225,15.2,18.8,26,0.00,,---,0.00,VWS V14.01,2013-08-25 06:14:00,
2013-08-25 01:15:00,95.5,55.2,0.00,SW,225,13.4,18.8,26,0.00,,---,0.00,VWS V14.01,2013-08-25 06:15:00,
2013-08-25 01:16:00,95.5,55.2,0.00,SW,225,8.7,13.4,26,0.00,,---,0.00,VWS V14.01,2013-08-25 06:16:00,
2013-08-25 01:17:00,95.7,55.3,0.00,SW,225,7.6,13.4,26,0.00,,---,0.00,VWS V14.01,2013-08-25 06:17:00,
2013-08-25 01:18:00,95.7,55.3,0.00,SW,225,8.7,13.4,26,0.00,,---,0.00,VWS V14.01,2013-08-25 06:18:00,
2013-08-25 01:19:00,96.2,56.8,0.00,SW,225,7.6,13.4,27,0.00,,---,0.00,VWS V14.01,2013-08-25 06:19:00,
2013-08-25 01:20:00,96.6,56.1,0.00,SW,225,10.5,13.4,26,0.00,,---,0.00,VWS V14.01,2013-08-25 06:20:00,
2013-08-25 01:21:00,96.8,56.3,0.00,SW,225,10.5,13.4,26,0.00,,---,0.00,VWS V14.01,2013-08-25 06:21:00,
2013-08-25 01:23:00,96.9,56.4,0.00,SSW,202,7.6,13.4,26,0.00,,---,0.00,VWS V14.01,2013-08-25 06:23:00,
2013-08-25 01:24:00,97.5,56.9,0.00,SW,225,11.0,13.4,26,0.00,,---,0.00,VWS V14.01,2013-08-25 06:24:00,
2013-08-25 01:25:00,97.7,57.0,0.00,SW,225,14.8,15.2,26,0.00,,---,0.00,VWS V14.01,2013-08-25 06:25:00,
2013-08-25 01:26:00,97.7,57.0,0.00,South,180,10.7,15.2,26,0.00,,---,0.00,VWS V14.01,2013-08-25 06:26:00,
2013-08-25 01:27:00,97.7,55.9,0.00,WSW,248,10.7,15.2,25,0.00,,---,0.00,VWS V14.01,2013-08-25 06:27:00,
2013-08-25 01:29:00,97.7,55.9,0.00,SW,225,17.5,17.5,25,0.00,,---,0.00,VWS V14.01,2013-08-25 06:29:00,
2013-08-25 01:30:00,97.3,54.5,0.00,SW,225,12.3,18.1,24,0.00,,---,0.00,VWS V14.01,2013-08-25 06:30:00,
2013-08-25 01:31:00,97.3,55.6,0.00,SW,225,10.3,12.3,25,0.00,,---,0.00,VWS V14.01,2013-08-25 06:31:00,
2013-08-25 01:32:00,97.3,55.6,0.00,SW,225,10.3,12.8,25,0.00,,---,0.00,VWS V14.01,2013-08-25 06:32:00,
2013-08-25 01:33:00,97.7,55.9,0.00,SW,225,17.5,17.5,25,0.00,,---,0.00,VWS V14.01,2013-08-25 06:33:00,
2013-08-25 01:34:00,97.5,54.7,0.00,SW,225,17.2,17.5,24,0.00,,---,0.00,VWS V14.01,2013-08-25 06:34:00,
2013-08-25 01:35:00,97.3,55.6,0.00,SW,225,12.5,17.7,25,0.00,,---,0.00,VWS V14.01,2013-08-25 06:35:00,
2013-08-25 01:36:00,97.3,55.6,0.00,SW,225,12.5,20.6,25,0.00,,---,0.00,VWS V14.01,2013-08-25 06:36:00,
2013-08-25 01:37:00,97.1,53.2,0.00,SW,225,13.0,20.6,23,0.00,,---,0.00,VWS V14.01,2013-08-25 06:37:00,
2013-08-25 01:38:00,96.8,54.1,0.00,South,180,14.3,20.6,24,0.00,,---,0.00,VWS V14.01,2013-08-25 06:38:00,
2013-08-25 01:39:00,96.8,54.1,0.00,SW,225,12.1,20.6,24,0.00,,---,0.00,VWS V14.01,2013-08-25 06:39:00,
2013-08-25 01:40:00,96.9,54.2,0.00,SW,225,13.0,20.6,24,0.00,,---,0.00,VWS V14.01,2013-08-25 06:40:00,
2013-08-25 01:41:00,96.9,54.2,0.00,South,180,9.8,20.6,24,0.00,,---,0.00,VWS V14.01,2013-08-25 06:41:00,
2013-08-25 01:42:00,97.3,53.3,0.00,SW,225,13.4,20.6,23,0.00,,---,0.00,VWS V14.01,2013-08-25 06:42:00,
2013-08-25 01:43:00,97.5,53.5,0.00,SW,225,13.2,20.6,23,0.00,,---,0.00,VWS V14.01,2013-08-25 06:43:00,
2013-08-25 01:44:00,97.5,53.5,0.00,South,180,9.8,20.6,23,0.00,,---,0.00,VWS V14.01,2013-08-25 06:44:00,
2013-08-25 01:45:00,97.8,55.0,0.00,SW,225,11.0,20.6,24,0.00,,---,0.00,VWS V14.01,2013-08-25 06:45:00,
2013-08-25 01:46:00,98.2,55.3,0.00,SW,225,17.7,17.7,24,0.00,,---,0.00,VWS V14.01,2013-08-25 06:46:00,
2013-08-25 01:47:00,98.4,54.2,0.00,SW,225,14.8,17.9,23,0.00,,---,0.00,VWS V14.01,2013-08-25 06:47:00,
2013-08-25 01:48:00,98.2,52.9,0.00,SW,225,12.5,17.9,22,0.00,,---,0.00,VWS V14.01,2013-08-25 06:48:00,
2013-08-25 01:49:00,97.8,52.6,0.00,South,180,13.2,17.9,22,0.00,,---,0.00,VWS V14.01,2013-08-25 06:49:00,
2013-08-25 01:50:00,98.0,53.9,0.00,SW,225,11.0,17.9,23,0.00,,---,0.00,VWS V14.01,2013-08-25 06:50:00,
2013-08-25 01:51:00,97.8,53.8,0.00,South,180,14.8,17.9,23,0.00,,---,0.00,VWS V14.01,2013-08-25 06:51:00,
2013-08-25 01:52:00,97.8,53.8,0.00,South,180,9.8,17.9,23,0.00,,---,0.00,VWS V14.01,2013-08-25 06:52:00,
2013-08-25 01:53:00,98.2,52.9,0.00,SW,225,15.2,17.9,22,0.00,,---,0.00,VWS V14.01,2013-08-25 06:53:00,
2013-08-25 01:54:00,98.2,52.9,0.00,SW,225,11.9,17.9,22,0.00,,---,0.00,VWS V14.01,2013-08-25 06:54:00,
2013-08-25 01:55:00,98.2,52.9,0.00,South,180,13.0,17.9,22,0.00,,---,0.00,VWS V14.01,2013-08-25 06:55:00,
2013-08-25 01:56:00,98.0,53.9,0.00,SSW,202,14.8,17.9,23,0.00,,---,0.00,VWS V14.01,2013-08-25 06:56:00,
2013-08-25 01:57:00,98.0,53.9,0.00,SW,225,15.4,17.9,23,0.00,,---,0.00,VWS V14.01,2013-08-25 06:57:00,
2013-08-25 01:58:00,97.8,53.8,0.00,South,180,25.1,25.1,23,0.00,,---,0.00,VWS V14.01,2013-08-25 06:58:00,
2013-08-25 01:59:00,96.9,51.8,0.00,South,180,26.6,26.6,22,0.00,,---,0.00,VWS V14.01,2013-08-25 06:59:00,
2013-08-25 02:00:00,96.8,52.9,0.00,South,180,17.5,26.6,23,0.00,,---,0.00,VWS V14.01,2013-08-25 07:00:00,
2013-08-25 02:01:00,96.9,51.8,0.00,SW,225,13.4,17.7,22,0.00,,---,0.00,VWS V14.01,2013-08-25 07:01:00,
2013-08-25 02:02:00,97.3,50.9,0.00,SSW,202,15.7,17.7,21,0.00,,---,0.00,VWS V14.01,2013-08-25 07:02:00,
2013-08-25 02:04:00,96.9,53.0,0.00,South,180,22.6,23.9,23,0.00,,---,0.00,VWS V14.01,2013-08-25 07:04:00,
2013-08-25 02:05:00,96.4,51.4,0.00,South,180,19.5,25.1,22,0.00,,---,0.00,VWS V14.01,2013-08-25 07:05:00,
2013-08-25 02:06:00,96.0,51.1,0.00,SSW,202,25.3,25.3,22,0.00,,---,0.00,VWS V14.01,2013-08-25 07:06:00,
2013-08-25 02:07:00,96.6,50.3,0.00,SW,225,14.8,25.3,21,0.00,,---,0.00,VWS V14.01,2013-08-25 07:07:00,
2013-08-25 02:08:00,96.8,51.7,0.00,South,180,10.5,25.3,22,0.00,,---,0.00,VWS V14.01,2013-08-25 07:08:00,
2013-08-25 02:09:00,97.1,52.0,0.00,South,180,23.0,25.3,22,0.00,,---,0.00,VWS V14.01,2013-08-25 07:09:00,
2013-08-25 02:10:00,96.9,50.6,0.00,South,180,22.8,25.3,21,0.00,,---,0.00,VWS V14.01,2013-08-25 07:10:00,
2013-08-25 02:11:00,96.8,51.7,0.00,SSW,202,17.9,25.3,22,0.00,,---,0.00,VWS V14.01,2013-08-25 07:11:00,
2013-08-25 02:12:00,96.8,51.7,0.00,South,180,12.1,25.3,22,0.00,,---,0.00,VWS V14.01,2013-08-25 07:12:00,
2013-08-25 02:13:00,97.1,52.0,0.00,South,180,22.4,25.3,22,0.00,,---,0.00,VWS V14.01,2013-08-25 07:13:00,
2013-08-25 02:14:00,97.1,50.7,0.00,South,180,25.5,25.5,21,0.00,,---,0.00,VWS V14.01,2013-08-25 07:14:00,
2013-08-25 02:15:00,96.8,51.7,0.00,SSW,202,17.2,25.5,22,0.00,,---,0.00,VWS V14.01,2013-08-25 07:15:00,
2013-08-25 02:16:00,96.8,49.1,0.00,South,180,20.1,25.3,20,0.00,,---,0.00,VWS V14.01,2013-08-25 07:16:00,
2013-08-25 02:17:00,96.9,49.3,0.00,South,180,17.7,25.3,20,0.00,,---,0.00,VWS V14.01,2013-08-25 07:17:00,
2013-08-25 02:18:00,96.9,50.6,0.00,South,180,15.4,25.3,21,0.00,,---,0.00,VWS V14.01,2013-08-25 07:18:00,
2013-08-25 02:19:00,96.8,50.4,0.00,SW,225,14.1,25.3,21,0.00,,---,0.00,VWS V14.01,2013-08-25 07:19:00,
2013-08-25 02:20:00,97.5,51.0,0.00,SW,225,13.4,25.3,21,0.00,,---,0.00,VWS V14.01,2013-08-25 07:20:00,
2013-08-25 02:21:00,97.8,51.3,0.00,SW,225,12.8,25.3,21,0.00,,---,0.00,VWS V14.01,2013-08-25 07:21:00,
2013-08-25 02:22:00,98.0,51.5,0.00,SW,225,9.4,25.3,21,0.00,,---,0.00,VWS V14.01,2013-08-25 07:22:00,
2013-08-25 02:24:00,98.2,50.3,0.00,SW,225,12.3,25.3,20,0.00,,---,0.00,VWS V14.01,2013-08-25 07:24:00,
2013-08-25 02:25:00,97.5,52.3,0.00,SSW,202,14.8,25.3,22,0.00,,---,0.00,VWS V14.01,2013-08-25 07:25:00,
2013-08-25 02:26:00,97.7,52.4,0.00,SSW,202,14.8,25.3,22,0.00,,---,0.00,VWS V14.01,2013-08-25 07:26:00,
2013-08-25 02:27:00,98.0,52.7,0.00,SW,225,10.3,25.3,22,0.00,,---,0.00,VWS V14.01,2013-08-25 07:27:00,
2013-08-25 02:28:00,98.4,51.8,0.00,SW,225,13.0,25.3,21,0.00,,---,0.00,VWS V14.01,2013-08-25 07:28:00,
2013-08-25 02:29:00,98.4,51.8,0.00,South,180,13.6,25.3,21,0.00,,---,0.00,VWS V14.01,2013-08-25 07:29:00,
2013-08-25 02:30:00,98.7,50.7,0.00,SW,225,12.1,25.3,20,0.00,,---,0.00,VWS V14.01,2013-08-25 07:30:00,
2013-08-25 02:31:00,98.7,50.7,0.00,SW,225,11.0,14.1,20,0.00,,---,0.00,VWS V14.01,2013-08-25 07:31:00,
2013-08-25 02:32:00,98.6,51.9,0.00,South,180,8.5,14.1,21,0.00,,---,0.00,VWS V14.01,2013-08-25 07:32:00,
2013-08-25 02:33:00,98.6,51.9,0.00,South,180,24.6,24.6,21,0.00,,---,0.00,VWS V14.01,2013-08-25 07:33:00,
2013-08-25 02:34:00,98.2,51.6,0.00,SSW,202,25.7,25.7,21,0.00,,---,0.00,VWS V14.01,2013-08-25 07:34:00,
2013-08-25 02:35:00,97.7,52.4,0.00,South,180,19.9,25.7,22,0.00,,---,0.00,VWS V14.01,2013-08-25 07:35:00,
2013-08-25 02:36:00,98.0,51.5,0.00,SW,225,17.0,25.7,21,0.00,,---,0.00,VWS V14.01,2013-08-25 07:36:00,
2013-08-25 02:37:00,98.0,51.5,0.00,South,180,14.8,25.7,21,0.00,,---,0.00,VWS V14.01,2013-08-25 07:37:00,
2013-08-25 02:38:00,98.0,51.5,0.00,SW,225,11.0,25.7,21,0.00,,---,0.00,VWS V14.01,2013-08-25 07:38:00,
2013-08-25 02:39:00,98.2,51.6,0.00,South,180,13.6,25.7,21,0.00,,---,0.00,VWS V14.01,2013-08-25 07:39:00,
2013-08-25 02:40:00,98.2,51.6,0.00,South,180,14.1,25.7,21,0.00,,---,0.00,VWS V14.01,2013-08-25 07:40:00,
2013-08-25 02:41:00,98.2,51.6,0.00,South,180,13.0,25.7,21,0.00,,---,0.00,VWS V14.01,2013-08-25 07:41:00,
2013-08-25 02:42:00,98.0,50.2,0.00,SW,225,14.8,25.7,20,0.00,,---,0.00,VWS V14.01,2013-08-25 07:42:00,
2013-08-25 02:44:00,98.0,51.5,0.00,South,180,17.7,25.7,21,0.00,,---,0.00,VWS V14.01,2013-08-25 07:44:00,
2013-08-25 02:45:00,97.7,49.9,0.00,South,180,22.4,25.7,20,0.00,,---,0.00,VWS V14.01,2013-08-25 07:45:00,
2013-08-25 02:46:00,97.7,49.9,0.00,South,180,23.0,23.0,20,0.00,,---,0.00,VWS V14.01,2013-08-25 07:46:00,
2013-08-25 02:47:00,97.7,49.9,0.00,SW,225,14.8,23.0,20,0.00,,---,0.00,VWS V14.01,2013-08-25 07:47:00,
2013-08-25 02:48:00,98.0,50.2,0.00,South,180,25.5,25.5,20,0.00,,---,0.00,VWS V14.01,2013-08-25 07:48:00,
2013-08-25 02:49:00,98.0,50.2,0.00,South,180,25.5,25.5,20,0.00,,---,0.00,VWS V14.01,2013-08-25 07:49:00,
2013-08-25 02:50:00,98.0,50.2,0.00,South,180,14.8,25.5,20,0.00,,---,0.00,VWS V14.01,2013-08-25 07:50:00,
2013-08-25 02:51:00,98.2,50.3,0.00,South,180,9.2,25.5,20,0.00,,---,0.00,VWS V14.01,2013-08-25 07:51:00,
2013-08-25 02:52:00,98.6,50.6,0.00,South,180,15.4,25.5,20,0.00,,---,0.00,VWS V14.01,2013-08-25 07:52:00,
2013-08-25 02:53:00,98.4,50.5,0.00,South,180,23.3,25.5,20,0.00,,---,0.00,VWS V14.01,2013-08-25 07:53:00,
2013-08-25 02:54:00,97.5,49.7,0.00,South,180,19.9,31.1,20,0.00,,---,0.00,VWS V14.01,2013-08-25 07:54:00,
2013-08-25 02:55:00,97.8,51.3,0.00,South,180,17.9,31.1,21,0.00,,---,0.00,VWS V14.01,2013-08-25 07:55:00,
2013-08-25 02:56:00,97.7,49.9,0.00,South,180,27.7,31.1,20,0.00,,---,0.00,VWS V14.01,2013-08-25 07:56:00,
2013-08-25 02:58:00,97.7,49.9,0.00,South,180,14.3,31.1,20,0.00,,---,0.00,VWS V14.01,2013-08-25 07:58:00,
2013-08-25 02:59:00,97.5,49.7,0.00,South,180,16.1,31.1,20,0.00,,---,0.00,VWS V14.01,2013-08-25 07:59:00,
2013-08-25 03:00:00,97.7,49.9,0.00,South,180,25.3,31.1,20,0.00,,---,0.00,VWS V14.01,2013-08-25 08:00:00,
2013-08-25 03:01:00,97.1,49.4,0.00,SSW,202,15.2,25.3,20,0.00,,---,0.00,VWS V14.01,2013-08-25 08:01:00,
2013-08-25 03:02:00,97.7,49.9,0.00,South,180,10.3,25.3,20,0.00,,---,0.00,VWS V14.01,2013-08-25 08:02:00,
2013-08-25 03:04:00,97.7,49.9,0.00,SW,225,14.8,25.3,20,0.00,,---,0.00,VWS V14.01,2013-08-25 08:04:00,
2013-08-25 03:05:00,98.4,49.1,0.00,South,180,14.3,25.3,19,0.00,,---,0.00,VWS V14.01,2013-08-25 08:05:00,
2013-08-25 03:06:00,98.6,50.6,0.00,SW,225,22.4,25.3,20,0.00,,---,0.00,VWS V14.01,2013-08-25 08:06:00,
2013-08-25 03:07:00,98.6,50.6,0.00,South,180,16.6,25.3,20,0.00,,---,0.00,VWS V14.01,2013-08-25 08:07:00,
2013-08-25 03:08:00,98.6,50.6,0.00,South,180,16.8,25.3,20,0.00,,---,0.00,VWS V14.01,2013-08-25 08:08:00,
2013-08-25 03:09:00,98.0,50.2,0.00,South,180,17.2,25.3,20,0.00,,---,0.00,VWS V14.01,2013-08-25 08:09:00,
2013-08-25 03:10:00,97.5,48.3,0.00,SSE,158,16.1,25.3,19,0.00,,---,0.00,VWS V14.01,2013-08-25 08:10:00,
2013-08-25 03:11:00,97.5,48.3,0.00,South,180,18.6,25.3,19,0.00,,---,0.00,VWS V14.01,2013-08-25 08:11:00,
2013-08-25 03:12:00,97.7,48.5,0.00,SW,225,21.9,25.3,19,0.00,,---,0.00,VWS V14.01,2013-08-25 08:12:00,
2013-08-25 03:13:00,98.0,48.8,0.00,SW,225,15.2,25.3,19,0.00,,---,0.00,VWS V14.01,2013-08-25 08:13:00,
2013-08-25 03:14:00,97.5,48.3,0.00,South,180,19.5,25.3,19,0.00,,---,0.00,VWS V14.01,2013-08-25 08:14:00,
2013-08-25 03:15:00,97.5,48.3,0.00,SSW,202,25.3,25.3,19,0.00,,---,0.00,VWS V14.01,2013-08-25 08:15:00,
2013-08-25 03:16:00,97.3,48.2,0.00,South,180,17.7,25.3,19,0.00,,---,0.00,VWS V14.01,2013-08-25 08:16:00,
2013-08-25 03:18:00,97.3,48.2,0.00,South,180,15.4,25.3,19,0.00,,---,0.00,VWS V14.01,2013-08-25 08:18:00,
2013-08-25 03:19:00,97.3,48.2,0.00,South,180,24.4,25.3,19,0.00,,---,0.00,VWS V14.01,2013-08-25 08:19:00,
2013-08-25 03:20:00,97.5,48.3,0.00,South,180,15.7,25.3,19,0.00,,---,0.00,VWS V14.01,2013-08-25 08:20:00,
2013-08-25 03:21:00,97.5,48.3,0.00,SSW,202,17.7,25.3,19,0.00,,---,0.00,VWS V14.01,2013-08-25 08:21:00,
2013-08-25 03:22:00,97.7,48.5,0.00,SSE,158,22.4,25.3,19,0.00,,---,0.00,VWS V14.01,2013-08-25 08:22:00,
2013-08-25 03:24:00,97.5,49.7,0.00,South,180,15.4,25.3,20,0.00,,---,0.00,VWS V14.01,2013-08-25 08:24:00,
2013-08-25 03:25:00,97.5,49.7,0.00,South,180,15.2,25.3,20,0.00,,---,0.00,VWS V14.01,2013-08-25 08:25:00,
2013-08-25 03:26:00,97.5,49.7,0.00,SW,225,14.3,25.3,20,0.00,,---,0.00,VWS V14.01,2013-08-25 08:26:00,
2013-08-25 03:27:00,97.8,48.6,0.00,SSW,202,12.5,25.3,19,0.00,,---,0.00,VWS V14.01,2013-08-25 08:27:00,
2013-08-25 03:28:00,97.8,50.0,0.00,SSW,202,10.5,25.3,20,0.00,,---,0.00,VWS V14.01,2013-08-25 08:28:00,
2013-08-25 03:29:00,97.8,50.0,0.00,SW,225,10.3,25.3,20,0.00,,---,0.00,VWS V14.01,2013-08-25 08:29:00,
2013-08-25 03:30:00,98.0,48.8,0.00,South,180,14.8,25.3,19,0.00,,---,0.00,VWS V14.01,2013-08-25 08:30:00,
2013-08-25 03:31:00,98.0,48.8,0.00,South,180,18.6,18.6,19,0.00,,---,0.00,VWS V14.01,2013-08-25 08:31:00,
2013-08-25 03:32:00,97.5,48.3,0.00,South,180,19.5,26.0,19,0.00,,---,0.00,VWS V14.01,2013-08-25 08:32:00,
2013-08-25 03:33:00,97.1,48.0,0.00,South,180,17.0,26.0,19,0.00,,---,0.00,VWS V14.01,2013-08-25 08:33:00,
2013-08-25 03:34:00,97.1,48.0,0.00,South,180,11.2,26.0,19,0.00,,---,0.00,VWS V14.01,2013-08-25 08:34:00,
2013-08-25 03:35:00,97.3,49.6,0.00,South,180,24.6,26.0,20,0.00,,---,0.00,VWS V14.01,2013-08-25 08:35:00,
2013-08-25 03:36:00,97.5,49.7,0.00,South,180,19.9,30.2,20,0.00,,---,0.00,VWS V14.01,2013-08-25 08:36:00,
2013-08-25 03:37:00,97.5,49.7,0.00,SW,225,15.9,30.2,20,0.00,,---,0.00,VWS V14.01,2013-08-25 08:37:00,
2013-08-25 03:38:00,97.5,49.7,0.00,South,180,13.0,30.2,20,0.00,,---,0.00,VWS V14.01,2013-08-25 08:38:00,
2013-08-25 03:39:00,97.8,50.0,0.00,SSW,202,19.5,30.2,20,0.00,,---,0.00,VWS V14.01,2013-08-25 08:39:00,
2013-08-25 03:40:00,97.8,48.6,0.00,SSE,158,25.7,30.2,19,0.00,,---,0.00,VWS V14.01,2013-08-25 08:40:00,
2013-08-25 03:41:00,97.8,48.6,0.00,South,180,24.4,30.2,19,0.00,,---,0.00,VWS V14.01,2013-08-25 08:41:00,
2013-08-25 03:42:00,97.3,48.2,0.00,South,180,17.5,30.2,19,0.00,,---,0.00,VWS V14.01,2013-08-25 08:42:00,
2013-08-25 03:43:00,97.5,48.3,0.00,South,180,17.5,30.2,19,0.00,,---,0.00,VWS V14.01,2013-08-25 08:43:00,
2013-08-25 03:44:00,97.5,48.3,0.00,SW,225,17.9,30.2,19,0.00,,---,0.00,VWS V14.01,2013-08-25 08:44:00,
2013-08-25 03:45:00,97.5,48.3,0.00,SW,225,14.8,30.2,19,0.00,,---,0.00,VWS V14.01,2013-08-25 08:45:00,
2013-08-25 03:46:00,97.5,48.3,0.00,SW,225,15.2,15.2,19,0.00,,---,0.00,VWS V14.01,2013-08-25 08:46:00,
2013-08-25 03:47:00,97.5,48.3,0.00,SW,225,13.0,15.2,19,0.00,,---,0.00,VWS V14.01,2013-08-25 08:47:00,
2013-08-25 03:48:00,97.5,48.3,0.00,SW,225,15.4,15.4,19,0.00,,---,0.00,VWS V14.01,2013-08-25 08:48:00,
2013-08-25 03:49:00,97.7,48.5,0.00,SW,225,13.2,19.7,19,0.00,,---,0.00,VWS V14.01,2013-08-25 08:49:00,
2013-08-25 03:50:00,97.8,48.6,0.00,SW,225,14.3,19.7,19,0.00,,---,0.00,VWS V14.01,2013-08-25 08:50:00,
2013-08-25 03:51:00,97.8,48.6,0.00,SSW,202,15.4,19.7,19,0.00,,---,0.00,VWS V14.01,2013-08-25 08:51:00,
2013-08-25 03:52:00,97.8,48.6,0.00,SSW,202,15.4,19.7,19,0.00,,---,0.00,VWS V14.01,2013-08-25 08:52:00,
2013-08-25 03:53:00,97.8,48.6,0.00,South,180,12.5,19.7,19,0.00,,---,0.00,VWS V14.01,2013-08-25 08:53:00,
2013-08-25 03:54:00,97.7,48.5,0.00,South,180,10.7,19.7,19,0.00,,---,0.00,VWS V14.01,2013-08-25 08:54:00,
2013-08-25 03:55:00,97.8,50.0,0.00,South,180,22.6,22.6,20,0.00,,---,0.00,VWS V14.01,2013-08-25 08:55:00,
2013-08-25 03:56:00,97.5,49.7,0.00,South,180,20.8,26.2,20,0.00,,---,0.00,VWS V14.01,2013-08-25 08:56:00,
2013-08-25 03:57:00,97.5,49.7,0.00,South,180,24.6,26.2,20,0.00,,---,0.00,VWS V14.01,2013-08-25 08:57:00,
2013-08-25 03:58:00,97.5,49.7,0.00,South,180,32.0,32.0,20,0.00,,---,0.00,VWS V14.01,2013-08-25 08:58:00,
2013-08-25 04:00:00,96.9,49.3,0.00,South,180,13.0,32.0,20,0.00,,---,0.00,VWS V14.01,2013-08-25 09:00:00,
2013-08-25 04:01:00,97.3,49.6,0.00,SW,225,12.3,14.3,20,0.00,,---,0.00,VWS V14.01,2013-08-25 09:01:00,
2013-08-25 04:02:00,97.7,51.2,0.00,South,180,13.2,15.9,21,0.00,,---,0.00,VWS V14.01,2013-08-25 09:02:00,
2013-08-25 04:03:00,97.7,51.2,0.00,SSW,202,15.9,16.1,21,0.00,,---,0.00,VWS V14.01,2013-08-25 09:03:00,
2013-08-25 04:04:00,97.8,50.0,0.00,South,180,15.9,19.5,20,0.00,,---,0.00,VWS V14.01,2013-08-25 09:04:00,
2013-08-25 04:05:00,97.7,51.2,0.00,SW,225,14.1,23.7,21,0.00,,---,0.00,VWS V14.01,2013-08-25 09:05:00,
2013-08-25 04:06:00,97.5,49.7,0.00,South,180,19.9,23.7,20,0.00,,---,0.00,VWS V14.01,2013-08-25 09:06:00,
2013-08-25 04:07:00,96.4,50.1,0.00,SSW,202,20.6,23.7,21,0.00,,---,0.00,VWS V14.01,2013-08-25 09:07:00,
2013-08-25 04:08:00,96.0,49.8,0.00,South,180,20.1,23.7,21,0.00,,---,0.00,VWS V14.01,2013-08-25 09:08:00,
2013-08-25 04:09:00,95.3,49.2,0.00,SW,225,17.7,23.7,21,0.00,,---,0.00,VWS V14.01,2013-08-25 09:09:00,
2013-08-25 04:10:00,95.0,49.0,0.00,SSW,202,13.2,23.7,21,0.00,,---,0.00,VWS V14.01,2013-08-25 09:10:00,
2013-08-25 04:11:00,94.8,48.8,0.00,South,180,12.3,23.7,21,0.00,,---,0.00,VWS V14.01,2013-08-25 09:11:00,
2013-08-25 04:12:00,94.8,48.8,0.00,South,180,15.9,23.7,21,0.00,,---,0.00,VWS V14.01,2013-08-25 09:12:00,
2013-08-25 04:13:00,95.7,50.8,0.00,South,180,12.3,23.7,22,0.00,,---,0.00,VWS V14.01,2013-08-25 09:13:00,
2013-08-25 04:14:00,95.9,49.7,0.00,SW,225,12.3,23.7,21,0.00,,---,0.00,VWS V14.01,2013-08-25 09:14:00,
2013-08-25 04:15:00,96.0,49.8,0.00,South,180,10.7,23.7,21,0.00,,---,0.00,VWS V14.01,2013-08-25 09:15:00,
2013-08-25 04:16:00,96.4,48.8,0.00,SW,225,13.9,16.3,20,0.00,,---,0.00,VWS V14.01,2013-08-25 09:16:00,
2013-08-25 04:17:00,96.6,49.0,0.00,SSW,202,13.9,16.3,20,0.00,,---,0.00,VWS V14.01,2013-08-25 09:17:00,
2013-08-25 04:18:00,96.6,47.6,0.00,SW,225,17.7,17.7,19,0.00,,---,0.00,VWS V14.01,2013-08-25 09:18:00,
2013-08-25 04:19:00,96.8,47.8,0.00,South,180,13.0,17.7,19,0.00,,---,0.00,VWS V14.01,2013-08-25 09:19:00,
2013-08-25 04:20:00,96.9,47.9,0.00,South,180,12.3,17.7,19,0.00,,---,0.00,VWS V14.01,2013-08-25 09:20:00,
2013-08-25 04:21:00,97.3,49.6,0.00,SW,225,10.5,17.7,20,0.00,,---,0.00,VWS V14.01,2013-08-25 09:21:00,
2013-08-25 04:22:00,97.3,49.6,0.00,SW,225,12.1,17.7,20,0.00,,---,0.00,VWS V14.01,2013-08-25 09:22:00,
2013-08-25 04:23:00,97.3,49.6,0.00,South,180,17.2,17.7,20,0.00,,---,0.00,VWS V14.01,2013-08-25 09:23:00,
2013-08-25 04:25:00,98.0,50.2,0.00,South,180,17.2,17.7,20,0.00,,---,0.00,VWS V14.01,2013-08-25 09:25:00,
2013-08-25 04:26:00,97.8,50.0,0.00,SW,225,13.0,22.4,20,0.00,,---,0.00,VWS V14.01,2013-08-25 09:26:00,
2013-08-25 04:27:00,98.0,50.2,0.00,South,180,14.5,22.4,20,0.00,,---,0.00,VWS V14.01,2013-08-25 09:27:00,
2013-08-25 04:28:00,97.8,50.0,0.00,South,180,23.3,23.3,20,0.00,,---,0.00,VWS V14.01,2013-08-25 09:28:00,
2013-08-25 04:29:00,97.5,49.7,0.00,South,180,15.7,28.0,20,0.00,,---,0.00,VWS V14.01,2013-08-25 09:29:00,
2013-08-25 04:30:00,97.5,49.7,0.00,South,180,24.4,24.4,20,0.00,,---,0.00,VWS V14.01,2013-08-25 09:30:00,
2013-08-25 04:31:00,96.9,49.3,0.00,South,180,17.0,24.4,20,0.00,,---,0.00,VWS V14.01,2013-08-25 09:31:00,
2013-08-25 04:32:00,96.8,49.1,0.00,South,180,24.4,24.4,20,0.00,,---,0.00,VWS V14.01,2013-08-25 09:32:00,
2013-08-25 04:33:00,96.8,49.1,0.00,South,180,27.7,32.2,20,0.00,,---,0.00,VWS V14.01,2013-08-25 09:33:00,
2013-08-25 04:34:00,96.8,49.1,0.00,South,180,17.7,32.2,20,0.00,,---,0.00,VWS V14.01,2013-08-25 09:34:00,
2013-08-25 04:35:00,96.8,49.1,0.00,South,180,21.9,32.2,20,0.00,,---,0.00,VWS V14.01,2013-08-25 09:35:00,
2013-08-25 04:36:00,96.0,48.5,0.00,South,180,17.0,32.2,20,0.00,,---,0.00,VWS V14.01,2013-08-25 09:36:00,
2013-08-25 04:37:00,95.5,49.4,0.00,SW,225,15.4,32.2,21,0.00,,---,0.00,VWS V14.01,2013-08-25 09:37:00,
2013-08-25 04:38:00,95.9,49.7,0.00,SW,225,12.1,32.2,21,0.00,,---,0.00,VWS V14.01,2013-08-25 09:38:00,
2013-08-25 04:39:00,96.4,48.8,0.00,SW,225,16.3,32.2,20,0.00,,---,0.00,VWS V14.01,2013-08-25 09:39:00,
2013-08-25 04:40:00,96.6,47.6,0.00,SW,225,19.5,32.2,19,0.00,,---,0.00,VWS V14.01,2013-08-25 09:40:00,
2013-08-25 04:41:00,96.6,47.6,0.00,SW,225,19.5,32.2,19,0.00,,---,0.00,VWS V14.01,2013-08-25 09:41:00,
2013-08-25 04:42:00,96.9,47.9,0.00,SSW,202,11.2,32.2,19,0.00,,---,0.00,VWS V14.01,2013-08-25 09:42:00,
2013-08-25 04:43:00,97.1,48.0,0.00,South,180,8.7,32.2,19,0.00,,---,0.00,VWS V14.01,2013-08-25 09:43:00,
2013-08-25 04:44:00,97.7,49.9,0.00,SW,225,12.1,32.2,20,0.00,,---,0.00,VWS V14.01,2013-08-25 09:44:00,
2013-08-25 04:45:00,97.8,48.6,0.00,SSW,202,12.1,32.2,19,0.00,,---,0.00,VWS V14.01,2013-08-25 09:45:00,
2013-08-25 04:47:00,97.8,48.6,0.00,SSW,202,12.1,12.1,19,0.00,,---,0.00,VWS V14.01,2013-08-25 09:47:00,
2013-08-25 04:48:00,97.8,48.6,0.00,South,180,13.0,13.9,19,0.00,,---,0.00,VWS V14.01,2013-08-25 09:48:00,
2013-08-25 04:49:00,98.0,48.8,0.00,South,180,13.0,14.8,19,0.00,,---,0.00,VWS V14.01,2013-08-25 09:49:00,
2013-08-25 04:50:00,97.8,48.6,0.00,South,180,12.8,16.3,19,0.00,,---,0.00,VWS V14.01,2013-08-25 09:50:00,
2013-08-25 04:51:00,96.6,49.0,0.00,South,180,25.3,25.5,20,0.00,,---,0.00,VWS V14.01,2013-08-25 09:51:00,
2013-08-25 04:52:00,96.8,49.1,0.00,South,180,17.5,25.5,20,0.00,,---,0.00,VWS V14.01,2013-08-25 09:52:00,
2013-08-25 04:53:00,96.9,49.3,0.00,South,180,13.2,25.5,20,0.00,,---,0.00,VWS V14.01,2013-08-25 09:53:00,
2013-08-25 04:54:00,96.9,49.3,0.00,South,180,15.9,25.5,20,0.00,,---,0.00,VWS V14.01,2013-08-25 09:54:00,
2013-08-25 04:56:00,96.9,49.3,0.00,South,180,15.9,25.5,20,0.00,,---,0.00,VWS V14.01,2013-08-25 09:56:00,
2013-08-25 04:57:00,96.6,49.0,0.00,South,180,19.5,25.5,20,0.00,,---,0.00,VWS V14.01,2013-08-25 09:57:00,
2013-08-25 04:58:00,96.8,49.1,0.00,SW,225,15.2,25.5,20,0.00,,---,0.00,VWS V14.01,2013-08-25 09:58:00,
2013-08-25 04:59:00,96.6,49.0,0.00,South,180,15.4,25.5,20,0.00,,---,0.00,VWS V14.01,2013-08-25 09:59:00,
2013-08-25 05:00:00,96.8,49.1,0.00,South,180,13.4,25.5,20,0.00,,---,0.00,VWS V14.01,2013-08-25 10:00:00,
2013-08-25 05:01:00,96.8,49.1,0.00,South,180,17.0,17.0,20,0.00,,---,0.00,VWS V14.01,2013-08-25 10:01:00,
2013-08-25 05:02:00,96.6,49.0,0.00,South,180,15.2,17.0,20,0.00,,---,0.00,VWS V14.01,2013-08-25 10:02:00,
2013-08-25 05:03:00,96.6,49.0,0.00,South,180,12.8,17.7,20,0.00,,---,0.00,VWS V14.01,2013-08-25 10:03:00,
2013-08-25 05:04:00,96.6,49.0,0.00,South,180,19.2,19.2,20,0.00,,---,0.00,VWS V14.01,2013-08-25 10:04:00,
2013-08-25 05:05:00,96.4,48.8,0.00,South,180,17.5,24.2,20,0.00,,---,0.00,VWS V14.01,2013-08-25 10:05:00,
2013-08-25 05:06:00,96.8,49.1,0.00,South,180,12.8,24.2,20,0.00,,---,0.00,VWS V14.01,2013-08-25 10:06:00,
2013-08-25 05:07:00,96.8,49.1,0.00,SSE,158,13.0,24.2,20,0.00,,---,0.00,VWS V14.01,2013-08-25 10:07:00,
2013-08-25 05:08:00,96.2,48.7,0.00,South,180,19.9,24.2,20,0.00,,---,0.00,VWS V14.01,2013-08-25 10:08:00,
2013-08-25 05:09:00,96.2,48.7,0.00,South,180,18.6,24.2,20,0.00,,---,0.00,VWS V14.01,2013-08-25 10:09:00,
2013-08-25 05:10:00,96.2,48.7,0.00,South,180,13.4,24.2,20,0.00,,---,0.00,VWS V14.01,2013-08-25 10:10:00,
2013-08-25 05:11:00,96.6,49.0,0.00,SW,225,14.8,24.2,20,0.00,,---,0.00,VWS V14.01,2013-08-25 10:11:00,
2013-08-25 05:12:00,96.8,49.1,0.00,SW,225,17.0,24.2,20,0.00,,---,0.00,VWS V14.01,2013-08-25 10:12:00,
2013-08-25 05:13:00,96.8,49.1,0.00,South,180,14.3,24.2,20,0.00,,---,0.00,VWS V14.01,2013-08-25 10:13:00,
2013-08-25 05:14:00,96.9,47.9,0.00,South,180,15.2,24.2,19,0.00,,---,0.00,VWS V14.01,2013-08-25 10:14:00,
2013-08-25 05:15:00,96.9,47.9,0.00,South,180,12.8,24.2,19,0.00,,---,0.00,VWS V14.01,2013-08-25 10:15:00,
2013-08-25 05:16:00,97.1,49.4,0.00,South,180,13.2,13.2,20,0.00,,---,0.00,VWS V14.01,2013-08-25 10:16:00,
2013-08-25 05:17:00,96.8,47.8,0.00,SSW,202,23.0,23.0,19,0.00,,---,0.00,VWS V14.01,2013-08-25 10:17:00,
2013-08-25 05:18:00,96.4,47.5,0.00,South,180,15.9,23.0,19,0.00,,---,0.00,VWS V14.01,2013-08-25 10:18:00,
2013-08-25 05:19:00,96.6,47.6,0.00,SSW,202,12.5,23.0,19,0.00,,---,0.00,VWS V14.01,2013-08-25 10:19:00,
2013-08-25 05:20:00,96.6,49.0,0.00,South,180,12.5,23.0,20,0.00,,---,0.00,VWS V14.01,2013-08-25 10:20:00,
2013-08-25 05:21:00,96.4,48.8,0.00,South,180,12.5,23.0,20,0.00,,---,0.00,VWS V14.01,2013-08-25 10:21:00,
2013-08-25 05:22:00,96.4,48.8,0.00,SSE,158,17.2,23.3,20,0.00,,---,0.00,VWS V14.01,2013-08-25 10:22:00,
2013-08-25 05:24:00,96.4,48.8,0.00,South,180,15.9,23.3,20,0.00,,---,0.00,VWS V14.01,2013-08-25 10:24:00,
2013-08-25 05:25:00,96.0,48.5,0.00,South,180,17.7,23.3,20,0.00,,---,0.00,VWS V14.01,2013-08-25 10:25:00,
2013-08-25 05:26:00,96.0,48.5,0.00,South,180,10.1,23.3,20,0.00,,---,0.00,VWS V14.01,2013-08-25 10:26:00,
2013-08-25 05:27:00,96.4,48.8,0.00,SSW,202,15.2,23.3,20,0.00,,---,0.00,VWS V14.01,2013-08-25 10:27:00,
2013-08-25 05:28:00,96.4,48.8,0.00,SSW,202,10.5,23.3,20,0.00,,---,0.00,VWS V14.01,2013-08-25 10:28:00,
2013-08-25 05:29:00,96.6,49.0,0.00,South,180,22.6,23.3,20,0.00,,---,0.00,VWS V14.01,2013-08-25 10:29:00,
2013-08-25 05:30:00,96.4,47.5,0.00,SSW,202,14.8,23.3,19,0.00,,---,0.00,VWS V14.01,2013-08-25 10:30:00,
2013-08-25 05:31:00,96.2,48.7,0.00,South,180,13.0,15.4,20,0.00,,---,0.00,VWS V14.01,2013-08-25 10:31:00,
2013-08-25 05:33:00,96.2,48.7,0.00,South,180,15.9,17.0,20,0.00,,---,0.00,VWS V14.01,2013-08-25 10:33:00,
2013-08-25 05:35:00,95.9,48.4,0.00,South,180,21.9,21.9,20,0.00,,---,0.00,VWS V14.01,2013-08-25 10:35:00,
2013-08-25 05:36:00,95.5,48.1,0.00,South,180,28.6,29.3,20,0.00,,---,0.00,VWS V14.01,2013-08-25 10:36:00,
2013-08-25 05:37:00,95.5,49.4,0.00,South,180,17.7,29.3,21,0.00,,---,0.00,VWS V14.01,2013-08-25 10:37:00,
2013-08-25 05:38:00,95.3,49.2,0.00,South,180,19.5,29.3,21,0.00,,---,0.00,VWS V14.01,2013-08-25 10:38:00,
2013-08-25 05:39:00,95.5,48.1,0.00,South,180,18.1,29.3,20,0.00,,---,0.00,VWS V14.01,2013-08-25 10:39:00,
2013-08-25 05:41:00,95.5,48.1,0.00,South,180,26.4,29.3,20,0.00,,---,0.00,VWS V14.01,2013-08-25 10:41:00,
2013-08-25 05:42:00,95.3,47.9,0.00,South,180,25.3,29.3,20,0.00,,---,0.00,VWS V14.01,2013-08-25 10:42:00,
2013-08-25 05:43:00,95.3,47.9,0.00,South,180,26.6,29.3,20,0.00,,---,0.00,VWS V14.01,2013-08-25 10:43:00,
2013-08-25 05:44:00,95.0,49.0,0.00,South,180,24.4,29.3,21,0.00,,---,0.00,VWS V14.01,2013-08-25 10:44:00,
2013-08-25 05:45:00,95.1,47.8,0.00,South,180,19.5,29.3,20,0.00,,---,0.00,VWS V14.01,2013-08-25 10:45:00,
2013-08-25 05:46:00,95.3,49.2,0.00,SSW,202,20.8,20.8,21,0.00,,---,0.00,VWS V14.01,2013-08-25 10:46:00,
2013-08-25 05:47:00,95.3,49.2,0.00,SSW,202,25.3,25.3,21,0.00,,---,0.00,VWS V14.01,2013-08-25 10:47:00,
2013-08-25 05:49:00,95.3,49.2,0.00,South,180,27.7,27.7,21,0.00,,---,0.00,VWS V14.01,2013-08-25 10:49:00,
2013-08-25 05:50:00,95.0,47.7,0.00,South,180,18.8,28.9,20,0.00,,---,0.00,VWS V14.01,2013-08-25 10:50:00,
2013-08-25 05:51:00,95.0,47.7,0.00,South,180,19.5,28.9,20,0.00,,---,0.00,VWS V14.01,2013-08-25 10:51:00,
2013-08-25 05:52:00,95.0,49.0,0.00,SSW,202,17.2,28.9,21,0.00,,---,0.00,VWS V14.01,2013-08-25 10:52:00,
2013-08-25 05:53:00,95.0,49.0,0.00,South,180,23.7,28.9,21,0.00,,---,0.00,VWS V14.01,2013-08-25 10:53:00,
2013-08-25 05:54:00,94.8,48.8,0.00,SSW,202,15.4,28.9,21,0.00,,---,0.00,VWS V14.01,2013-08-25 10:54:00,
2013-08-25 05:55:00,95.0,49.0,0.00,South,180,20.1,28.9,21,0.00,,---,0.00,VWS V14.01,2013-08-25 10:55:00,
2013-08-25 05:56:00,95.0,47.7,0.00,SW,225,17.0,28.9,20,0.00,,---,0.00,VWS V14.01,2013-08-25 10:56:00,
2013-08-25 05:57:00,95.0,47.7,0.00,South,180,12.8,28.9,20,0.00,,---,0.00,VWS V14.01,2013-08-25 10:57:00,
2013-08-25 05:58:00,95.0,49.0,0.00,South,180,15.7,28.9,21,0.00,,---,0.00,VWS V14.01,2013-08-25 10:58:00,
2013-08-25 05:59:00,95.0,49.0,0.00,SW,225,10.5,28.9,21,0.00,,---,0.00,VWS V14.01,2013-08-25 10:59:00,
2013-08-25 06:00:00,95.0,49.0,0.00,SSW,202,10.5,28.9,21,0.00,,---,0.00,VWS V14.01,2013-08-25 11:00:00,
2013-08-25 06:01:00,94.8,48.8,0.00,South,180,13.9,15.9,21,0.00,,---,0.00,VWS V14.01,2013-08-25 11:01:00,
2013-08-25 06:02:00,94.4,48.5,0.00,South,180,19.5,28.0,21,0.00,,---,0.00,VWS V14.01,2013-08-25 11:02:00,
2013-08-25 06:03:00,94.2,48.4,0.00,SW,225,13.2,28.0,21,0.00,,---,0.00,VWS V14.01,2013-08-25 11:03:00,
2013-08-25 06:04:00,94.2,48.4,0.00,South,180,22.4,28.0,21,0.00,,---,0.00,VWS V14.01,2013-08-25 11:04:00,
2013-08-25 06:05:00,93.7,47.9,0.00,South,180,24.2,28.0,21,0.00,,---,0.00,VWS V14.01,2013-08-25 11:05:00,
2013-08-25 06:06:00,93.2,47.5,0.00,South,180,22.2,28.0,21,0.00,,---,0.00,VWS V14.01,2013-08-25 11:06:00,
2013-08-25 06:07:00,92.8,47.2,0.00,South,180,15.4,28.0,21,0.00,,---,0.00,VWS V14.01,2013-08-25 11:07:00,
2013-08-25 06:08:00,93.0,48.6,0.00,SW,225,13.0,28.0,22,0.00,,---,0.00,VWS V14.01,2013-08-25 11:08:00,
2013-08-25 06:09:00,93.0,48.6,0.00,South,180,14.3,28.0,22,0.00,,---,0.00,VWS V14.01,2013-08-25 11:09:00,
2013-08-25 06:10:00,93.0,48.6,0.00,SW,225,12.5,28.0,22,0.00,,---,0.00,VWS V14.01,2013-08-25 11:10:00,
2013-08-25 06:11:00,93.0,48.6,0.00,SW,225,12.5,28.0,22,0.00,,---,0.00,VWS V14.01,2013-08-25 11:11:00,
2013-08-25 06:12:00,93.5,49.0,0.00,SSW,202,15.2,28.0,22,0.00,,---,0.00,VWS V14.01,2013-08-25 11:12:00,
2013-08-25 06:13:00,93.3,48.9,0.00,South,180,13.0,28.0,22,0.00,,---,0.00,VWS V14.01,2013-08-25 11:13:00,
2013-08-25 06:15:00,93.5,49.0,0.00,South,180,12.1,28.0,22,0.00,,---,0.00,VWS V14.01,2013-08-25 11:15:00,
2013-08-25 06:16:00,93.7,49.2,0.00,South,180,16.6,22.4,22,0.00,,---,0.00,VWS V14.01,2013-08-25 11:16:00,
2013-08-25 06:17:00,93.7,49.2,0.00,South,180,11.2,22.4,22,0.00,,---,0.00,VWS V14.01,2013-08-25 11:17:00,
2013-08-25 06:19:00,93.9,49.3,0.00,SW,225,12.5,22.4,22,0.00,,---,0.00,VWS V14.01,2013-08-25 11:19:00,
2013-08-25 06:20:00,94.1,49.5,0.00,South,180,16.1,22.4,22,0.00,,---,0.00,VWS V14.01,2013-08-25 11:20:00,
2013-08-25 06:21:00,94.1,49.5,0.00,SSW,202,12.5,22.4,22,0.00,,---,0.00,VWS V14.01,2013-08-25 11:21:00,
2013-08-25 06:22:00,93.9,49.3,0.00,SSW,202,20.6,22.4,22,0.00,,---,0.00,VWS V14.01,2013-08-25 11:22:00,
2013-08-25 06:23:00,93.9,49.3,0.00,SSW,202,17.7,22.4,22,0.00,,---,0.00,VWS V14.01,2013-08-25 11:23:00,
2013-08-25 06:24:00,93.9,49.3,0.00,South,180,17.2,22.4,22,0.00,,---,0.00,VWS V14.01,2013-08-25 11:24:00,
2013-08-25 06:25:00,93.7,49.2,0.00,South,180,16.6,22.4,22,0.00,,---,0.00,VWS V14.01,2013-08-25 11:25:00,
2013-08-25 06:26:00,93.5,49.0,0.00,SW,225,15.2,26.6,22,0.00,,---,0.00,VWS V14.01,2013-08-25 11:26:00,
2013-08-25 06:27:00,93.7,49.2,0.00,South,180,12.5,26.6,22,0.00,,---,0.00,VWS V14.01,2013-08-25 11:27:00,
2013-08-25 06:28:00,93.7,49.2,0.00,SW,225,17.0,26.6,22,0.00,,---,0.00,VWS V14.01,2013-08-25 11:28:00,
2013-08-25 06:29:00,93.5,49.0,0.00,SSW,202,22.8,26.6,22,0.00,,---,0.00,VWS V14.01,2013-08-25 11:29:00,
2013-08-25 06:30:00,93.5,49.0,0.00,South,180,16.1,26.6,22,0.00,,---,0.00,VWS V14.01,2013-08-25 11:30:00,
2013-08-25 06:31:00,93.5,49.0,0.00,South,180,23.0,23.0,22,0.00,,---,0.00,VWS V14.01,2013-08-25 11:31:00,
2013-08-25 06:32:00,93.5,47.8,0.00,South,180,15.4,26.6,21,0.00,,---,0.00,VWS V14.01,2013-08-25 11:32:00,
2013-08-25 06:33:00,93.7,49.2,0.00,SW,225,17.5,26.6,22,0.00,,---,0.00,VWS V14.01,2013-08-25 11:33:00,
2013-08-25 06:34:00,93.5,49.0,0.00,South,180,23.7,26.6,22,0.00,,---,0.00,VWS V14.01,2013-08-25 11:34:00,
2013-08-25 06:35:00,93.3,47.6,0.00,South,180,19.7,28.4,21,0.00,,---,0.00,VWS V14.01,2013-08-25 11:35:00,
2013-08-25 06:36:00,93.3,48.9,0.00,South,180,25.5,28.4,22,0.00,,---,0.00,VWS V14.01,2013-08-25 11:36:00,
2013-08-25 06:37:00,93.3,47.6,0.00,South,180,24.4,31.1,21,0.00,,---,0.00,VWS V14.01,2013-08-25 11:37:00,
2013-08-25 06:38:00,93.3,47.6,0.00,South,180,24.4,31.1,21,0.00,,---,0.00,VWS V14.01,2013-08-25 11:38:00,
2013-08-25 06:39:00,93.3,48.9,0.00,South,180,22.2,31.1,22,0.00,,---,0.00,VWS V14.01,2013-08-25 11:39:00,
2013-08-25 06:41:00,93.2,48.7,0.00,South,180,15.7,31.1,22,0.00,,---,0.00,VWS V14.01,2013-08-25 11:41:00,
2013-08-25 06:42:00,93.0,47.3,0.00,South,180,15.2,31.1,21,0.00,,---,0.00,VWS V14.01,2013-08-25 11:42:00,
2013-08-25 06:43:00,93.0,47.3,0.00,South,180,19.9,31.1,21,0.00,,---,0.00,VWS V14.01,2013-08-25 11:43:00,
2013-08-25 06:44:00,93.0,47.3,0.00,South,180,21.3,31.1,21,0.00,,---,0.00,VWS V14.01,2013-08-25 11:44:00,
2013-08-25 06:45:00,93.0,47.3,0.00,South,180,17.7,31.1,21,0.00,,---,0.00,VWS V14.01,2013-08-25 11:45:00,
2013-08-25 06:46:00,93.0,47.3,0.00,South,180,26.2,26.2,21,0.00,,---,0.00,VWS V14.01,2013-08-25 11:46:00,
2013-08-25 06:47:00,93.2,47.5,0.00,South,180,30.0,30.0,21,0.00,,---,0.00,VWS V14.01,2013-08-25 11:47:00,
2013-08-25 06:48:00,93.2,47.5,0.00,South,180,12.8,30.0,21,0.00,,---,0.00,VWS V14.01,2013-08-25 11:48:00,
2013-08-25 06:49:00,93.2,48.7,0.00,SSW,202,12.5,30.0,22,0.00,,---,0.00,VWS V14.01,2013-08-25 11:49:00,
2013-08-25 06:50:00,93.2,48.7,0.00,SSW,202,12.5,30.0,22,0.00,,---,0.00,VWS V14.01,2013-08-25 11:50:00,
2013-08-25 06:51:00,93.0,48.6,0.00,South,180,18.8,30.0,22,0.00,,---,0.00,VWS V14.01,2013-08-25 11:51:00,
2013-08-25 06:52:00,92.8,48.4,0.00,South,180,17.5,30.0,22,0.00,,---,0.00,VWS V14.01,2013-08-25 11:52:00,
2013-08-25 06:53:00,92.6,48.3,0.00,South,180,23.0,30.0,22,0.00,,---,0.00,VWS V14.01,2013-08-25 11:53:00,
2013-08-25 06:54:00,92.4,48.1,0.00,SSE,158,13.4,30.0,22,0.00,,---,0.00,VWS V14.01,2013-08-25 11:54:00,
2013-08-25 06:55:00,92.6,48.3,0.00,South,180,17.7,30.0,22,0.00,,---,0.00,VWS V14.01,2013-08-25 11:55:00,
2013-08-25 06:56:00,92.6,48.3,0.00,South,180,13.2,30.0,22,0.00,,---,0.00,VWS V14.01,2013-08-25 11:56:00,
2013-08-25 06:57:00,92.6,49.5,0.00,South,180,10.5,30.0,23,0.00,,---,0.00,VWS V14.01,2013-08-25 11:57:00,
2013-08-25 06:58:00,92.6,49.5,0.00,South,180,17.2,30.0,23,0.00,,---,0.00,VWS V14.01,2013-08-25 11:58:00,
2013-08-25 06:59:00,92.6,48.3,0.00,South,180,24.2,30.0,22,0.00,,---,0.00,VWS V14.01,2013-08-25 11:59:00,
2013-08-25 07:00:00,92.4,48.1,0.00,South,180,13.2,30.0,22,0.00,,---,0.00,VWS V14.01,2013-08-25 12:00:00,
2013-08-25 07:01:00,92.4,49.3,0.00,SW,225,17.2,19.5,23,0.00,,---,0.00,VWS V14.01,2013-08-25 12:01:00,
2013-08-25 07:02:00,92.3,49.2,0.00,South,180,15.7,23.0,23,0.00,,---,0.00,VWS V14.01,2013-08-25 12:02:00,
2013-08-25 07:03:00,92.3,49.2,0.00,South,180,13.6,23.0,23,0.00,,---,0.00,VWS V14.01,2013-08-25 12:03:00,
2013-08-25 07:04:00,92.3,49.2,0.00,South,180,17.9,23.0,23,0.00,,---,0.00,VWS V14.01,2013-08-25 12:04:00,
2013-08-25 07:05:00,92.3,49.2,0.00,South,180,17.9,23.0,23,0.00,,---,0.00,VWS V14.01,2013-08-25 12:05:00,
2013-08-25 07:06:00,92.3,49.2,0.00,SSW,202,13.0,23.0,23,0.00,,---,0.00,VWS V14.01,2013-08-25 12:06:00,
2013-08-25 07:08:00,92.3,49.2,0.00,South,180,10.1,23.0,23,0.00,,---,0.00,VWS V14.01,2013-08-25 12:08:00,
2013-08-25 07:09:00,92.3,49.2,0.00,South,180,10.5,23.0,23,0.00,,---,0.00,VWS V14.01,2013-08-25 12:09:00,
2013-08-25 07:10:00,92.3,49.2,0.00,SW,225,8.7,23.0,23,0.00,,---,0.00,VWS V14.01,2013-08-25 12:10:00,
2013-08-25 07:11:00,91.9,50.0,0.00,South,180,15.2,23.0,24,0.00,,---,0.00,VWS V14.01,2013-08-25 12:11:00,
2013-08-25 07:12:00,91.9,48.8,0.00,South,180,16.6,23.0,23,0.00,,---,0.00,VWS V14.01,2013-08-25 12:12:00,
2013-08-25 07:13:00,91.9,48.8,0.00,South,180,30.7,30.7,23,0.00,,---,0.00,VWS V14.01,2013-08-25 12:13:00,
2013-08-25 07:14:00,91.7,48.7,0.00,SSW,202,20.1,30.7,23,0.00,,---,0.00,VWS V14.01,2013-08-25 12:14:00,
2013-08-25 07:15:00,91.7,48.7,0.00,SSW,202,19.7,30.7,23,0.00,,---,0.00,VWS V14.01,2013-08-25 12:15:00,
2013-08-25 07:16:00,91.5,48.5,0.00,South,180,15.4,19.9,23,0.00,,---,0.00,VWS V14.01,2013-08-25 12:16:00,
2013-08-25 07:17:00,91.5,48.5,0.00,South,180,14.8,19.9,23,0.00,,---,0.00,VWS V14.01,2013-08-25 12:17:00,
2013-08-25 07:19:00,91.5,48.5,0.00,SSW,202,13.0,19.9,23,0.00,,---,0.00,VWS V14.01,2013-08-25 12:19:00,
2013-08-25 07:20:00,91.5,48.5,0.00,SW,225,13.0,19.9,23,0.00,,---,0.00,VWS V14.01,2013-08-25 12:20:00,
2013-08-25 07:21:00,91.5,48.5,0.00,SW,225,13.0,19.9,23,0.00,,---,0.00,VWS V14.01,2013-08-25 12:21:00,
2013-08-25 07:22:00,91.4,48.4,0.00,South,180,13.2,19.9,23,0.00,,---,0.00,VWS V14.01,2013-08-25 12:22:00,
2013-08-25 07:23:00,91.2,48.2,0.00,South,180,16.1,19.9,23,0.00,,---,0.00,VWS V14.01,2013-08-25 12:23:00,
2013-08-25 07:24:00,91.0,48.1,0.00,South,180,13.6,23.7,23,0.00,,---,0.00,VWS V14.01,2013-08-25 12:24:00,
2013-08-25 07:25:00,90.8,48.0,0.00,South,180,17.7,23.7,23,0.00,,---,0.00,VWS V14.01,2013-08-25 12:25:00,
2013-08-25 07:26:00,90.8,49.1,0.00,South,180,10.1,23.7,24,0.00,,---,0.00,VWS V14.01,2013-08-25 12:26:00,
2013-08-25 07:27:00,90.8,48.0,0.00,SSE,158,17.2,23.7,23,0.00,,---,0.00,VWS V14.01,2013-08-25 12:27:00,
2013-08-25 07:28:00,90.8,48.0,0.00,South,180,17.5,23.7,23,0.00,,---,0.00,VWS V14.01,2013-08-25 12:28:00,
2013-08-25 07:30:00,90.8,48.0,0.00,South,180,12.8,23.7,23,0.00,,---,0.00,VWS V14.01,2013-08-25 12:30:00,
2013-08-25 07:31:00,90.5,47.7,0.00,South,180,15.2,19.9,23,0.00,,---,0.00,VWS V14.01,2013-08-25 12:31:00,
2013-08-25 07:32:00,90.5,47.7,0.00,South,180,15.2,19.9,23,0.00,,---,0.00,VWS V14.01,2013-08-25 12:32:00,
2013-08-25 07:33:00,90.5,48.8,0.00,South,180,12.8,19.9,24,0.00,,---,0.00,VWS V14.01,2013-08-25 12:33:00,
2013-08-25 07:34:00,90.3,47.5,0.00,SSW,202,22.8,22.8,23,0.00,,---,0.00,VWS V14.01,2013-08-25 12:34:00,
2013-08-25 07:35:00,90.3,47.5,0.00,SSE,158,15.2,22.8,23,0.00,,---,0.00,VWS V14.01,2013-08-25 12:35:00,
2013-08-25 07:36:00,90.3,47.5,0.00,South,180,15.4,22.8,23,0.00,,---,0.00,VWS V14.01,2013-08-25 12:36:00,
2013-08-25 07:37:00,90.3,47.5,0.00,SSE,158,13.2,22.8,23,0.00,,---,0.00,VWS V14.01,2013-08-25 12:37:00,
2013-08-25 07:38:00,90.5,48.8,0.00,SSE,158,15.2,22.8,24,0.00,,---,0.00,VWS V14.01,2013-08-25 12:38:00,
2013-08-25 07:39:00,90.3,49.7,0.00,SE,135,13.2,22.8,25,0.00,,---,0.00,VWS V14.01,2013-08-25 12:39:00,
2013-08-25 07:40:00,90.3,49.7,0.00,South,180,13.2,22.8,25,0.00,,---,0.00,VWS V14.01,2013-08-25 12:40:00,
2013-08-25 07:42:00,90.1,50.6,0.00,SSE,158,23.0,23.0,26,0.00,,---,0.00,VWS V14.01,2013-08-25 12:42:00,
2013-08-25 07:43:00,89.6,51.2,0.00,South,180,25.5,25.5,27,0.00,,---,0.00,VWS V14.01,2013-08-25 12:43:00,
2013-08-25 07:45:00,89.6,51.2,0.00,SE,135,18.8,25.5,27,0.00,,---,0.00,VWS V14.01,2013-08-25 12:45:00,
2013-08-25 07:46:00,89.2,50.9,0.00,SSE,158,15.7,18.8,27,0.00,,---,0.00,VWS V14.01,2013-08-25 12:46:00,
2013-08-25 07:48:00,89.2,50.9,0.00,SSE,158,22.2,22.2,27,0.00,,---,0.00,VWS V14.01,2013-08-25 12:48:00,
2013-08-25 07:49:00,89.2,50.9,0.00,SSE,158,16.3,22.2,27,0.00,,---,0.00,VWS V14.01,2013-08-25 12:49:00,
2013-08-25 07:50:00,89.2,50.9,0.00,SSE,158,19.0,22.2,27,0.00,,---,0.00,VWS V14.01,2013-08-25 12:50:00,
2013-08-25 07:51:00,89.2,51.9,0.00,South,180,21.0,24.6,28,0.00,,---,0.00,VWS V14.01,2013-08-25 12:51:00,
2013-08-25 07:52:00,89.2,51.9,0.00,South,180,19.7,24.6,28,0.00,,---,0.00,VWS V14.01,2013-08-25 12:52:00,
2013-08-25 07:53:00,89.0,51.7,0.00,South,180,17.7,24.6,28,0.00,,---,0.00,VWS V14.01,2013-08-25 12:53:00,
2013-08-25 07:54:00,88.8,51.6,0.00,South,180,13.6,24.6,28,0.00,,---,0.00,VWS V14.01,2013-08-25 12:54:00,
2013-08-25 07:55:00,88.8,51.6,0.00,SSE,158,16.3,24.6,28,0.00,,---,0.00,VWS V14.01,2013-08-25 12:55:00,
2013-08-25 07:56:00,88.7,51.4,0.00,South,180,24.6,24.6,28,0.00,,---,0.00,VWS V14.01,2013-08-25 12:56:00,
2013-08-25 07:57:00,88.5,51.2,0.00,South,180,17.2,26.0,28,0.00,,---,0.00,VWS V14.01,2013-08-25 12:57:00,
2013-08-25 07:58:00,88.5,51.2,0.00,South,180,17.0,26.0,28,0.00,,---,0.00,VWS V14.01,2013-08-25 12:58:00,
2013-08-25 07:59:00,88.5,51.2,0.00,South,180,24.6,26.0,28,0.00,,---,0.00,VWS V14.01,2013-08-25 12:59:00,
2013-08-25 08:00:00,88.5,51.2,0.00,South,180,22.6,26.0,28,0.00,,---,0.00,VWS V14.01,2013-08-25 13:00:00,
2013-08-25 08:01:00,88.1,51.0,0.00,SE,135,23.3,23.3,28,0.00,,---,0.00,VWS V14.01,2013-08-25 13:01:00,
2013-08-25 08:02:00,87.9,50.8,0.00,SSE,158,16.8,23.3,28,0.00,,---,0.00,VWS V14.01,2013-08-25 13:02:00,
2013-08-25 08:03:00,87.8,50.6,0.00,SSE,158,15.7,23.3,28,0.00,,---,0.00,VWS V14.01,2013-08-25 13:03:00,
2013-08-25 08:04:00,87.6,50.5,0.00,South,180,22.8,23.3,28,0.00,,---,0.00,VWS V14.01,2013-08-25 13:04:00,
2013-08-25 08:06:00,87.6,50.5,0.00,South,180,22.2,23.3,28,0.00,,---,0.00,VWS V14.01,2013-08-25 13:06:00,
2013-08-25 08:07:00,87.6,50.5,0.00,South,180,23.0,23.3,28,0.00,,---,0.00,VWS V14.01,2013-08-25 13:07:00,
2013-08-25 08:08:00,87.4,50.3,0.00,SSE,158,23.5,23.5,28,0.00,,---,0.00,VWS V14.01,2013-08-25 13:08:00,
2013-08-25 08:09:00,87.4,51.3,0.00,South,180,23.0,25.1,29,0.00,,---,0.00,VWS V14.01,2013-08-25 13:09:00,
2013-08-25 08:10:00,87.4,51.3,0.00,South,180,17.7,25.1,29,0.00,,---,0.00,VWS V14.01,2013-08-25 13:10:00,
2013-08-25 08:11:00,87.2,51.1,0.00,South,180,14.8,25.1,29,0.00,,---,0.00,VWS V14.01,2013-08-25 13:11:00,
2013-08-25 08:12:00,87.0,51.0,0.00,SSE,158,16.8,25.1,29,0.00,,---,0.00,VWS V14.01,2013-08-25 13:12:00,
2013-08-25 08:13:00,86.9,50.8,0.00,South,180,16.1,25.1,29,0.00,,---,0.00,VWS V14.01,2013-08-25 13:13:00,
2013-08-25 08:14:00,86.9,50.8,0.00,South,180,15.4,25.1,29,0.00,,---,0.00,VWS V14.01,2013-08-25 13:14:00,
2013-08-25 08:16:00,86.5,50.5,0.00,SSE,158,12.8,17.5,29,0.00,,---,0.00,VWS V14.01,2013-08-25 13:16:00,
2013-08-25 08:17:00,86.5,50.5,0.00,South,180,12.8,19.2,29,0.00,,---,0.00,VWS V14.01,2013-08-25 13:17:00,
2013-08-25 08:18:00,86.5,50.5,0.00,South,180,20.4,20.4,29,0.00,,---,0.00,VWS V14.01,2013-08-25 13:18:00,
2013-08-25 08:20:00,86.3,50.3,0.00,South,180,15.9,20.4,29,0.00,,---,0.00,VWS V14.01,2013-08-25 13:20:00,
2013-08-25 08:21:00,86.3,50.3,0.00,South,180,15.4,20.4,29,0.00,,---,0.00,VWS V14.01,2013-08-25 13:21:00,
2013-08-25 08:22:00,86.1,50.2,0.00,SSE,158,11.0,20.4,29,0.00,,---,0.00,VWS V14.01,2013-08-25 13:22:00,
2013-08-25 08:23:00,86.0,50.0,0.00,SE,135,14.5,20.4,29,0.00,,---,0.00,VWS V14.01,2013-08-25 13:23:00,
2013-08-25 08:24:00,86.0,50.0,0.00,SSE,158,15.7,20.4,29,0.00,,---,0.00,VWS V14.01,2013-08-25 13:24:00,
2013-08-25 08:25:00,85.8,49.9,0.00,SSE,158,10.5,20.4,29,0.00,,---,0.00,VWS V14.01,2013-08-25 13:25:00,
2013-08-25 08:26:00,85.8,49.9,0.00,SSE,158,20.1,20.4,29,0.00,,---,0.00,VWS V14.01,2013-08-25 13:26:00,
2013-08-25 08:27:00,85.8,49.9,0.00,South,180,21.9,21.9,29,0.00,,---,0.00,VWS V14.01,2013-08-25 13:27:00,
2013-08-25 08:28:00,85.8,49.9,0.00,South,180,19.2,21.9,29,0.00,,---,0.00,VWS V14.01,2013-08-25 13:28:00,
2013-08-25 08:29:00,85.8,49.9,0.00,South,180,21.9,23.9,29,0.00,,---,0.00,VWS V14.01,2013-08-25 13:29:00,
2013-08-25 08:30:00,85.8,49.9,0.00,SE,135,23.0,25.3,29,0.00,,---,0.00,VWS V14.01,2013-08-25 13:30:00,
2013-08-25 08:31:00,85.6,50.7,0.00,South,180,21.0,23.0,30,0.00,,---,0.00,VWS V14.01,2013-08-25 13:31:00,
2013-08-25 08:32:00,85.6,50.7,0.00,South,180,14.8,23.0,30,0.00,,---,0.00,VWS V14.01,2013-08-25 13:32:00,
2013-08-25 08:33:00,85.6,50.7,0.00,SSW,202,23.5,23.5,30,0.00,,---,0.00,VWS V14.01,2013-08-25 13:33:00,
2013-08-25 08:34:00,85.6,50.7,0.00,South,180,17.9,24.6,30,0.00,,---,0.00,VWS V14.01,2013-08-25 13:34:00,
2013-08-25 08:35:00,85.6,50.7,0.00,South,180,20.6,24.6,30,0.00,,---,0.00,VWS V14.01,2013-08-25 13:35:00,
2013-08-25 08:36:00,85.6,50.7,0.00,SSE,158,11.0,24.6,30,0.00,,---,0.00,VWS V14.01,2013-08-25 13:36:00,
2013-08-25 08:37:00,85.6,50.7,0.00,SSW,202,13.2,24.6,30,0.00,,---,0.00,VWS V14.01,2013-08-25 13:37:00,
2013-08-25 08:38:00,85.4,50.5,0.00,South,180,19.7,24.6,30,0.00,,---,0.00,VWS V14.01,2013-08-25 13:38:00,
2013-08-25 08:39:00,85.2,50.3,0.00,South,180,19.7,24.6,30,0.00,,---,0.00,VWS V14.01,2013-08-25 13:39:00,
2013-08-25 08:40:00,85.2,50.3,0.00,SSW,202,14.8,24.6,30,0.00,,---,0.00,VWS V14.01,2013-08-25 13:40:00,
2013-08-25 08:41:00,85.2,50.3,0.00,South,180,15.9,24.6,30,0.00,,---,0.00,VWS V14.01,2013-08-25 13:41:00,
2013-08-25 08:42:00,85.2,50.3,0.00,South,180,14.8,24.6,30,0.00,,---,0.00,VWS V14.01,2013-08-25 13:42:00,
2013-08-25 08:43:00,85.1,50.2,0.00,South,180,15.2,24.6,30,0.00,,---,0.00,VWS V14.01,2013-08-25 13:43:00,
2013-08-25 08:44:00,85.1,50.2,0.00,South,180,12.3,24.6,30,0.00,,---,0.00,VWS V14.01,2013-08-25 13:44:00,
2013-08-25 08:45:00,84.9,50.0,0.00,South,180,12.5,24.6,30,0.00,,---,0.00,VWS V14.01,2013-08-25 13:45:00,
2013-08-25 08:46:00,84.9,50.0,0.00,South,180,13.0,16.1,30,0.00,,---,0.00,VWS V14.01,2013-08-25 13:46:00,
2013-08-25 08:47:00,84.9,50.0,0.00,South,180,13.2,16.1,30,0.00,,---,0.00,VWS V14.01,2013-08-25 13:47:00,
2013-08-25 08:48:00,84.7,49.9,0.00,South,180,13.0,16.1,30,0.00,,---,0.00,VWS V14.01,2013-08-25 13:48:00,
2013-08-25 08:49:00,84.7,49.9,0.00,South,180,12.8,16.1,30,0.00,,---,0.00,VWS V14.01,2013-08-25 13:49:00,
2013-08-25 08:50:00,84.7,49.9,0.00,SSE,158,12.8,16.1,30,0.00,,---,0.00,VWS V14.01,2013-08-25 13:50:00,
2013-08-25 08:51:00,84.5,49.7,0.00,SSE,158,16.1,16.1,30,0.00,,---,0.00,VWS V14.01,2013-08-25 13:51:00,
2013-08-25 08:52:00,84.5,49.7,0.00,South,180,13.2,16.1,30,0.00,,---,0.00,VWS V14.01,2013-08-25 13:52:00,
2013-08-25 08:53:00,84.2,49.4,0.00,SSE,158,12.1,16.1,30,0.00,,---,0.00,VWS V14.01,2013-08-25 13:53:00,
2013-08-25 08:54:00,84.2,49.4,0.00,South,180,12.5,16.1,30,0.00,,---,0.00,VWS V14.01,2013-08-25 13:54:00,
2013-08-25 08:55:00,84.2,49.4,0.00,South,180,10.7,16.1,30,0.00,,---,0.00,VWS V14.01,2013-08-25 13:55:00,
2013-08-25 08:56:00,84.2,49.4,0.00,South,180,15.4,16.1,30,0.00,,---,0.00,VWS V14.01,2013-08-25 13:56:00,
2013-08-25 08:57:00,84.2,49.4,0.00,South,180,16.6,17.9,30,0.00,,---,0.00,VWS V14.01,2013-08-25 13:57:00,
2013-08-25 08:58:00,84.2,49.4,0.00,South,180,12.3,17.9,30,0.00,,---,0.00,VWS V14.01,2013-08-25 13:58:00,
2013-08-25 09:00:00,84.2,49.4,0.00,South,180,15.2,17.9,30,0.00,,---,0.00,VWS V14.01,2013-08-25 14:00:00,
2013-08-25 09:01:00,84.2,49.4,0.00,South,180,19.5,25.3,30,0.00,,---,0.00,VWS V14.01,2013-08-25 14:01:00,
2013-08-25 09:02:00,84.2,49.4,0.00,South,180,10.3,25.3,30,0.00,,---,0.00,VWS V14.01,2013-08-25 14:02:00,
2013-08-25 09:03:00,84.2,49.4,0.00,South,180,10.3,25.3,30,0.00,,---,0.00,VWS V14.01,2013-08-25 14:03:00,
2013-08-25 09:04:00,84.2,50.3,0.00,South,180,12.3,25.3,31,0.00,,---,0.00,VWS V14.01,2013-08-25 14:04:00,
2013-08-25 09:05:00,84.0,50.1,0.00,SSW,202,17.2,25.3,31,0.00,,---,0.00,VWS V14.01,2013-08-25 14:05:00,
2013-08-25 09:06:00,84.0,50.1,0.00,South,180,19.5,25.3,31,0.00,,---,0.00,VWS V14.01,2013-08-25 14:06:00,
2013-08-25 09:07:00,84.0,50.1,0.00,South,180,15.4,25.3,31,0.00,,---,0.00,VWS V14.01,2013-08-25 14:07:00,
2013-08-25 09:08:00,84.0,50.1,0.00,South,180,17.5,25.3,31,0.00,,---,0.00,VWS V14.01,2013-08-25 14:08:00,
2013-08-25 09:09:00,84.0,50.1,0.00,SW,225,17.7,25.3,31,0.00,,---,0.00,VWS V14.01,2013-08-25 14:09:00,
2013-08-25 09:10:00,83.8,50.0,0.00,South,180,13.2,25.3,31,0.00,,---,0.00,VWS V14.01,2013-08-25 14:10:00,
2013-08-25 09:11:00,83.8,50.0,0.00,South,180,17.9,25.3,31,0.00,,---,0.00,VWS V14.01,2013-08-25 14:11:00,
2013-08-25 09:12:00,83.6,49.8,0.00,South,180,14.8,25.3,31,0.00,,---,0.00,VWS V14.01,2013-08-25 14:12:00,
2013-08-25 09:13:00,83.6,49.8,0.00,South,180,15.2,25.3,31,0.00,,---,0.00,VWS V14.01,2013-08-25 14:13:00,
2013-08-25 09:14:00,83.6,49.8,0.00,South,180,17.2,25.3,31,0.00,,---,0.00,VWS V14.01,2013-08-25 14:14:00,
2013-08-25 09:15:00,83.6,49.8,0.00,South,180,12.8,25.3,31,0.00,,---,0.00,VWS V14.01,2013-08-25 14:15:00,
2013-08-25 09:16:00,83.4,49.7,0.00,South,180,20.4,20.4,31,0.00,,---,0.00,VWS V14.01,2013-08-25 14:16:00,
2013-08-25 09:17:00,83.4,49.7,0.00,South,180,10.1,20.4,31,0.00,,---,0.00,VWS V14.01,2013-08-25 14:17:00,
2013-08-25 09:18:00,83.3,49.5,0.00,South,180,19.0,20.8,31,0.00,,---,0.00,VWS V14.01,2013-08-25 14:18:00,
2013-08-25 09:19:00,83.3,49.5,0.00,South,180,8.7,20.8,31,0.00,,---,0.00,VWS V14.01,2013-08-25 14:19:00,
2013-08-25 09:20:00,83.3,49.5,0.00,South,180,14.5,20.8,31,0.00,,---,0.00,VWS V14.01,2013-08-25 14:20:00,
2013-08-25 09:21:00,83.1,49.3,0.00,South,180,17.2,20.8,31,0.00,,---,0.00,VWS V14.01,2013-08-25 14:21:00,
2013-08-25 09:22:00,83.1,49.3,0.00,South,180,17.2,20.8,31,0.00,,---,0.00,VWS V14.01,2013-08-25 14:22:00,
2013-08-25 09:23:00,83.1,49.3,0.00,South,180,13.4,20.8,31,0.00,,---,0.00,VWS V14.01,2013-08-25 14:23:00,
2013-08-25 09:24:00,82.9,49.2,0.00,South,180,10.5,20.8,31,0.00,,---,0.00,VWS V14.01,2013-08-25 14:24:00,
2013-08-25 09:25:00,82.9,49.2,0.00,South,180,10.5,20.8,31,0.00,,---,0.00,VWS V14.01,2013-08-25 14:25:00,
2013-08-25 09:26:00,82.9,49.2,0.00,South,180,12.8,20.8,31,0.00,,---,0.00,VWS V14.01,2013-08-25 14:26:00,
2013-08-25 09:27:00,82.9,49.2,0.00,South,180,15.2,20.8,31,0.00,,---,0.00,VWS V14.01,2013-08-25 14:27:00,
2013-08-25 09:28:00,82.7,49.0,0.00,SSE,158,19.2,20.8,31,0.00,,---,0.00,VWS V14.01,2013-08-25 14:28:00,
2013-08-25 09:29:00,82.7,49.0,0.00,South,180,14.8,20.8,31,0.00,,---,0.00,VWS V14.01,2013-08-25 14:29:00,
2013-08-25 09:30:00,82.7,49.0,0.00,South,180,10.5,20.8,31,0.00,,---,0.00,VWS V14.01,2013-08-25 14:30:00,
2013-08-25 09:31:00,82.7,49.0,0.00,SSE,158,12.8,12.8,31,0.00,,---,0.00,VWS V14.01,2013-08-25 14:31:00,
2013-08-25 09:32:00,82.7,49.0,0.00,South,180,13.0,13.0,31,0.00,,---,0.00,VWS V14.01,2013-08-25 14:32:00,
2013-08-25 09:33:00,82.5,49.7,0.00,SSE,158,12.3,16.6,32,0.00,,---,0.00,VWS V14.01,2013-08-25 14:33:00,
2013-08-25 09:34:00,82.5,49.7,0.00,SSE,158,10.1,16.6,32,0.00,,---,0.00,VWS V14.01,2013-08-25 14:34:00,
2013-08-25 09:35:00,82.4,49.6,0.00,South,180,13.2,16.6,32,0.00,,---,0.00,VWS V14.01,2013-08-25 14:35:00,
2013-08-25 09:36:00,82.2,49.4,0.00,South,180,13.0,16.6,32,0.00,,---,0.00,VWS V14.01,2013-08-25 14:36:00,
2013-08-25 09:37:00,82.2,49.4,0.00,South,180,13.0,16.6,32,0.00,,---,0.00,VWS V14.01,2013-08-25 14:37:00,
2013-08-25 09:38:00,82.2,49.4,0.00,South,180,15.2,16.6,32,0.00,,---,0.00,VWS V14.01,2013-08-25 14:38:00,
2013-08-25 09:39:00,82.0,49.3,0.00,South,180,14.3,16.6,32,0.00,,---,0.00,VWS V14.01,2013-08-25 14:39:00,
2013-08-25 09:40:00,82.0,49.3,0.00,South,180,10.5,16.6,32,0.00,,---,0.00,VWS V14.01,2013-08-25 14:40:00,
2013-08-25 09:41:00,82.0,49.3,0.00,SSE,158,12.3,16.6,32,0.00,,---,0.00,VWS V14.01,2013-08-25 14:41:00,
2013-08-25 09:42:00,82.0,49.3,0.00,SSE,158,11.0,16.6,32,0.00,,---,0.00,VWS V14.01,2013-08-25 14:42:00,
2013-08-25 09:43:00,81.8,49.1,0.00,South,180,10.5,16.6,32,0.00,,---,0.00,VWS V14.01,2013-08-25 14:43:00,
2013-08-25 09:44:00,81.6,49.0,0.00,SSW,202,15.2,16.6,32,0.00,,---,0.00,VWS V14.01,2013-08-25 14:44:00,
2013-08-25 09:45:00,81.6,49.0,0.00,South,180,12.8,16.6,32,0.00,,---,0.00,VWS V14.01,2013-08-25 14:45:00,
2013-08-25 09:46:00,81.6,49.0,0.00,South,180,14.8,14.8,32,0.00,,---,0.00,VWS V14.01,2013-08-25 14:46:00,
2013-08-25 09:47:00,81.6,49.0,0.00,South,180,10.3,14.8,32,0.00,,---,0.00,VWS V14.01,2013-08-25 14:47:00,
2013-08-25 09:48:00,81.5,48.8,0.00,South,180,11.0,14.8,32,0.00,,---,0.00,VWS V14.01,2013-08-25 14:48:00,
2013-08-25 09:50:00,81.5,48.8,0.00,South,180,10.7,14.8,32,0.00,,---,0.00,VWS V14.01,2013-08-25 14:50:00,
2013-08-25 09:51:00,81.3,48.6,0.00,South,180,9.6,14.8,32,0.00,,---,0.00,VWS V14.01,2013-08-25 14:51:00,
2013-08-25 09:52:00,81.3,49.5,0.00,South,180,9.8,14.8,33,0.00,,---,0.00,VWS V14.01,2013-08-25 14:52:00,
2013-08-25 09:53:00,81.1,49.3,0.00,South,180,14.8,15.2,33,0.00,,---,0.00,VWS V14.01,2013-08-25 14:53:00,
2013-08-25 09:54:00,81.1,49.3,0.00,South,180,13.0,15.2,33,0.00,,---,0.00,VWS V14.01,2013-08-25 14:54:00,
2013-08-25 09:55:00,81.1,49.3,0.00,South,180,13.0,15.2,33,0.00,,---,0.00,VWS V14.01,2013-08-25 14:55:00,
2013-08-25 09:56:00,81.1,49.3,0.00,South,180,17.9,17.9,33,0.00,,---,0.00,VWS V14.01,2013-08-25 14:56:00,
2013-08-25 09:57:00,81.1,49.3,0.00,South,180,9.8,17.9,33,0.00,,---,0.00,VWS V14.01,2013-08-25 14:57:00,
2013-08-25 09:58:00,80.9,49.2,0.00,South,180,12.5,17.9,33,0.00,,---,0.00,VWS V14.01,2013-08-25 14:58:00,
2013-08-25 09:59:00,80.9,49.2,0.00,South,180,13.9,17.9,33,0.00,,---,0.00,VWS V14.01,2013-08-25 14:59:00,
2013-08-25 10:00:00,80.9,49.2,0.00,SSE,158,13.2,17.9,33,0.00,,---,0.00,VWS V14.01,2013-08-25 15:00:00,
2013-08-25 10:01:00,80.9,49.2,0.00,SE,135,8.7,13.2,33,0.00,,---,0.00,VWS V14.01,2013-08-25 15:01:00,
2013-08-25 10:02:00,80.6,48.8,0.00,South,180,13.0,17.5,33,0.00,,---,0.00,VWS V14.01,2013-08-25 15:02:00,
2013-08-25 10:03:00,80.6,48.8,0.00,SSE,158,15.2,17.5,33,0.00,,---,0.00,VWS V14.01,2013-08-25 15:03:00,
2013-08-25 10:04:00,80.6,48.8,0.00,SE,135,13.0,20.1,33,0.00,,---,0.00,VWS V14.01,2013-08-25 15:04:00,
2013-08-25 10:05:00,80.6,48.8,0.00,South,180,12.1,20.1,33,0.00,,---,0.00,VWS V14.01,2013-08-25 15:05:00,
2013-08-25 10:06:00,80.6,48.8,0.00,South,180,14.8,20.1,33,0.00,,---,0.00,VWS V14.01,2013-08-25 15:06:00,
2013-08-25 10:07:00,80.4,48.7,0.00,SSE,158,12.3,20.1,33,0.00,,---,0.00,VWS V14.01,2013-08-25 15:07:00,
2013-08-25 10:08:00,80.4,48.7,0.00,SSE,158,14.5,20.1,33,0.00,,---,0.00,VWS V14.01,2013-08-25 15:08:00,
2013-08-25 10:09:00,80.4,48.7,0.00,South,180,13.2,20.1,33,0.00,,---,0.00,VWS V14.01,2013-08-25 15:09:00,
2013-08-25 10:10:00,80.2,48.5,0.00,South,180,11.0,20.1,33,0.00,,---,0.00,VWS V14.01,2013-08-25 15:10:00,
2013-08-25 10:11:00,80.2,48.5,0.00,SSE,158,8.5,20.1,33,0.00,,---,0.00,VWS V14.01,2013-08-25 15:11:00,
2013-08-25 10:12:00,79.8,49.0,0.00,South,180,8.5,20.1,34,0.00,,---,0.00,VWS V14.01,2013-08-25 15:12:00,
2013-08-25 10:13:00,79.8,49.0,0.00,South,180,7.6,20.1,34,0.00,,---,0.00,VWS V14.01,2013-08-25 15:13:00,
2013-08-25 10:14:00,79.7,48.8,0.00,South,180,8.5,20.1,34,0.00,,---,0.00,VWS V14.01,2013-08-25 15:14:00,
2013-08-25 10:15:00,79.5,48.7,0.00,SSE,158,11.0,20.1,34,0.00,,---,0.00,VWS V14.01,2013-08-25 15:15:00,
2013-08-25 10:16:00,79.5,48.7,0.00,South,180,10.7,13.4,34,0.00,,---,0.00,VWS V14.01,2013-08-25 15:16:00,
2013-08-25 10:17:00,79.5,48.7,0.00,SSE,158,10.3,13.4,34,0.00,,---,0.00,VWS V14.01,2013-08-25 15:17:00,
2013-08-25 10:18:00,79.5,48.7,0.00,South,180,9.8,13.4,34,0.00,,---,0.00,VWS V14.01,2013-08-25 15:18:00,
2013-08-25 10:19:00,79.3,48.5,0.00,South,180,10.5,13.4,34,0.00,,---,0.00,VWS V14.01,2013-08-25 15:19:00,
2013-08-25 10:20:00,79.3,49.3,0.00,SSE,158,10.5,13.4,35,0.00,,---,0.00,VWS V14.01,2013-08-25 15:20:00,
2013-08-25 10:21:00,79.3,49.3,0.00,SE,135,10.5,15.2,35,0.00,,---,0.00,VWS V14.01,2013-08-25 15:21:00,
2013-08-25 10:22:00,79.3,49.3,0.00,South,180,15.2,15.2,35,0.00,,---,0.00,VWS V14.01,2013-08-25 15:22:00,
2013-08-25 10:23:00,79.3,49.3,0.00,South,180,10.7,15.2,35,0.00,,---,0.00,VWS V14.01,2013-08-25 15:23:00,
2013-08-25 10:24:00,79.1,49.2,0.00,South,180,9.8,15.2,35,0.00,,---,0.00,VWS V14.01,2013-08-25 15:24:00,
2013-08-25 10:25:00,79.1,49.2,0.00,South,180,12.1,15.2,35,0.00,,---,0.00,VWS V14.01,2013-08-25 15:25:00,
2013-08-25 10:26:00,78.9,49.0,0.00,SSE,158,13.2,15.2,35,0.00,,---,0.00,VWS V14.01,2013-08-25 15:26:00,
2013-08-25 10:27:00,78.9,49.0,0.00,SSE,158,12.5,15.2,35,0.00,,---,0.00,VWS V14.01,2013-08-25 15:27:00,
2013-08-25 10:28:00,78.9,49.0,0.00,SSE,158,12.5,15.2,35,0.00,,---,0.00,VWS V14.01,2013-08-25 15:28:00,
2013-08-25 10:29:00,78.9,49.0,0.00,South,180,8.7,15.2,35,0.00,,---,0.00,VWS V14.01,2013-08-25 15:29:00,
2013-08-25 10:30:00,78.9,49.0,0.00,SSE,158,12.3,15.2,35,0.00,,---,0.00,VWS V14.01,2013-08-25 15:30:00,
2013-08-25 10:31:00,78.8,49.6,0.00,SW,225,9.8,14.5,36,0.00,,---,0.00,VWS V14.01,2013-08-25 15:31:00,
2013-08-25 10:32:00,78.6,49.4,0.00,South,180,10.3,14.5,36,0.00,,---,0.00,VWS V14.01,2013-08-25 15:32:00,
2013-08-25 10:34:00,78.6,49.4,0.00,South,180,12.5,15.4,36,0.00,,---,0.00,VWS V14.01,2013-08-25 15:34:00,
2013-08-25 10:35:00,78.6,49.4,0.00,South,180,13.0,15.9,36,0.00,,---,0.00,VWS V14.01,2013-08-25 15:35:00,
2013-08-25 10:36:00,78.6,49.4,0.00,South,180,12.5,15.9,36,0.00,,---,0.00,VWS V14.01,2013-08-25 15:36:00,
2013-08-25 10:37:00,78.6,49.4,0.00,South,180,12.1,15.9,36,0.00,,---,0.00,VWS V14.01,2013-08-25 15:37:00,
2013-08-25 10:38:00,78.6,49.4,0.00,South,180,10.5,15.9,36,0.00,,---,0.00,VWS V14.01,2013-08-25 15:38:00,
2013-08-25 10:39:00,78.6,49.4,0.00,SSE,158,10.5,15.9,36,0.00,,---,0.00,VWS V14.01,2013-08-25 15:39:00,
2013-08-25 10:40:00,78.6,49.4,0.00,SSE,158,15.2,15.9,36,0.00,,---,0.00,VWS V14.01,2013-08-25 15:40:00,
2013-08-25 10:41:00,78.6,49.4,0.00,South,180,17.2,17.2,36,0.00,,---,0.00,VWS V14.01,2013-08-25 15:41:00,
2013-08-25 10:42:00,78.4,49.3,0.00,South,180,10.5,17.2,36,0.00,,---,0.00,VWS V14.01,2013-08-25 15:42:00,
2013-08-25 10:43:00,78.4,50.0,0.00,South,180,9.8,17.2,37,0.00,,---,0.00,VWS V14.01,2013-08-25 15:43:00,
2013-08-25 10:44:00,78.4,50.0,0.00,South,180,12.8,17.2,37,0.00,,---,0.00,VWS V14.01,2013-08-25 15:44:00,
2013-08-25 10:45:00,78.4,50.0,0.00,South,180,10.1,17.2,37,0.00,,---,0.00,VWS V14.01,2013-08-25 15:45:00,
2013-08-25 10:46:00,78.4,50.0,0.00,South,180,10.3,10.7,37,0.00,,---,0.00,VWS V14.01,2013-08-25 15:46:00,
2013-08-25 10:47:00,78.2,49.8,0.00,South,180,10.1,10.7,37,0.00,,---,0.00,VWS V14.01,2013-08-25 15:47:00,
2013-08-25 10:48:00,78.2,50.6,0.00,South,180,9.8,10.7,38,0.00,,---,0.00,VWS V14.01,2013-08-25 15:48:00,
2013-08-25 10:49:00,78.0,50.4,0.00,South,180,9.8,10.7,38,0.00,,---,0.00,VWS V14.01,2013-08-25 15:49:00,
2013-08-25 10:50:00,78.0,50.4,0.00,South,180,13.2,13.2,38,0.00,,---,0.00,VWS V14.01,2013-08-25 15:50:00,
2013-08-25 10:51:00,78.0,50.4,0.00,South,180,10.1,15.2,38,0.00,,---,0.00,VWS V14.01,2013-08-25 15:51:00,
2013-08-25 10:52:00,78.0,50.4,0.00,South,180,12.8,15.2,38,0.00,,---,0.00,VWS V14.01,2013-08-25 15:52:00,
2013-08-25 10:53:00,78.0,50.4,0.00,South,180,15.2,15.2,38,0.00,,---,0.00,VWS V14.01,2013-08-25 15:53:00,
2013-08-25 10:54:00,78.0,50.4,0.00,SSE,158,12.5,15.2,38,0.00,,---,0.00,VWS V14.01,2013-08-25 15:54:00,
2013-08-25 10:55:00,78.0,50.4,0.00,SSE,158,12.5,15.2,38,0.00,,---,0.00,VWS V14.01,2013-08-25 15:55:00,
2013-08-25 10:56:00,78.0,50.4,0.00,SE,135,11.9,17.5,38,0.00,,---,0.00,VWS V14.01,2013-08-25 15:56:00,
2013-08-25 10:57:00,78.0,50.4,0.00,South,180,12.8,17.5,38,0.00,,---,0.00,VWS V14.01,2013-08-25 15:57:00,
2013-08-25 10:58:00,78.0,51.1,0.00,South,180,13.0,17.5,39,0.00,,---,0.00,VWS V14.01,2013-08-25 15:58:00,
2013-08-25 10:59:00,77.9,50.9,0.00,SSE,158,8.5,17.5,39,0.00,,---,0.00,VWS V14.01,2013-08-25 15:59:00,
2013-08-25 11:00:00,77.9,50.9,0.00,SSE,158,12.3,12.3,39,0.00,,---,0.00,VWS V14.01,2013-08-25 16:00:00,
2013-08-25 11:01:00,77.9,50.9,0.00,South,180,10.1,12.3,39,0.00,,---,0.00,VWS V14.01,2013-08-25 16:01:00,
2013-08-25 11:02:00,77.7,50.8,0.00,SE,135,10.5,12.3,39,0.00,,---,0.00,VWS V14.01,2013-08-25 16:02:00,
2013-08-25 11:03:00,77.7,50.8,0.00,South,180,12.5,15.2,39,0.00,,---,0.00,VWS V14.01,2013-08-25 16:03:00,
2013-08-25 11:04:00,77.7,50.8,0.00,South,180,16.3,16.3,39,0.00,,---,0.00,VWS V14.01,2013-08-25 16:04:00,
2013-08-25 11:05:00,77.7,50.8,0.00,South,180,10.7,16.3,39,0.00,,---,0.00,VWS V14.01,2013-08-25 16:05:00,
2013-08-25 11:06:00,77.7,50.8,0.00,SSE,158,15.7,17.0,39,0.00,,---,0.00,VWS V14.01,2013-08-25 16:06:00,
2013-08-25 11:07:00,77.7,51.5,0.00,South,180,13.0,17.0,40,0.00,,---,0.00,VWS V14.01,2013-08-25 16:07:00,
2013-08-25 11:08:00,77.7,51.5,0.00,South,180,9.8,17.0,40,0.00,,---,0.00,VWS V14.01,2013-08-25 16:08:00,
2013-08-25 11:09:00,77.7,51.5,0.00,South,180,17.0,17.0,40,0.00,,---,0.00,VWS V14.01,2013-08-25 16:09:00,
2013-08-25 11:10:00,77.9,51.6,0.00,South,180,19.0,19.0,40,0.00,,---,0.00,VWS V14.01,2013-08-25 16:10:00,
2013-08-25 11:11:00,77.9,51.6,0.00,South,180,8.7,19.0,40,0.00,,---,0.00,VWS V14.01,2013-08-25 16:11:00,
2013-08-25 11:12:00,77.9,51.6,0.00,SSW,202,10.3,19.0,40,0.00,,---,0.00,VWS V14.01,2013-08-25 16:12:00,
2013-08-25 11:13:00,77.7,51.5,0.00,South,180,12.8,19.0,40,0.00,,---,0.00,VWS V14.01,2013-08-25 16:13:00,
2013-08-25 11:14:00,77.7,51.5,0.00,SSE,158,13.2,19.0,40,0.00,,---,0.00,VWS V14.01,2013-08-25 16:14:00,
2013-08-25 11:15:00,77.7,51.5,0.00,South,180,13.0,19.0,40,0.00,,---,0.00,VWS V14.01,2013-08-25 16:15:00,
2013-08-25 11:16:00,77.7,51.5,0.00,South,180,13.0,17.2,40,0.00,,---,0.00,VWS V14.01,2013-08-25 16:16:00,
2013-08-25 11:17:00,77.9,51.6,0.00,SSE,158,13.0,17.2,40,0.00,,---,0.00,VWS V14.01,2013-08-25 16:17:00,
2013-08-25 11:18:00,77.9,51.6,0.00,SE,135,10.3,17.7,40,0.00,,---,0.00,VWS V14.01,2013-08-25 16:18:00,
2013-08-25 11:19:00,77.7,52.1,0.00,SSE,158,15.9,17.7,41,0.00,,---,0.00,VWS V14.01,2013-08-25 16:19:00,
2013-08-25 11:20:00,77.7,52.1,0.00,South,180,18.8,18.8,41,0.00,,---,0.00,VWS V14.01,2013-08-25 16:20:00,
2013-08-25 11:21:00,77.7,52.1,0.00,South,180,9.6,18.8,41,0.00,,---,0.00,VWS V14.01,2013-08-25 16:21:00,
2013-08-25 11:22:00,77.7,52.1,0.00,SSE,158,13.0,18.8,41,0.00,,---,0.00,VWS V14.01,2013-08-25 16:22:00,
2013-08-25 11:23:00,77.7,52.1,0.00,South,180,15.2,18.8,41,0.00,,---,0.00,VWS V14.01,2013-08-25 16:23:00,
2013-08-25 11:24:00,77.9,52.3,0.00,SSE,158,13.0,18.8,41,0.00,,---,0.00,VWS V14.01,2013-08-25 16:24:00,
2013-08-25 11:25:00,77.7,52.1,0.00,SSE,158,10.5,18.8,41,0.00,,---,0.00,VWS V14.01,2013-08-25 16:25:00,
2013-08-25 11:26:00,77.7,52.1,0.00,SSE,158,13.0,18.8,41,0.00,,---,0.00,VWS V14.01,2013-08-25 16:26:00,
2013-08-25 11:27:00,77.7,52.1,0.00,SSE,158,13.0,18.8,41,0.00,,---,0.00,VWS V14.01,2013-08-25 16:27:00,
2013-08-25 11:28:00,77.7,52.1,0.00,South,180,13.0,18.8,41,0.00,,---,0.00,VWS V14.01,2013-08-25 16:28:00,
2013-08-25 11:29:00,77.5,52.0,0.00,South,180,12.8,18.8,41,0.00,,---,0.00,VWS V14.01,2013-08-25 16:29:00,
2013-08-25 11:30:00,77.5,52.0,0.00,South,180,13.0,13.0,41,0.00,,---,0.00,VWS V14.01,2013-08-25 16:30:00,
2013-08-25 11:31:00,77.5,52.0,0.00,SSE,158,10.7,13.0,41,0.00,,---,0.00,VWS V14.01,2013-08-25 16:31:00,
2013-08-25 11:32:00,77.7,52.1,0.00,South,180,17.2,21.3,41,0.00,,---,0.00,VWS V14.01,2013-08-25 16:32:00,
2013-08-25 11:33:00,77.7,52.1,0.00,South,180,13.6,21.3,41,0.00,,---,0.00,VWS V14.01,2013-08-25 16:33:00,
2013-08-25 11:34:00,77.5,52.6,0.00,South,180,15.7,21.3,42,0.00,,---,0.00,VWS V14.01,2013-08-25 16:34:00,
2013-08-25 11:35:00,77.7,52.8,0.00,South,180,15.2,21.3,42,0.00,,---,0.00,VWS V14.01,2013-08-25 16:35:00,
2013-08-25 11:36:00,77.7,52.8,0.00,South,180,10.1,21.3,42,0.00,,---,0.00,VWS V14.01,2013-08-25 16:36:00,
2013-08-25 11:37:00,77.5,52.6,0.00,South,180,15.4,21.3,42,0.00,,---,0.00,VWS V14.01,2013-08-25 16:37:00,
2013-08-25 11:38:00,77.7,52.8,0.00,South,180,14.8,21.3,42,0.00,,---,0.00,VWS V14.01,2013-08-25 16:38:00,
2013-08-25 11:39:00,77.7,52.8,0.00,South,180,11.4,21.3,42,0.00,,---,0.00,VWS V14.01,2013-08-25 16:39:00,
2013-08-25 11:40:00,77.5,52.6,0.00,SE,135,10.7,21.3,42,0.00,,---,0.00,VWS V14.01,2013-08-25 16:40:00,
2013-08-25 11:41:00,77.5,52.6,0.00,South,180,12.8,21.3,42,0.00,,---,0.00,VWS V14.01,2013-08-25 16:41:00,
2013-08-25 11:42:00,77.5,52.6,0.00,South,180,14.8,21.3,42,0.00,,---,0.00,VWS V14.01,2013-08-25 16:42:00,
2013-08-25 11:43:00,77.5,52.6,0.00,South,180,12.5,21.3,42,0.00,,---,0.00,VWS V14.01,2013-08-25 16:43:00,
2013-08-25 11:44:00,77.5,52.6,0.00,South,180,13.0,21.3,42,0.00,,---,0.00,VWS V14.01,2013-08-25 16:44:00,
2013-08-25 11:45:00,77.5,52.6,0.00,SSE,158,11.0,21.3,42,0.00,,---,0.00,VWS V14.01,2013-08-25 16:45:00,
2013-08-25 11:46:00,77.5,52.6,0.00,South,180,15.7,15.7,42,0.00,,---,0.00,VWS V14.01,2013-08-25 16:46:00,
2013-08-25 11:47:00,77.5,52.6,0.00,South,180,12.5,15.7,42,0.00,,---,0.00,VWS V14.01,2013-08-25 16:47:00,
2013-08-25 11:48:00,77.5,52.6,0.00,South,180,10.3,17.7,42,0.00,,---,0.00,VWS V14.01,2013-08-25 16:48:00,
2013-08-25 11:49:00,77.5,52.6,0.00,South,180,15.2,17.7,42,0.00,,---,0.00,VWS V14.01,2013-08-25 16:49:00,
2013-08-25 11:50:00,77.5,53.3,0.00,South,180,10.1,17.7,43,0.00,,---,0.00,VWS V14.01,2013-08-25 16:50:00,
2013-08-25 11:51:00,77.5,53.3,0.00,South,180,15.2,23.0,43,0.00,,---,0.00,VWS V14.01,2013-08-25 16:51:00,
2013-08-25 11:52:00,77.3,53.1,0.00,South,180,8.7,23.0,43,0.00,,---,0.00,VWS V14.01,2013-08-25 16:52:00,
2013-08-25 11:53:00,77.3,53.1,0.00,South,180,12.8,23.0,43,0.00,,---,0.00,VWS V14.01,2013-08-25 16:53:00,
2013-08-25 11:54:00,77.5,53.3,0.00,South,180,12.3,23.0,43,0.00,,---,0.00,VWS V14.01,2013-08-25 16:54:00,
2013-08-25 11:55:00,77.3,53.1,0.00,South,180,11.9,23.0,43,0.00,,---,0.00,VWS V14.01,2013-08-25 16:55:00,
2013-08-25 11:56:00,77.1,52.9,0.00,South,180,15.2,23.0,43,0.00,,---,0.00,VWS V14.01,2013-08-25 16:56:00,
2013-08-25 11:57:00,77.1,52.9,0.00,South,180,7.4,23.0,43,0.00,,---,0.00,VWS V14.01,2013-08-25 16:57:00,
2013-08-25 11:58:00,77.0,52.8,0.00,South,180,7.8,23.0,43,0.00,,---,0.00,VWS V14.01,2013-08-25 16:58:00,
2013-08-25 11:59:00,77.0,52.8,0.00,South,180,6.3,23.0,43,0.00,,---,0.00,VWS V14.01,2013-08-25 16:59:00,
2013-08-25 12:00:00,76.8,52.6,0.00,South,180,7.6,23.0,43,0.00,,---,0.00,VWS V14.01,2013-08-25 17:00:00,
2013-08-25 12:01:00,76.8,52.6,0.00,South,180,10.7,10.7,43,0.00,,---,0.00,VWS V14.01,2013-08-25 17:01:00,
2013-08-25 12:02:00,76.8,52.6,0.00,South,180,14.5,16.8,43,0.00,,---,0.00,VWS V14.01,2013-08-25 17:02:00,
2013-08-25 12:03:00,76.8,53.2,0.00,South,180,10.3,16.8,44,0.00,,---,0.00,VWS V14.01,2013-08-25 17:03:00,
2013-08-25 12:04:00,76.8,53.2,0.00,South,180,12.5,16.8,44,0.00,,---,0.00,VWS V14.01,2013-08-25 17:04:00,
2013-08-25 12:05:00,76.6,53.1,0.00,South,180,8.5,16.8,44,0.00,,---,0.00,VWS V14.01,2013-08-25 17:05:00,
2013-08-25 12:06:00,76.6,53.1,0.00,South,180,12.3,16.8,44,0.00,,---,0.00,VWS V14.01,2013-08-25 17:06:00,
2013-08-25 12:07:00,76.6,53.1,0.00,SSW,202,8.7,16.8,44,0.00,,---,0.00,VWS V14.01,2013-08-25 17:07:00,
2013-08-25 12:08:00,76.6,53.1,0.00,South,180,15.2,16.8,44,0.00,,---,0.00,VWS V14.01,2013-08-25 17:08:00,
2013-08-25 12:09:00,76.6,53.1,0.00,South,180,15.4,16.8,44,0.00,,---,0.00,VWS V14.01,2013-08-25 17:09:00,
2013-08-25 12:10:00,76.8,53.2,0.00,SSW,202,10.1,16.8,44,0.00,,---,0.00,VWS V14.01,2013-08-25 17:10:00,
2013-08-25 12:11:00,76.8,53.2,0.00,South,180,7.4,16.8,44,0.00,,---,0.00,VWS V14.01,2013-08-25 17:11:00,
2013-08-25 12:12:00,76.8,53.2,0.00,South,180,11.0,16.8,44,0.00,,---,0.00,VWS V14.01,2013-08-25 17:12:00,
2013-08-25 12:13:00,76.8,53.2,0.00,South,180,13.2,16.8,44,0.00,,---,0.00,VWS V14.01,2013-08-25 17:13:00,
2013-08-25 12:14:00,76.8,53.2,0.00,SSW,202,15.2,17.7,44,0.00,,---,0.00,VWS V14.01,2013-08-25 17:14:00,
2013-08-25 12:15:00,76.8,53.9,0.00,South,180,16.3,17.7,45,0.00,,---,0.00,VWS V14.01,2013-08-25 17:15:00,
2013-08-25 12:16:00,77.0,54.0,0.00,South,180,10.5,16.3,45,0.00,,---,0.00,VWS V14.01,2013-08-25 17:16:00,
2013-08-25 12:17:00,76.8,53.9,0.00,South,180,10.3,16.3,45,0.00,,---,0.00,VWS V14.01,2013-08-25 17:17:00,
2013-08-25 12:18:00,76.8,53.9,0.00,South,180,10.1,16.3,45,0.00,,---,0.00,VWS V14.01,2013-08-25 17:18:00,
2013-08-25 12:19:00,76.8,53.9,0.00,South,180,12.8,16.3,45,0.00,,---,0.00,VWS V14.01,2013-08-25 17:19:00,
2013-08-25 12:20:00,76.8,53.9,0.00,South,180,7.6,16.3,45,0.00,,---,0.00,VWS V14.01,2013-08-25 17:20:00,
2013-08-25 12:21:00,76.6,53.7,0.00,South,180,10.3,16.3,45,0.00,,---,0.00,VWS V14.01,2013-08-25 17:21:00,
2013-08-25 12:22:00,76.6,53.7,0.00,South,180,13.9,16.3,45,0.00,,---,0.00,VWS V14.01,2013-08-25 17:22:00,
2013-08-25 12:23:00,76.6,53.7,0.00,South,180,18.8,18.8,45,0.00,,---,0.00,VWS V14.01,2013-08-25 17:23:00,
2013-08-25 12:24:00,76.6,53.7,0.00,SSW,202,13.0,18.8,45,0.00,,---,0.00,VWS V14.01,2013-08-25 17:24:00,
2013-08-25 12:25:00,76.6,53.7,0.00,South,180,13.6,18.8,45,0.00,,---,0.00,VWS V14.01,2013-08-25 17:25:00,
2013-08-25 12:26:00,76.6,53.7,0.00,South,180,9.8,18.8,45,0.00,,---,0.00,VWS V14.01,2013-08-25 17:26:00,
2013-08-25 12:27:00,76.6,53.7,0.00,South,180,12.5,18.8,45,0.00,,---,0.00,VWS V14.01,2013-08-25 17:27:00,
2013-08-25 12:28:00,76.6,53.7,0.00,South,180,14.8,18.8,45,0.00,,---,0.00,VWS V14.01,2013-08-25 17:28:00,
2013-08-25 12:29:00,76.6,53.7,0.00,South,180,7.8,18.8,45,0.00,,---,0.00,VWS V14.01,2013-08-25 17:29:00,
2013-08-25 12:30:00,76.6,53.7,0.00,SSW,202,11.4,18.8,45,0.00,,---,0.00,VWS V14.01,2013-08-25 17:30:00,
2013-08-25 12:31:00,76.4,54.1,0.00,SE,135,10.7,11.4,46,0.00,,---,0.00,VWS V14.01,2013-08-25 17:31:00,
2013-08-25 12:32:00,76.4,54.1,0.00,SE,135,10.7,11.4,46,0.00,,---,0.00,VWS V14.01,2013-08-25 17:32:00,
2013-08-25 12:33:00,76.4,54.1,0.00,SSE,158,10.1,17.7,46,0.00,,---,0.00,VWS V14.01,2013-08-25 17:33:00,
2013-08-25 12:34:00,76.6,53.7,0.00,South,180,10.7,17.7,45,0.00,,---,0.00,VWS V14.01,2013-08-25 17:34:00,
2013-08-25 12:35:00,76.6,53.7,0.00,South,180,14.1,17.7,45,0.00,,---,0.00,VWS V14.01,2013-08-25 17:35:00,
2013-08-25 12:36:00,76.6,53.7,0.00,South,180,16.3,20.1,45,0.00,,---,0.00,VWS V14.01,2013-08-25 17:36:00,
2013-08-25 12:37:00,76.6,53.7,0.00,South,180,15.4,20.1,45,0.00,,---,0.00,VWS V14.01,2013-08-25 17:37:00,
2013-08-25 12:38:00,76.6,53.7,0.00,South,180,16.8,20.1,45,0.00,,---,0.00,VWS V14.01,2013-08-25 17:38:00,
2013-08-25 12:39:00,76.6,53.7,0.00,South,180,12.1,20.1,45,0.00,,---,0.00,VWS V14.01,2013-08-25 17:39:00,
2013-08-25 12:40:00,76.6,53.7,0.00,SSE,158,22.4,22.4,45,0.00,,---,0.00,VWS V14.01,2013-08-25 17:40:00,
2013-08-25 12:41:00,76.6,53.7,0.00,South,180,16.1,22.4,45,0.00,,---,0.00,VWS V14.01,2013-08-25 17:41:00,
2013-08-25 12:42:00,76.6,53.7,0.00,SSE,158,13.2,22.4,45,0.00,,---,0.00,VWS V14.01,2013-08-25 17:42:00,
2013-08-25 12:44:00,76.6,53.7,0.00,South,180,12.5,22.4,45,0.00,,---,0.00,VWS V14.01,2013-08-25 17:44:00,
2013-08-25 12:45:00,76.4,54.1,0.00,South,180,10.7,22.4,46,0.00,,---,0.00,VWS V14.01,2013-08-25 17:45:00,
2013-08-25 12:46:00,76.4,54.1,0.00,SSE,158,13.0,17.2,46,0.00,,---,0.00,VWS V14.01,2013-08-25 17:46:00,
2013-08-25 12:47:00,76.2,54.0,0.00,South,180,13.2,17.2,46,0.00,,---,0.00,VWS V14.01,2013-08-25 17:47:00,
2013-08-25 12:48:00,76.2,54.0,0.00,SW,225,8.5,17.2,46,0.00,,---,0.00,VWS V14.01,2013-08-25 17:48:00,
2013-08-25 12:49:00,76.2,54.0,0.00,South,180,12.3,17.2,46,0.00,,---,0.00,VWS V14.01,2013-08-25 17:49:00,
2013-08-25 12:50:00,76.1,53.8,0.00,South,180,14.5,17.2,46,0.00,,---,0.00,VWS V14.01,2013-08-25 17:50:00,
2013-08-25 12:51:00,76.1,53.8,0.00,South,180,15.9,17.2,46,0.00,,---,0.00,VWS V14.01,2013-08-25 17:51:00,
2013-08-25 12:52:00,76.1,53.8,0.00,South,180,10.3,17.2,46,0.00,,---,0.00,VWS V14.01,2013-08-25 17:52:00,
2013-08-25 12:53:00,76.1,53.8,0.00,South,180,10.7,17.2,46,0.00,,---,0.00,VWS V14.01,2013-08-25 17:53:00,
2013-08-25 12:54:00,76.1,53.8,0.00,South,180,10.3,17.2,46,0.00,,---,0.00,VWS V14.01,2013-08-25 17:54:00,
2013-08-25 12:55:00,76.1,53.8,0.00,South,180,17.0,17.7,46,0.00,,---,0.00,VWS V14.01,2013-08-25 17:55:00,
2013-08-25 12:56:00,76.1,53.8,0.00,South,180,12.5,17.7,46,0.00,,---,0.00,VWS V14.01,2013-08-25 17:56:00,
2013-08-25 12:57:00,76.1,53.8,0.00,South,180,10.5,17.7,46,0.00,,---,0.00,VWS V14.01,2013-08-25 17:57:00,
2013-08-25 12:58:00,75.9,53.6,0.00,South,180,7.4,17.7,46,0.00,,---,0.00,VWS V14.01,2013-08-25 17:58:00,
2013-08-25 12:59:00,75.9,53.6,0.00,South,180,10.7,17.7,46,0.00,,---,0.00,VWS V14.01,2013-08-25 17:59:00,
2013-08-25 13:01:00,75.9,53.6,0.00,South,180,12.5,17.7,46,0.00,,---,0.00,VWS V14.01,2013-08-25 18:01:00,
2013-08-25 13:02:00,75.9,53.6,0.00,South,180,11.2,17.7,46,0.00,,---,0.00,VWS V14.01,2013-08-25 18:02:00,
2013-08-25 13:03:00,75.7,53.5,0.00,South,180,10.5,17.7,46,0.00,,---,0.00,VWS V14.01,2013-08-25 18:03:00,
2013-08-25 13:04:00,75.7,53.5,0.00,South,180,7.8,17.7,46,0.00,,---,0.00,VWS V14.01,2013-08-25 18:04:00,
2013-08-25 13:05:00,75.7,53.5,0.00,South,180,8.5,17.7,46,0.00,,---,0.00,VWS V14.01,2013-08-25 18:05:00,
2013-08-25 13:06:00,75.7,54.1,0.00,South,180,12.3,17.7,47,0.00,,---,0.00,VWS V14.01,2013-08-25 18:06:00,
2013-08-25 13:07:00,75.5,53.9,0.00,South,180,12.3,17.7,47,0.00,,---,0.00,VWS V14.01,2013-08-25 18:07:00,
2013-08-25 13:08:00,75.7,54.1,0.00,South,180,17.7,17.7,47,0.00,,---,0.00,VWS V14.01,2013-08-25 18:08:00,
2013-08-25 13:09:00,75.7,54.1,0.00,South,180,12.8,17.7,47,0.00,,---,0.00,VWS V14.01,2013-08-25 18:09:00,
2013-08-25 13:10:00,75.7,54.1,0.00,South,180,9.6,17.7,47,0.00,,---,0.00,VWS V14.01,2013-08-25 18:10:00,
2013-08-25 13:11:00,75.7,54.1,0.00,South,180,9.8,17.7,47,0.00,,---,0.00,VWS V14.01,2013-08-25 18:11:00,
2013-08-25 13:12:00,75.7,54.1,0.00,South,180,11.0,17.7,47,0.00,,---,0.00,VWS V14.01,2013-08-25 18:12:00,
2013-08-25 13:13:00,75.7,54.1,0.00,South,180,16.6,17.9,47,0.00,,---,0.00,VWS V14.01,2013-08-25 18:13:00,
2013-08-25 13:14:00,75.5,53.9,0.00,SW,225,12.8,17.9,47,0.00,,---,0.00,VWS V14.01,2013-08-25 18:14:00,
2013-08-25 13:15:00,75.7,54.1,0.00,South,180,10.3,10.3,47,0.00,,---,0.00,VWS V14.01,2013-08-25 18:15:00,
2013-08-25 13:16:00,75.7,54.1,0.00,South,180,14.3,14.3,47,0.00,,---,0.00,VWS V14.01,2013-08-25 18:16:00,
2013-08-25 13:17:00,75.5,53.9,0.00,South,180,13.0,14.3,47,0.00,,---,0.00,VWS V14.01,2013-08-25 18:17:00,
2013-08-25 13:18:00,75.5,53.9,0.00,SSW,202,10.5,14.3,47,0.00,,---,0.00,VWS V14.01,2013-08-25 18:18:00,
2013-08-25 13:19:00,75.5,53.9,0.00,South,180,9.2,14.3,47,0.00,,---,0.00,VWS V14.01,2013-08-25 18:19:00,
2013-08-25 13:21:00,75.3,53.7,0.00,South,180,13.9,14.3,47,0.00,,---,0.00,VWS V14.01,2013-08-25 18:21:00,
2013-08-25 13:22:00,75.2,53.6,0.00,SSE,158,11.4,14.3,47,0.00,,---,0.00,VWS V14.01,2013-08-25 18:22:00,
2013-08-25 13:23:00,75.2,53.6,0.00,SSE,158,11.4,14.3,47,0.00,,---,0.00,VWS V14.01,2013-08-25 18:23:00,
2013-08-25 13:24:00,75.3,53.7,0.00,South,180,13.0,16.6,47,0.00,,---,0.00,VWS V14.01,2013-08-25 18:24:00,
2013-08-25 13:25:00,75.3,53.7,0.00,South,180,13.6,16.6,47,0.00,,---,0.00,VWS V14.01,2013-08-25 18:25:00,
2013-08-25 13:26:00,75.5,53.9,0.00,South,180,17.5,17.5,47,0.00,,---,0.00,VWS V14.01,2013-08-25 18:26:00,
2013-08-25 13:27:00,75.5,53.9,0.00,South,180,7.8,17.5,47,0.00,,---,0.00,VWS V14.01,2013-08-25 18:27:00,
2013-08-25 13:28:00,75.5,53.9,0.00,SSW,202,11.0,17.5,47,0.00,,---,0.00,VWS V14.01,2013-08-25 18:28:00,
2013-08-25 13:29:00,75.5,53.9,0.00,SSW,202,10.3,17.5,47,0.00,,---,0.00,VWS V14.01,2013-08-25 18:29:00,
2013-08-25 13:30:00,75.5,53.9,0.00,SSW,202,10.3,17.5,47,0.00,,---,0.00,VWS V14.01,2013-08-25 18:30:00,
2013-08-25 13:31:00,75.3,53.7,0.00,South,180,12.5,14.5,47,0.00,,---,0.00,VWS V14.01,2013-08-25 18:31:00,
2013-08-25 13:32:00,75.3,53.7,0.00,South,180,8.7,14.5,47,0.00,,---,0.00,VWS V14.01,2013-08-25 18:32:00,
2013-08-25 13:33:00,75.3,53.7,0.00,South,180,8.7,14.5,47,0.00,,---,0.00,VWS V14.01,2013-08-25 18:33:00,
2013-08-25 13:34:00,75.3,53.7,0.00,South,180,9.8,14.5,47,0.00,,---,0.00,VWS V14.01,2013-08-25 18:34:00,
2013-08-25 13:35:00,75.2,53.6,0.00,South,180,12.3,14.5,47,0.00,,---,0.00,VWS V14.01,2013-08-25 18:35:00,
2013-08-25 13:36:00,75.2,53.6,0.00,South,180,8.5,14.5,47,0.00,,---,0.00,VWS V14.01,2013-08-25 18:36:00,
2013-08-25 13:37:00,75.2,53.6,0.00,South,180,16.6,16.6,47,0.00,,---,0.00,VWS V14.01,2013-08-25 18:37:00,
2013-08-25 13:38:00,75.2,53.6,0.00,South,180,10.3,16.6,47,0.00,,---,0.00,VWS V14.01,2013-08-25 18:38:00,
2013-08-25 13:39:00,75.2,53.6,0.00,South,180,15.9,16.6,47,0.00,,---,0.00,VWS V14.01,2013-08-25 18:39:00,
2013-08-25 13:40:00,75.2,53.6,0.00,SW,225,11.0,16.6,47,0.00,,---,0.00,VWS V14.01,2013-08-25 18:40:00,
2013-08-25 13:41:00,75.2,53.6,0.00,South,180,11.9,16.6,47,0.00,,---,0.00,VWS V14.01,2013-08-25 18:41:00,
2013-08-25 13:42:00,75.2,53.6,0.00,South,180,9.8,16.6,47,0.00,,---,0.00,VWS V14.01,2013-08-25 18:42:00,
2013-08-25 13:43:00,75.2,53.6,0.00,South,180,9.8,16.6,47,0.00,,---,0.00,VWS V14.01,2013-08-25 18:43:00,
2013-08-25 13:44:00,75.0,53.4,0.00,South,180,9.8,16.6,47,0.00,,---,0.00,VWS V14.01,2013-08-25 18:44:00,
2013-08-25 13:45:00,75.0,53.4,0.00,South,180,10.1,16.6,47,0.00,,---,0.00,VWS V14.01,2013-08-25 18:45:00,
2013-08-25 13:46:00,75.0,53.4,0.00,South,180,12.8,19.0,47,0.00,,---,0.00,VWS V14.01,2013-08-25 18:46:00,
2013-08-25 13:47:00,74.8,53.2,0.00,South,180,12.3,19.0,47,0.00,,---,0.00,VWS V14.01,2013-08-25 18:47:00,
2013-08-25 13:48:00,74.8,53.8,0.00,South,180,9.8,19.0,48,0.00,,---,0.00,VWS V14.01,2013-08-25 18:48:00,
2013-08-25 13:49:00,74.8,53.8,0.00,SSE,158,13.2,19.0,48,0.00,,---,0.00,VWS V14.01,2013-08-25 18:49:00,
2013-08-25 13:50:00,74.8,53.8,0.00,South,180,10.1,19.0,48,0.00,,---,0.00,VWS V14.01,2013-08-25 18:50:00,
2013-08-25 13:51:00,74.8,53.8,0.00,South,180,11.0,19.0,48,0.00,,---,0.00,VWS V14.01,2013-08-25 18:51:00,
2013-08-25 13:52:00,74.8,53.8,0.00,South,180,19.7,19.7,48,0.00,,---,0.00,VWS V14.01,2013-08-25 18:52:00,
2013-08-25 13:53:00,74.8,53.8,0.00,South,180,10.3,19.7,48,0.00,,---,0.00,VWS V14.01,2013-08-25 18:53:00,
2013-08-25 13:54:00,74.8,53.8,0.00,South,180,10.3,19.7,48,0.00,,---,0.00,VWS V14.01,2013-08-25 18:54:00,
2013-08-25 13:55:00,74.8,53.8,0.00,SSW,202,12.3,19.7,48,0.00,,---,0.00,VWS V14.01,2013-08-25 18:55:00,
2013-08-25 13:56:00,74.8,53.8,0.00,South,180,13.2,19.7,48,0.00,,---,0.00,VWS V14.01,2013-08-25 18:56:00,
2013-08-25 13:57:00,74.8,53.8,0.00,SSW,202,13.2,19.7,48,0.00,,---,0.00,VWS V14.01,2013-08-25 18:57:00,
2013-08-25 13:58:00,74.8,53.8,0.00,SW,225,8.5,19.7,48,0.00,,---,0.00,VWS V14.01,2013-08-25 18:58:00,
2013-08-25 13:59:00,74.8,53.8,0.00,SW,225,15.2,19.7,48,0.00,,---,0.00,VWS V14.01,2013-08-25 18:59:00,
2013-08-25 14:00:00,74.8,53.8,0.00,South,180,11.0,19.7,48,0.00,,---,0.00,VWS V14.01,2013-08-25 19:00:00,
2013-08-25 14:01:00,74.8,53.8,0.00,South,180,9.6,11.0,48,0.00,,---,0.00,VWS V14.01,2013-08-25 19:01:00,
2013-08-25 14:02:00,74.8,53.8,0.00,South,180,17.0,17.0,48,0.00,,---,0.00,VWS V14.01,2013-08-25 19:02:00,
2013-08-25 14:03:00,74.8,53.8,0.00,South,180,8.7,17.0,48,0.00,,---,0.00,VWS V14.01,2013-08-25 19:03:00,
2013-08-25 14:04:00,74.8,53.8,0.00,SSW,202,11.4,17.0,48,0.00,,---,0.00,VWS V14.01,2013-08-25 19:04:00,
2013-08-25 14:05:00,74.8,53.8,0.00,South,180,12.5,17.0,48,0.00,,---,0.00,VWS V14.01,2013-08-25 19:05:00,
2013-08-25 14:06:00,74.8,53.8,0.00,SSE,158,10.7,17.0,48,0.00,,---,0.00,VWS V14.01,2013-08-25 19:06:00,
2013-08-25 14:07:00,74.8,53.8,0.00,SSW,202,12.5,17.0,48,0.00,,---,0.00,VWS V14.01,2013-08-25 19:07:00,
2013-08-25 14:08:00,74.8,53.8,0.00,SSE,158,7.4,17.0,48,0.00,,---,0.00,VWS V14.01,2013-08-25 19:08:00,
2013-08-25 14:09:00,74.8,53.8,0.00,SW,225,13.0,17.0,48,0.00,,---,0.00,VWS V14.01,2013-08-25 19:09:00,
2013-08-25 14:10:00,74.8,53.8,0.00,South,180,10.1,17.0,48,0.00,,---,0.00,VWS V14.01,2013-08-25 19:10:00,
2013-08-25 14:11:00,74.8,53.8,0.00,South,180,13.0,17.0,48,0.00,,---,0.00,VWS V14.01,2013-08-25 19:11:00,
2013-08-25 14:12:00,74.8,53.8,0.00,South,180,17.7,17.7,48,0.00,,---,0.00,VWS V14.01,2013-08-25 19:12:00,
2013-08-25 14:13:00,74.8,53.8,0.00,South,180,12.8,17.7,48,0.00,,---,0.00,VWS V14.01,2013-08-25 19:13:00,
2013-08-25 14:14:00,74.8,53.8,0.00,South,180,12.8,17.7,48,0.00,,---,0.00,VWS V14.01,2013-08-25 19:14:00,
2013-08-25 14:15:00,74.8,53.8,0.00,SW,225,10.7,17.7,48,0.00,,---,0.00,VWS V14.01,2013-08-25 19:15:00,
2013-08-25 14:16:00,74.8,53.8,0.00,South,180,13.2,15.2,48,0.00,,---,0.00,VWS V14.01,2013-08-25 19:16:00,
2013-08-25 14:17:00,74.8,53.8,0.00,SW,225,12.3,15.2,48,0.00,,---,0.00,VWS V14.01,2013-08-25 19:17:00,
2013-08-25 14:18:00,74.8,53.8,0.00,South,180,10.7,15.2,48,0.00,,---,0.00,VWS V14.01,2013-08-25 19:18:00,
2013-08-25 14:19:00,74.6,53.7,0.00,South,180,10.7,15.2,48,0.00,,---,0.00,VWS V14.01,2013-08-25 19:19:00,
2013-08-25 14:20:00,74.6,53.7,0.00,South,180,15.7,16.3,48,0.00,,---,0.00,VWS V14.01,2013-08-25 19:20:00,
2013-08-25 14:21:00,74.6,53.7,0.00,South,180,11.2,16.3,48,0.00,,---,0.00,VWS V14.01,2013-08-25 19:21:00,
2013-08-25 14:22:00,74.6,54.2,0.00,South,180,11.2,16.3,49,0.00,,---,0.00,VWS V14.01,2013-08-25 19:22:00,
2013-08-25 14:23:00,74.6,53.7,0.00,SSW,202,13.0,16.3,48,0.00,,---,0.00,VWS V14.01,2013-08-25 19:23:00,
2013-08-25 14:24:00,74.6,53.7,0.00,SSW,202,15.2,16.3,48,0.00,,---,0.00,VWS V14.01,2013-08-25 19:24:00,
2013-08-25 14:25:00,74.6,53.7,0.00,SSW,202,15.2,16.3,48,0.00,,---,0.00,VWS V14.01,2013-08-25 19:25:00,
2013-08-25 14:26:00,74.8,53.8,0.00,South,180,19.2,19.2,48,0.00,,---,0.00,VWS V14.01,2013-08-25 19:26:00,
2013-08-25 14:27:00,74.8,53.8,0.00,SW,225,10.7,19.2,48,0.00,,---,0.00,VWS V14.01,2013-08-25 19:27:00,
2013-08-25 14:28:00,74.8,53.8,0.00,SW,225,10.5,19.2,48,0.00,,---,0.00,VWS V14.01,2013-08-25 19:28:00,
2013-08-25 14:29:00,74.8,53.8,0.00,South,180,10.3,19.2,48,0.00,,---,0.00,VWS V14.01,2013-08-25 19:29:00,
2013-08-25 14:30:00,74.8,53.8,0.00,SW,225,19.5,19.5,48,0.00,,---,0.00,VWS V14.01,2013-08-25 19:30:00,
2013-08-25 14:31:00,74.8,53.8,0.00,South,180,12.5,19.5,48,0.00,,---,0.00,VWS V14.01,2013-08-25 19:31:00,
2013-08-25 14:32:00,74.8,53.8,0.00,South,180,12.5,19.5,48,0.00,,---,0.00,VWS V14.01,2013-08-25 19:32:00,
2013-08-25 14:33:00,74.8,53.8,0.00,South,180,13.0,19.5,48,0.00,,---,0.00,VWS V14.01,2013-08-25 19:33:00,
2013-08-25 14:34:00,74.8,53.8,0.00,SSW,202,9.8,19.5,48,0.00,,---,0.00,VWS V14.01,2013-08-25 19:34:00,
2013-08-25 14:35:00,74.6,54.2,0.00,SSW,202,14.8,19.5,49,0.00,,---,0.00,VWS V14.01,2013-08-25 19:35:00,
2013-08-25 14:36:00,74.6,53.7,0.00,SSW,202,10.5,19.5,48,0.00,,---,0.00,VWS V14.01,2013-08-25 19:36:00,
2013-08-25 14:38:00,74.6,54.2,0.00,SSW,202,13.2,19.5,49,0.00,,---,0.00,VWS V14.01,2013-08-25 19:38:00,
2013-08-25 14:39:00,74.6,54.2,0.00,SSW,202,11.0,19.5,49,0.00,,---,0.00,VWS V14.01,2013-08-25 19:39:00,
2013-08-25 14:40:00,74.6,54.2,0.00,South,180,23.0,23.0,49,0.00,,---,0.00,VWS V14.01,2013-08-25 19:40:00,
2013-08-25 14:41:00,74.6,54.2,0.00,South,180,15.4,23.0,49,0.00,,---,0.00,VWS V14.01,2013-08-25 19:41:00,
2013-08-25 14:43:00,74.6,54.2,0.00,SSW,202,10.5,23.0,49,0.00,,---,0.00,VWS V14.01,2013-08-25 19:43:00,
2013-08-25 14:44:00,74.6,54.2,0.00,SW,225,12.3,23.0,49,0.00,,---,0.00,VWS V14.01,2013-08-25 19:44:00,
2013-08-25 14:45:00,74.6,54.2,0.00,SW,225,12.3,23.0,49,0.00,,---,0.00,VWS V14.01,2013-08-25 19:45:00,
2013-08-25 14:46:00,74.6,54.2,0.00,South,180,17.0,17.0,49,0.00,,---,0.00,VWS V14.01,2013-08-25 19:46:00,
2013-08-25 14:47:00,74.4,54.0,0.00,SSW,202,13.0,17.2,49,0.00,,---,0.00,VWS V14.01,2013-08-25 19:47:00,
2013-08-25 14:48:00,74.4,54.0,0.00,South,180,10.1,17.2,49,0.00,,---,0.00,VWS V14.01,2013-08-25 19:48:00,
2013-08-25 14:49:00,74.4,54.0,0.00,SW,225,10.1,17.2,49,0.00,,---,0.00,VWS V14.01,2013-08-25 19:49:00,
2013-08-25 14:50:00,74.4,54.0,0.00,SW,225,11.0,17.2,49,0.00,,---,0.00,VWS V14.01,2013-08-25 19:50:00,
2013-08-25 14:51:00,74.4,54.0,0.00,SSW,202,14.5,17.9,49,0.00,,---,0.00,VWS V14.01,2013-08-25 19:51:00,
2013-08-25 14:52:00,74.4,54.0,0.00,South,180,8.5,17.9,49,0.00,,---,0.00,VWS V14.01,2013-08-25 19:52:00,
2013-08-25 14:53:00,74.4,54.0,0.00,South,180,8.5,17.9,49,0.00,,---,0.00,VWS V14.01,2013-08-25 19:53:00,
2013-08-25 14:54:00,74.4,54.0,0.00,South,180,12.3,17.9,49,0.00,,---,0.00,VWS V14.01,2013-08-25 19:54:00,
2013-08-25 14:55:00,74.4,54.0,0.00,SSW,202,15.4,17.9,49,0.00,,---,0.00,VWS V14.01,2013-08-25 19:55:00,
2013-08-25 14:56:00,74.4,54.0,0.00,South,180,13.0,17.9,49,0.00,,---,0.00,VWS V14.01,2013-08-25 19:56:00,
2013-08-25 14:57:00,74.4,54.0,0.00,South,180,17.2,17.9,49,0.00,,---,0.00,VWS V14.01,2013-08-25 19:57:00,
2013-08-25 14:58:00,74.4,54.0,0.00,South,180,17.2,17.9,49,0.00,,---,0.00,VWS V14.01,2013-08-25 19:58:00,
2013-08-25 14:59:00,74.3,53.9,0.00,SW,225,13.2,17.9,49,0.00,,---,0.00,VWS V14.01,2013-08-25 19:59:00,
2013-08-25 15:00:00,74.3,53.9,0.00,South,180,10.7,17.9,49,0.00,,---,0.00,VWS V14.01,2013-08-25 20:00:00,
2013-08-25 15:01:00,74.3,53.9,0.00,South,180,10.7,14.5,49,0.00,,---,0.00,VWS V14.01,2013-08-25 20:01:00,
2013-08-25 15:02:00,74.3,53.9,0.00,South,180,10.3,17.2,49,0.00,,---,0.00,VWS V14.01,2013-08-25 20:02:00,
2013-08-25 15:03:00,74.3,54.4,0.00,South,180,8.1,17.2,50,0.00,,---,0.00,VWS V14.01,2013-08-25 20:03:00,
2013-08-25 15:04:00,74.1,54.3,0.00,South,180,10.3,17.2,50,0.00,,---,0.00,VWS V14.01,2013-08-25 20:04:00,
2013-08-25 15:05:00,74.1,54.3,0.00,South,180,16.6,17.2,50,0.00,,---,0.00,VWS V14.01,2013-08-25 20:05:00,
2013-08-25 15:06:00,74.1,54.3,0.00,SW,225,10.1,17.2,50,0.00,,---,0.00,VWS V14.01,2013-08-25 20:06:00,
2013-08-25 15:07:00,74.1,54.3,0.00,South,180,12.8,17.2,50,0.00,,---,0.00,VWS V14.01,2013-08-25 20:07:00,
2013-08-25 15:08:00,74.1,54.3,0.00,South,180,11.4,17.2,50,0.00,,---,0.00,VWS V14.01,2013-08-25 20:08:00,
2013-08-25 15:09:00,74.1,54.3,0.00,SW,225,12.8,17.5,50,0.00,,---,0.00,VWS V14.01,2013-08-25 20:09:00,
2013-08-25 15:10:00,74.1,54.3,0.00,South,180,12.3,17.5,50,0.00,,---,0.00,VWS V14.01,2013-08-25 20:10:00,
2013-08-25 15:11:00,74.1,54.3,0.00,South,180,13.0,17.5,50,0.00,,---,0.00,VWS V14.01,2013-08-25 20:11:00,
2013-08-25 15:12:00,74.1,54.3,0.00,South,180,13.0,17.5,50,0.00,,---,0.00,VWS V14.01,2013-08-25 20:12:00,
2013-08-25 15:14:00,74.1,54.3,0.00,South,180,12.1,17.5,50,0.00,,---,0.00,VWS V14.01,2013-08-25 20:14:00,
2013-08-25 15:15:00,74.1,54.3,0.00,South,180,17.7,17.7,50,0.00,,---,0.00,VWS V14.01,2013-08-25 20:15:00,
2013-08-25 15:16:00,73.9,54.1,0.00,SSE,158,12.5,17.7,50,0.00,,---,0.00,VWS V14.01,2013-08-25 20:16:00,
2013-08-25 15:17:00,73.9,54.1,0.00,SSW,202,13.4,17.7,50,0.00,,---,0.00,VWS V14.01,2013-08-25 20:17:00,
2013-08-25 15:18:00,73.9,54.1,0.00,South,180,8.7,17.7,50,0.00,,---,0.00,VWS V14.01,2013-08-25 20:18:00,
2013-08-25 15:19:00,73.9,54.1,0.00,South,180,11.0,17.7,50,0.00,,---,0.00,VWS V14.01,2013-08-25 20:19:00,
2013-08-25 15:20:00,73.9,54.1,0.00,SSW,202,17.0,17.7,50,0.00,,---,0.00,VWS V14.01,2013-08-25 20:20:00,
2013-08-25 15:21:00,73.9,54.1,0.00,South,180,8.5,17.7,50,0.00,,---,0.00,VWS V14.01,2013-08-25 20:21:00,
2013-08-25 15:22:00,73.7,53.9,0.00,South,180,14.8,17.7,50,0.00,,---,0.00,VWS V14.01,2013-08-25 20:22:00,
2013-08-25 15:23:00,73.7,53.9,0.00,South,180,23.0,23.0,50,0.00,,---,0.00,VWS V14.01,2013-08-25 20:23:00,
2013-08-25 15:24:00,73.7,53.9,0.00,South,180,12.3,23.0,50,0.00,,---,0.00,VWS V14.01,2013-08-25 20:24:00,
2013-08-25 15:25:00,73.9,54.1,0.00,South,180,12.5,23.0,50,0.00,,---,0.00,VWS V14.01,2013-08-25 20:25:00,
2013-08-25 15:26:00,73.9,54.1,0.00,South,180,12.3,23.0,50,0.00,,---,0.00,VWS V14.01,2013-08-25 20:26:00,
2013-08-25 15:27:00,73.9,54.1,0.00,SSW,202,13.0,23.0,50,0.00,,---,0.00,VWS V14.01,2013-08-25 20:27:00,
2013-08-25 15:28:00,73.9,54.1,0.00,South,180,11.2,23.0,50,0.00,,---,0.00,VWS V14.01,2013-08-25 20:28:00,
2013-08-25 15:29:00,73.9,54.1,0.00,SSE,158,11.4,23.0,50,0.00,,---,0.00,VWS V14.01,2013-08-25 20:29:00,
2013-08-25 15:30:00,73.7,54.5,0.00,South,180,11.0,23.0,51,0.00,,---,0.00,VWS V14.01,2013-08-25 20:30:00,
2013-08-25 15:31:00,73.7,54.5,0.00,SSW,202,13.0,13.0,51,0.00,,---,0.00,VWS V14.01,2013-08-25 20:31:00,
2013-08-25 15:32:00,73.7,54.5,0.00,SSW,202,13.0,13.0,51,0.00,,---,0.00,VWS V14.01,2013-08-25 20:32:00,
2013-08-25 15:33:00,73.7,54.5,0.00,SW,225,10.7,14.1,51,0.00,,---,0.00,VWS V14.01,2013-08-25 20:33:00,
2013-08-25 15:34:00,73.7,54.5,0.00,South,180,13.2,14.1,51,0.00,,---,0.00,VWS V14.01,2013-08-25 20:34:00,
2013-08-25 15:35:00,73.7,53.9,0.00,SW,225,10.3,15.2,50,0.00,,---,0.00,VWS V14.01,2013-08-25 20:35:00,
2013-08-25 15:36:00,73.7,54.5,0.00,SSW,202,9.8,15.2,51,0.00,,---,0.00,VWS V14.01,2013-08-25 20:36:00,
2013-08-25 15:37:00,73.5,54.3,0.00,SSW,202,14.3,15.2,51,0.00,,---,0.00,VWS V14.01,2013-08-25 20:37:00,
2013-08-25 15:38:00,73.5,54.3,0.00,South,180,11.0,15.2,51,0.00,,---,0.00,VWS V14.01,2013-08-25 20:38:00,
2013-08-25 15:39:00,73.5,54.3,0.00,South,180,11.0,15.2,51,0.00,,---,0.00,VWS V14.01,2013-08-25 20:39:00,
2013-08-25 15:40:00,73.5,53.8,0.00,South,180,13.2,17.7,50,0.00,,---,0.00,VWS V14.01,2013-08-25 20:40:00,
2013-08-25 15:41:00,73.7,54.5,0.00,SW,225,8.7,17.7,51,0.00,,---,0.00,VWS V14.01,2013-08-25 20:41:00,
2013-08-25 15:42:00,73.5,54.3,0.00,South,180,10.5,17.7,51,0.00,,---,0.00,VWS V14.01,2013-08-25 20:42:00,
2013-08-25 15:43:00,73.5,54.3,0.00,SW,225,12.1,17.7,51,0.00,,---,0.00,VWS V14.01,2013-08-25 20:43:00,
2013-08-25 15:44:00,73.5,54.3,0.00,South,180,10.5,17.7,51,0.00,,---,0.00,VWS V14.01,2013-08-25 20:44:00,
2013-08-25 15:45:00,73.5,54.3,0.00,South,180,13.2,17.7,51,0.00,,---,0.00,VWS V14.01,2013-08-25 20:45:00,
2013-08-25 15:46:00,73.5,54.3,0.00,SSW,202,11.9,14.8,51,0.00,,---,0.00,VWS V14.01,2013-08-25 20:46:00,
2013-08-25 15:47:00,73.5,54.3,0.00,SSW,202,10.7,16.1,51,0.00,,---,0.00,VWS V14.01,2013-08-25 20:47:00,
2013-08-25 15:48:00,73.5,54.3,0.00,SW,225,11.4,16.1,51,0.00,,---,0.00,VWS V14.01,2013-08-25 20:48:00,
2013-08-25 15:49:00,73.5,54.3,0.00,South,180,12.8,16.1,51,0.00,,---,0.00,VWS V14.01,2013-08-25 20:49:00,
2013-08-25 15:50:00,73.5,54.3,0.00,South,180,13.2,16.1,51,0.00,,---,0.00,VWS V14.01,2013-08-25 20:50:00,
2013-08-25 15:51:00,73.5,54.3,0.00,South,180,12.3,16.1,51,0.00,,---,0.00,VWS V14.01,2013-08-25 20:51:00,
2013-08-25 15:52:00,73.5,54.3,0.00,SSW,202,11.0,16.1,51,0.00,,---,0.00,VWS V14.01,2013-08-25 20:52:00,
2013-08-25 15:53:00,73.5,54.3,0.00,South,180,10.5,16.1,51,0.00,,---,0.00,VWS V14.01,2013-08-25 20:53:00,
2013-08-25 15:54:00,73.5,54.3,0.00,SSW,202,12.3,16.1,51,0.00,,---,0.00,VWS V14.01,2013-08-25 20:54:00,
2013-08-25 15:55:00,73.5,54.3,0.00,SSW,202,12.3,16.1,51,0.00,,---,0.00,VWS V14.01,2013-08-25 20:55:00,
2013-08-25 15:57:00,73.4,54.2,0.00,SSW,202,11.0,16.1,51,0.00,,---,0.00,VWS V14.01,2013-08-25 20:57:00,
2013-08-25 15:58:00,73.4,54.2,0.00,SSW,202,12.8,18.1,51,0.00,,---,0.00,VWS V14.01,2013-08-25 20:58:00,
2013-08-25 15:59:00,73.4,54.2,0.00,South,180,13.0,18.1,51,0.00,,---,0.00,VWS V14.01,2013-08-25 20:59:00,
2013-08-25 16:00:00,73.4,54.2,0.00,South,180,13.0,18.1,51,0.00,,---,0.00,VWS V14.01,2013-08-25 21:00:00,
2013-08-25 16:01:00,73.4,54.2,0.00,South,180,8.5,13.0,51,0.00,,---,0.00,VWS V14.01,2013-08-25 21:01:00,
2013-08-25 16:02:00,73.4,54.2,0.00,SSW,202,12.5,13.0,51,0.00,,---,0.00,VWS V14.01,2013-08-25 21:02:00,
2013-08-25 16:04:00,73.4,54.2,0.00,South,180,10.5,13.0,51,0.00,,---,0.00,VWS V14.01,2013-08-25 21:04:00,
2013-08-25 16:05:00,73.4,54.2,0.00,South,180,8.7,13.0,51,0.00,,---,0.00,VWS V14.01,2013-08-25 21:05:00,
2013-08-25 16:06:00,73.4,54.2,0.00,SSW,202,13.0,13.0,51,0.00,,---,0.00,VWS V14.01,2013-08-25 21:06:00,
2013-08-25 16:07:00,73.4,54.2,0.00,SSW,202,10.5,13.0,51,0.00,,---,0.00,VWS V14.01,2013-08-25 21:07:00,
2013-08-25 16:09:00,73.4,54.2,0.00,SSW,202,12.8,16.1,51,0.00,,---,0.00,VWS V14.01,2013-08-25 21:09:00,
2013-08-25 16:10:00,73.4,54.2,0.00,South,180,14.8,16.1,51,0.00,,---,0.00,VWS V14.01,2013-08-25 21:10:00,
2013-08-25 16:11:00,73.4,54.2,0.00,South,180,12.3,16.1,51,0.00,,---,0.00,VWS V14.01,2013-08-25 21:11:00,
2013-08-25 16:12:00,73.4,54.2,0.00,South,180,9.8,16.1,51,0.00,,---,0.00,VWS V14.01,2013-08-25 21:12:00,
2013-08-25 16:13:00,73.4,54.2,0.00,South,180,10.3,16.1,51,0.00,,---,0.00,VWS V14.01,2013-08-25 21:13:00,
2013-08-25 16:14:00,73.2,54.0,0.00,SW,225,8.5,16.1,51,0.00,,---,0.00,VWS V14.01,2013-08-25 21:14:00,
2013-08-25 16:15:00,73.2,54.0,0.00,South,180,8.7,16.1,51,0.00,,---,0.00,VWS V14.01,2013-08-25 21:15:00,
2013-08-25 16:16:00,73.4,54.2,0.00,South,180,10.1,19.9,51,0.00,,---,0.00,VWS V14.01,2013-08-25 21:16:00,
2013-08-25 16:17:00,73.2,54.0,0.00,SSW,202,6.5,19.9,51,0.00,,---,0.00,VWS V14.01,2013-08-25 21:17:00,
2013-08-25 16:18:00,73.2,54.0,0.00,SSW,202,6.5,19.9,51,0.00,,---,0.00,VWS V14.01,2013-08-25 21:18:00,
2013-08-25 16:19:00,73.2,54.0,0.00,South,180,10.1,19.9,51,0.00,,---,0.00,VWS V14.01,2013-08-25 21:19:00,
2013-08-25 16:20:00,73.2,54.0,0.00,SSW,202,9.6,19.9,51,0.00,,---,0.00,VWS V14.01,2013-08-25 21:20:00,
2013-08-25 16:21:00,73.2,54.0,0.00,South,180,10.1,19.9,51,0.00,,---,0.00,VWS V14.01,2013-08-25 21:21:00,
2013-08-25 16:22:00,73.2,54.0,0.00,SSW,202,10.3,19.9,51,0.00,,---,0.00,VWS V14.01,2013-08-25 21:22:00,
2013-08-25 16:23:00,73.2,54.0,0.00,South,180,10.5,19.9,51,0.00,,---,0.00,VWS V14.01,2013-08-25 21:23:00,
2013-08-25 16:24:00,73.2,54.0,0.00,South,180,6.5,19.9,51,0.00,,---,0.00,VWS V14.01,2013-08-25 21:24:00,
2013-08-25 16:25:00,73.2,54.0,0.00,SW,225,11.0,19.9,51,0.00,,---,0.00,VWS V14.01,2013-08-25 21:25:00,
2013-08-25 16:26:00,73.2,54.0,0.00,SW,225,11.0,19.9,51,0.00,,---,0.00,VWS V14.01,2013-08-25 21:26:00,
2013-08-25 16:27:00,73.2,54.0,0.00,SW,225,9.0,19.9,51,0.00,,---,0.00,VWS V14.01,2013-08-25 21:27:00,
2013-08-25 16:28:00,73.2,54.0,0.00,South,180,12.3,19.9,51,0.00,,---,0.00,VWS V14.01,2013-08-25 21:28:00,
2013-08-25 16:29:00,73.2,54.0,0.00,SW,225,10.1,19.9,51,0.00,,---,0.00,VWS V14.01,2013-08-25 21:29:00,
2013-08-25 16:30:00,73.0,53.8,0.00,South,180,8.5,19.9,51,0.00,,---,0.00,VWS V14.01,2013-08-25 21:30:00,
2013-08-25 16:31:00,73.0,53.8,0.00,South,180,7.4,11.0,51,0.00,,---,0.00,VWS V14.01,2013-08-25 21:31:00,
2013-08-25 16:32:00,73.0,53.8,0.00,South,180,8.7,12.3,51,0.00,,---,0.00,VWS V14.01,2013-08-25 21:32:00,
2013-08-25 16:33:00,73.0,53.8,0.00,South,180,7.2,12.3,51,0.00,,---,0.00,VWS V14.01,2013-08-25 21:33:00,
2013-08-25 16:34:00,73.0,54.4,0.00,SW,225,10.5,12.3,52,0.00,,---,0.00,VWS V14.01,2013-08-25 21:34:00,
2013-08-25 16:35:00,72.8,54.2,0.00,SW,225,5.8,12.3,52,0.00,,---,0.00,VWS V14.01,2013-08-25 21:35:00,
2013-08-25 16:37:00,72.8,54.2,0.00,SSW,202,7.4,12.3,52,0.00,,---,0.00,VWS V14.01,2013-08-25 21:37:00,
2013-08-25 16:38:00,72.8,54.2,0.00,South,180,7.8,12.5,52,0.00,,---,0.00,VWS V14.01,2013-08-25 21:38:00,
2013-08-25 16:39:00,72.8,54.2,0.00,SW,225,10.3,12.5,52,0.00,,---,0.00,VWS V14.01,2013-08-25 21:39:00,
2013-08-25 16:40:00,73.0,53.8,0.00,SW,225,12.5,13.2,51,0.00,,---,0.00,VWS V14.01,2013-08-25 21:40:00,
2013-08-25 16:41:00,73.0,53.8,0.00,SW,225,7.8,13.2,51,0.00,,---,0.00,VWS V14.01,2013-08-25 21:41:00,
2013-08-25 16:42:00,73.0,53.8,0.00,SW,225,7.8,13.2,51,0.00,,---,0.00,VWS V14.01,2013-08-25 21:42:00,
2013-08-25 16:44:00,73.0,53.8,0.00,South,180,7.8,13.2,51,0.00,,---,0.00,VWS V14.01,2013-08-25 21:44:00,
2013-08-25 16:45:00,73.0,53.8,0.00,South,180,7.8,13.2,51,0.00,,---,0.00,VWS V14.01,2013-08-25 21:45:00,
2013-08-25 16:46:00,73.0,53.8,0.00,SW,225,10.1,10.1,51,0.00,,---,0.00,VWS V14.01,2013-08-25 21:46:00,
2013-08-25 16:49:00,72.8,54.2,0.00,SW,225,7.4,10.1,52,0.00,,---,0.00,VWS V14.01,2013-08-25 21:49:00,
2013-08-25 16:50:00,72.8,54.2,0.00,South,180,10.7,10.7,52,0.00,,---,0.00,VWS V14.01,2013-08-25 21:50:00,
2013-08-25 16:51:00,72.8,54.2,0.00,SSW,202,8.7,10.7,52,0.00,,---,0.00,VWS V14.01,2013-08-25 21:51:00,
2013-08-25 16:52:00,72.8,54.2,0.00,SW,225,6.5,11.0,52,0.00,,---,0.00,VWS V14.01,2013-08-25 21:52:00,
2013-08-25 16:53:00,72.8,54.2,0.00,South,180,6.0,11.0,52,0.00,,---,0.00,VWS V14.01,2013-08-25 21:53:00,
2013-08-25 16:54:00,72.8,54.2,0.00,SSW,202,8.7,11.0,52,0.00,,---,0.00,VWS V14.01,2013-08-25 21:54:00,
2013-08-25 16:55:00,72.8,54.2,0.00,SW,225,8.7,12.8,52,0.00,,---,0.00,VWS V14.01,2013-08-25 21:55:00,
2013-08-25 16:56:00,72.8,54.2,0.00,South,180,7.6,12.8,52,0.00,,---,0.00,VWS V14.01,2013-08-25 21:56:00,
2013-08-25 16:57:00,72.6,54.0,0.00,SSW,202,10.1,12.8,52,0.00,,---,0.00,VWS V14.01,2013-08-25 21:57:00,
2013-08-25 16:58:00,72.6,54.0,0.00,SW,225,7.6,12.8,52,0.00,,---,0.00,VWS V14.01,2013-08-25 21:58:00,
2013-08-25 16:59:00,72.6,54.5,0.00,SW,225,6.3,12.8,53,0.00,,---,0.00,VWS V14.01,2013-08-25 21:59:00,
2013-08-25 17:00:00,72.6,54.5,0.00,SSW,202,5.8,12.8,53,0.00,,---,0.00,VWS V14.01,2013-08-25 22:00:00,
2013-08-25 17:01:00,72.5,54.4,0.00,SW,225,5.4,5.8,53,0.00,,---,0.00,VWS V14.01,2013-08-25 22:01:00,
2013-08-25 17:02:00,72.5,54.4,0.00,South,180,7.6,7.6,53,0.00,,---,0.00,VWS V14.01,2013-08-25 22:02:00,
2013-08-25 17:04:00,72.3,54.2,0.00,SW,225,12.3,12.3,53,0.00,,---,0.00,VWS V14.01,2013-08-25 22:04:00,
2013-08-25 17:05:00,72.3,54.2,0.00,SW,225,6.7,12.3,53,0.00,,---,0.00,VWS V14.01,2013-08-25 22:05:00,
2013-08-25 17:06:00,72.3,54.2,0.00,South,180,5.6,12.3,53,0.00,,---,0.00,VWS V14.01,2013-08-25 22:06:00,
2013-08-25 17:07:00,72.3,54.2,0.00,SW,225,10.7,17.2,53,0.00,,---,0.00,VWS V14.01,2013-08-25 22:07:00,
2013-08-25 17:08:00,72.5,54.4,0.00,SW,225,16.8,17.2,53,0.00,,---,0.00,VWS V14.01,2013-08-25 22:08:00,
2013-08-25 17:09:00,72.5,54.4,0.00,South,180,8.7,17.2,53,0.00,,---,0.00,VWS V14.01,2013-08-25 22:09:00,
2013-08-25 17:10:00,72.5,54.4,0.00,South,180,7.4,17.2,53,0.00,,---,0.00,VWS V14.01,2013-08-25 22:10:00,
2013-08-25 17:11:00,72.5,54.4,0.00,SSE,158,15.9,17.2,53,0.00,,---,0.00,VWS V14.01,2013-08-25 22:11:00,
2013-08-25 17:12:00,72.3,54.2,0.00,SSW,202,11.0,17.2,53,0.00,,---,0.00,VWS V14.01,2013-08-25 22:12:00,
2013-08-25 17:13:00,72.3,54.2,0.00,SW,225,8.5,17.2,53,0.00,,---,0.00,VWS V14.01,2013-08-25 22:13:00,
2013-08-25 17:14:00,72.1,54.0,0.00,SW,225,10.5,17.2,53,0.00,,---,0.00,VWS V14.01,2013-08-25 22:14:00,
2013-08-25 17:15:00,72.1,54.0,0.00,SW,225,9.8,17.2,53,0.00,,---,0.00,VWS V14.01,2013-08-25 22:15:00,
2013-08-25 17:16:00,72.1,54.6,0.00,SSW,202,7.8,9.8,54,0.00,,---,0.00,VWS V14.01,2013-08-25 22:16:00,
2013-08-25 17:17:00,71.9,54.4,0.00,South,180,8.7,13.2,54,0.00,,---,0.00,VWS V14.01,2013-08-25 22:17:00,
2013-08-25 17:18:00,71.9,54.4,0.00,South,180,7.2,16.8,54,0.00,,---,0.00,VWS V14.01,2013-08-25 22:18:00,
2013-08-25 17:19:00,71.9,54.4,0.00,SW,225,9.4,16.8,54,0.00,,---,0.00,VWS V14.01,2013-08-25 22:19:00,
2013-08-25 17:20:00,71.9,54.4,0.00,SSW,202,13.2,16.8,54,0.00,,---,0.00,VWS V14.01,2013-08-25 22:20:00,
2013-08-25 17:21:00,71.9,54.4,0.00,SSW,202,11.0,16.8,54,0.00,,---,0.00,VWS V14.01,2013-08-25 22:21:00,
2013-08-25 17:22:00,71.9,54.4,0.00,South,180,6.5,16.8,54,0.00,,---,0.00,VWS V14.01,2013-08-25 22:22:00,
2013-08-25 17:23:00,71.9,54.4,0.00,South,180,10.1,16.8,54,0.00,,---,0.00,VWS V14.01,2013-08-25 22:23:00,
2013-08-25 17:24:00,71.9,54.4,0.00,South,180,8.5,16.8,54,0.00,,---,0.00,VWS V14.01,2013-08-25 22:24:00,
2013-08-25 17:25:00,71.9,54.4,0.00,South,180,8.7,16.8,54,0.00,,---,0.00,VWS V14.01,2013-08-25 22:25:00,
2013-08-25 17:26:00,71.9,54.4,0.00,SW,225,7.8,16.8,54,0.00,,---,0.00,VWS V14.01,2013-08-25 22:26:00,
2013-08-25 17:27:00,71.7,54.2,0.00,SW,225,7.4,16.8,54,0.00,,---,0.00,VWS V14.01,2013-08-25 22:27:00,
2013-08-25 17:28:00,71.7,54.2,0.00,SSW,202,6.3,16.8,54,0.00,,---,0.00,VWS V14.01,2013-08-25 22:28:00,
2013-08-25 17:29:00,71.7,54.2,0.00,SW,225,9.8,16.8,54,0.00,,---,0.00,VWS V14.01,2013-08-25 22:29:00,
2013-08-25 17:30:00,71.7,54.2,0.00,SW,225,9.8,16.8,54,0.00,,---,0.00,VWS V14.01,2013-08-25 22:30:00,
2013-08-25 17:31:00,71.7,54.2,0.00,SSW,202,8.1,12.8,54,0.00,,---,0.00,VWS V14.01,2013-08-25 22:31:00,
2013-08-25 17:32:00,71.7,54.2,0.00,SSW,202,10.1,13.9,54,0.00,,---,0.00,VWS V14.01,2013-08-25 22:32:00,
2013-08-25 17:33:00,71.7,54.2,0.00,SSW,202,10.1,13.9,54,0.00,,---,0.00,VWS V14.01,2013-08-25 22:33:00,
2013-08-25 17:34:00,71.7,54.2,0.00,South,180,10.1,13.9,54,0.00,,---,0.00,VWS V14.01,2013-08-25 22:34:00,
2013-08-25 17:35:00,71.6,54.6,0.00,South,180,14.1,14.1,55,0.00,,---,0.00,VWS V14.01,2013-08-25 22:35:00,
2013-08-25 17:36:00,71.6,54.6,0.00,SSW,202,10.7,14.1,55,0.00,,---,0.00,VWS V14.01,2013-08-25 22:36:00,
2013-08-25 17:37:00,71.6,54.6,0.00,SSW,202,13.4,14.1,55,0.00,,---,0.00,VWS V14.01,2013-08-25 22:37:00,
2013-08-25 17:38:00,71.6,54.6,0.00,South,180,6.5,14.1,55,0.00,,---,0.00,VWS V14.01,2013-08-25 22:38:00,
2013-08-25 17:39:00,71.6,54.6,0.00,SSW,202,8.7,14.1,55,0.00,,---,0.00,VWS V14.01,2013-08-25 22:39:00,
2013-08-25 17:40:00,71.6,54.6,0.00,SSW,202,7.8,14.1,55,0.00,,---,0.00,VWS V14.01,2013-08-25 22:40:00,
2013-08-25 17:41:00,71.6,54.6,0.00,SSW,202,8.1,14.1,55,0.00,,---,0.00,VWS V14.01,2013-08-25 22:41:00,
2013-08-25 17:42:00,71.4,54.4,0.00,SW,225,8.1,14.1,55,0.00,,---,0.00,VWS V14.01,2013-08-25 22:42:00,
2013-08-25 17:43:00,71.4,54.4,0.00,SSW,202,8.7,14.1,55,0.00,,---,0.00,VWS V14.01,2013-08-25 22:43:00,
2013-08-25 17:44:00,71.4,54.4,0.00,SSW,202,8.7,14.1,55,0.00,,---,0.00,VWS V14.01,2013-08-25 22:44:00,
2013-08-25 17:45:00,71.4,54.4,0.00,SW,225,8.1,14.1,55,0.00,,---,0.00,VWS V14.01,2013-08-25 22:45:00,
2013-08-25 17:46:00,71.4,54.4,0.00,SSW,202,11.0,15.2,55,0.00,,---,0.00,VWS V14.01,2013-08-25 22:46:00,
2013-08-25 17:47:00,71.4,54.4,0.00,SW,225,10.3,15.2,55,0.00,,---,0.00,VWS V14.01,2013-08-25 22:47:00,
2013-08-25 17:48:00,71.4,54.4,0.00,SW,225,7.4,15.2,55,0.00,,---,0.00,VWS V14.01,2013-08-25 22:48:00,
2013-08-25 17:49:00,71.4,54.4,0.00,SW,225,11.2,15.2,55,0.00,,---,0.00,VWS V14.01,2013-08-25 22:49:00,
2013-08-25 17:50:00,71.4,54.4,0.00,SW,225,8.1,15.2,55,0.00,,---,0.00,VWS V14.01,2013-08-25 22:50:00,
2013-08-25 17:51:00,71.4,54.4,0.00,South,180,12.8,15.2,55,0.00,,---,0.00,VWS V14.01,2013-08-25 22:51:00,
2013-08-25 17:52:00,71.4,54.4,0.00,SW,225,6.0,15.2,55,0.00,,---,0.00,VWS V14.01,2013-08-25 22:52:00,
2013-08-25 17:53:00,71.4,54.4,0.00,South,180,7.4,15.2,55,0.00,,---,0.00,VWS V14.01,2013-08-25 22:53:00,
2013-08-25 17:54:00,71.2,54.2,0.00,SW,225,8.7,15.2,55,0.00,,---,0.00,VWS V14.01,2013-08-25 22:54:00,
2013-08-25 17:55:00,71.2,54.2,0.00,SW,225,8.5,15.2,55,0.00,,---,0.00,VWS V14.01,2013-08-25 22:55:00,
2013-08-25 17:57:00,71.2,54.2,0.00,SW,225,7.4,15.2,55,0.00,,---,0.00,VWS V14.01,2013-08-25 22:57:00,
2013-08-25 17:58:00,71.2,54.7,0.00,SW,225,4.9,15.2,56,0.00,,---,0.00,VWS V14.01,2013-08-25 22:58:00,
2013-08-25 17:59:00,71.0,54.5,0.00,South,180,9.8,15.2,56,0.00,,---,0.00,VWS V14.01,2013-08-25 22:59:00,
2013-08-25 18:00:00,71.0,54.5,0.00,SW,225,7.8,7.8,56,0.00,,---,0.00,VWS V14.01,2013-08-25 23:00:00,
2013-08-25 18:01:00,71.0,54.5,0.00,SW,225,7.8,7.8,56,0.00,,---,0.00,VWS V14.01,2013-08-25 23:01:00,
2013-08-25 18:02:00,71.0,54.5,0.00,SW,225,8.5,12.3,56,0.00,,---,0.00,VWS V14.01,2013-08-25 23:02:00,
2013-08-25 18:03:00,71.0,54.5,0.00,WSW,248,5.8,12.3,56,0.00,,---,0.00,VWS V14.01,2013-08-25 23:03:00,
2013-08-25 18:04:00,71.0,54.5,0.00,SW,225,5.4,12.3,56,0.00,,---,0.00,VWS V14.01,2013-08-25 23:04:00,
2013-08-25 18:05:00,71.0,54.5,0.00,West,270,4.9,12.3,56,0.00,,---,0.00,VWS V14.01,2013-08-25 23:05:00,
2013-08-25 18:06:00,70.8,54.4,0.00,West,270,4.9,12.3,56,0.00,,---,0.00,VWS V14.01,2013-08-25 23:06:00,
2013-08-25 18:07:00,70.8,54.4,0.00,WSW,248,5.4,12.3,56,0.00,,---,0.00,VWS V14.01,2013-08-25 23:07:00,
2013-08-25 18:08:00,70.8,54.4,0.00,SW,225,6.3,12.3,56,0.00,,---,0.00,VWS V14.01,2013-08-25 23:08:00,
2013-08-25 18:09:00,70.8,54.9,0.00,SW,225,5.4,12.3,57,0.00,,---,0.00,VWS V14.01,2013-08-25 23:09:00,
2013-08-25 18:10:00,70.8,54.9,0.00,SW,225,7.6,12.3,57,0.00,,---,0.00,VWS V14.01,2013-08-25 23:10:00,
2013-08-25 18:11:00,70.8,54.9,0.00,SSW,202,5.6,12.3,57,0.00,,---,0.00,VWS V14.01,2013-08-25 23:11:00,
2013-08-25 18:12:00,70.8,54.9,0.00,SW,225,11.0,12.3,57,0.00,,---,0.00,VWS V14.01,2013-08-25 23:12:00,
2013-08-25 18:13:00,70.8,54.9,0.00,SW,225,8.7,12.3,57,0.00,,---,0.00,VWS V14.01,2013-08-25 23:13:00,
2013-08-25 18:14:00,70.7,54.7,0.00,SW,225,6.7,12.3,57,0.00,,---,0.00,VWS V14.01,2013-08-25 23:14:00,
2013-08-25 18:15:00,70.7,54.7,0.00,South,180,6.5,12.3,57,0.00,,---,0.00,VWS V14.01,2013-08-25 23:15:00,
2013-08-25 18:16:00,70.7,54.7,0.00,SW,225,3.8,6.5,57,0.00,,---,0.00,VWS V14.01,2013-08-25 23:16:00,
2013-08-25 18:17:00,70.7,54.7,0.00,SW,225,6.3,7.2,57,0.00,,---,0.00,VWS V14.01,2013-08-25 23:17:00,
2013-08-25 18:19:00,70.7,54.7,0.00,SW,225,6.5,10.3,57,0.00,,---,0.00,VWS V14.01,2013-08-25 23:19:00,
2013-08-25 18:20:00,70.7,54.7,0.00,SW,225,4.0,10.3,57,0.00,,---,0.00,VWS V14.01,2013-08-25 23:20:00,
2013-08-25 18:21:00,70.7,54.7,0.00,SW,225,5.4,10.3,57,0.00,,---,0.00,VWS V14.01,2013-08-25 23:21:00,
2013-08-25 18:22:00,70.7,54.7,0.00,SW,225,3.6,10.3,57,0.00,,---,0.00,VWS V14.01,2013-08-25 23:22:00,
2013-08-25 18:23:00,70.7,54.7,0.00,SW,225,3.6,10.3,57,0.00,,---,0.00,VWS V14.01,2013-08-25 23:23:00,
2013-08-25 18:24:00,70.5,54.5,0.00,SW,225,5.6,10.3,57,0.00,,---,0.00,VWS V14.01,2013-08-25 23:24:00,
2013-08-25 18:25:00,70.5,54.5,0.00,SW,225,3.8,10.3,57,0.00,,---,0.00,VWS V14.01,2013-08-25 23:25:00,
2013-08-25 18:26:00,70.5,54.5,0.00,SW,225,4.0,10.3,57,0.00,,---,0.00,VWS V14.01,2013-08-25 23:26:00,
2013-08-25 18:27:00,70.5,54.5,0.00,SW,225,4.0,10.3,57,0.00,,---,0.00,VWS V14.01,2013-08-25 23:27:00,
2013-08-25 18:28:00,70.3,54.8,0.00,West,270,3.1,10.3,58,0.00,,---,0.00,VWS V14.01,2013-08-25 23:28:00,
2013-08-25 18:29:00,70.3,54.8,0.00,SW,225,3.6,10.3,58,0.00,,---,0.00,VWS V14.01,2013-08-25 23:29:00,
2013-08-25 18:30:00,70.3,54.8,0.00,West,270,3.4,10.3,58,0.00,,---,0.00,VWS V14.01,2013-08-25 23:30:00,
2013-08-25 18:31:00,70.3,54.8,0.00,SW,225,3.6,5.6,58,0.00,,---,0.00,VWS V14.01,2013-08-25 23:31:00,
2013-08-25 18:33:00,70.3,54.8,0.00,SW,225,3.8,5.6,58,0.00,,---,0.00,VWS V14.01,2013-08-25 23:33:00,
2013-08-25 18:35:00,70.3,54.8,0.00,West,270,3.6,6.0,58,0.00,,---,0.00,VWS V14.01,2013-08-25 23:35:00,
2013-08-25 18:36:00,70.3,54.8,0.00,West,270,4.9,6.0,58,0.00,,---,0.00,VWS V14.01,2013-08-25 23:36:00,
2013-08-25 18:37:00,70.1,55.1,0.00,NW,315,3.6,6.0,59,0.00,,---,0.00,VWS V14.01,2013-08-25 23:37:00,
2013-08-25 18:38:00,70.1,54.7,0.00,NW,315,6.3,6.3,58,0.00,,---,0.00,VWS V14.01,2013-08-25 23:38:00,
2013-08-25 18:39:00,70.1,54.7,0.00,West,270,4.0,6.3,58,0.00,,---,0.00,VWS V14.01,2013-08-25 23:39:00,
2013-08-25 18:40:00,70.1,54.7,0.00,South,180,3.4,6.3,58,0.00,,---,0.00,VWS V14.01,2013-08-25 23:40:00,
2013-08-25 18:41:00,70.1,55.1,0.00,NW,315,5.4,6.3,59,0.00,,---,0.00,VWS V14.01,2013-08-25 23:41:00,
2013-08-25 18:42:00,70.1,55.1,0.00,West,270,6.3,6.5,59,0.00,,---,0.00,VWS V14.01,2013-08-25 23:42:00,
2013-08-25 18:43:00,70.3,55.3,0.00,West,270,4.7,6.5,59,0.00,,---,0.00,VWS V14.01,2013-08-25 23:43:00,
2013-08-25 18:44:00,70.3,54.8,0.00,NW,315,3.6,6.5,58,0.00,,---,0.00,VWS V14.01,2013-08-25 23:44:00,
2013-08-25 18:45:00,70.3,54.8,0.00,West,270,4.3,6.5,58,0.00,,---,0.00,VWS V14.01,2013-08-25 23:45:00,
2013-08-25 18:46:00,70.3,55.3,0.00,WSW,248,3.1,4.9,59,0.00,,---,0.00,VWS V14.01,2013-08-25 23:46:00,
2013-08-25 18:47:00,70.3,54.8,0.00,WSW,248,4.0,4.9,58,0.00,,---,0.00,VWS V14.01,2013-08-25 23:47:00,
2013-08-25 18:48:00,70.3,54.8,0.00,NW,315,4.0,8.5,58,0.00,,---,0.00,VWS V14.01,2013-08-25 23:48:00,
2013-08-25 18:49:00,70.3,54.8,0.00,SW,225,1.6,8.5,58,0.00,,---,0.00,VWS V14.01,2013-08-25 23:49:00,
2013-08-25 18:50:00,70.1,54.7,0.00,SW,225,3.1,8.5,58,0.00,,---,0.00,VWS V14.01,2013-08-25 23:50:00,
2013-08-25 18:51:00,70.1,55.1,0.00,West,270,2.9,8.5,59,0.00,,---,0.00,VWS V14.01,2013-08-25 23:51:00,
2013-08-25 18:52:00,70.1,55.1,0.00,SW,225,2.7,8.5,59,0.00,,---,0.00,VWS V14.01,2013-08-25 23:52:00,
2013-08-25 18:53:00,69.9,55.0,0.00,WNW,292,2.9,8.5,59,0.00,,---,0.00,VWS V14.01,2013-08-25 23:53:00,
2013-08-25 18:54:00,69.9,55.0,0.00,SW,225,2.9,8.5,59,0.00,,---,0.00,VWS V14.01,2013-08-25 23:54:00,
2013-08-25 18:55:00,69.9,55.0,0.00,SW,225,3.6,8.5,59,0.00,,---,0.00,VWS V14.01,2013-08-25 23:55:00,
2013-08-25 18:56:00,69.9,55.0,0.00,SW,225,3.1,8.5,59,0.00,,---,0.00,VWS V14.01,2013-08-25 23:56:00,
2013-08-25 18:57:00,69.8,54.8,0.00,SW,225,4.7,8.5,59,0.00,,---,0.00,VWS V14.01,2013-08-25 23:57:00,
2013-08-25 18:58:00,69.8,54.8,0.00,SW,225,8.5,8.5,59,0.00,,---,0.00,VWS V14.01,2013-08-25 23:58:00,
2013-08-25 18:59:00,69.8,54.8,0.00,SW,225,5.4,8.5,59,0.00,,---,0.00,VWS V14.01,2013-08-25 23:59:00,
2013-08-25 19:00:00,69.8,54.8,0.00,SW,225,8.1,8.5,59,0.00,,---,0.00,VWS V14.01,2013-08-26 00:00:00,
2013-08-25 19:01:00,69.8,54.8,0.00,SW,225,7.6,8.1,59,0.00,,---,0.00,VWS V14.01,2013-08-26 00:01:00,
2013-08-25 19:02:00,69.8,54.8,0.00,SW,225,6.5,8.1,59,0.00,,---,0.00,VWS V14.01,2013-08-26 00:02:00,
2013-08-25 19:03:00,69.8,54.8,0.00,South,180,5.6,8.1,59,0.00,,---,0.00,VWS V14.01,2013-08-26 00:03:00,
2013-08-25 19:04:00,69.8,54.8,0.00,SW,225,6.3,8.7,59,0.00,,---,0.00,VWS V14.01,2013-08-26 00:04:00,
2013-08-25 19:05:00,69.8,54.8,0.00,SSW,202,8.5,8.7,59,0.00,,---,0.00,VWS V14.01,2013-08-26 00:05:00,
2013-08-25 19:06:00,69.8,54.8,0.00,SW,225,7.2,10.1,59,0.00,,---,0.00,VWS V14.01,2013-08-26 00:06:00,
2013-08-25 19:07:00,69.8,54.8,0.00,SW,225,7.6,10.1,59,0.00,,---,0.00,VWS V14.01,2013-08-26 00:07:00,
2013-08-25 19:08:00,69.8,54.8,0.00,SW,225,7.8,10.1,59,0.00,,---,0.00,VWS V14.01,2013-08-26 00:08:00,
2013-08-25 19:09:00,69.8,54.8,0.00,South,180,6.0,10.1,59,0.00,,---,0.00,VWS V14.01,2013-08-26 00:09:00,
2013-08-25 19:10:00,69.8,54.8,0.00,SW,225,5.6,10.1,59,0.00,,---,0.00,VWS V14.01,2013-08-26 00:10:00,
2013-08-25 19:11:00,69.6,54.6,0.00,SW,225,7.8,10.1,59,0.00,,---,0.00,VWS V14.01,2013-08-26 00:11:00,
2013-08-25 19:12:00,69.6,54.6,0.00,SSW,202,7.6,10.1,59,0.00,,---,0.00,VWS V14.01,2013-08-26 00:12:00,
2013-08-25 19:13:00,69.6,54.6,0.00,SSW,202,5.4,10.1,59,0.00,,---,0.00,VWS V14.01,2013-08-26 00:13:00,
2013-08-25 19:14:00,69.6,54.6,0.00,South,180,6.5,10.1,59,0.00,,---,0.00,VWS V14.01,2013-08-26 00:14:00,
2013-08-25 19:15:00,69.6,54.6,0.00,SW,225,7.8,10.3,59,0.00,,---,0.00,VWS V14.01,2013-08-26 00:15:00,
2013-08-25 19:16:00,69.6,54.6,0.00,South,180,8.5,10.7,59,0.00,,---,0.00,VWS V14.01,2013-08-26 00:16:00,
2013-08-25 19:17:00,69.6,54.6,0.00,West,270,8.5,10.7,59,0.00,,---,0.00,VWS V14.01,2013-08-26 00:17:00,
2013-08-25 19:18:00,69.6,54.6,0.00,SSW,202,7.8,10.7,59,0.00,,---,0.00,VWS V14.01,2013-08-26 00:18:00,
2013-08-25 19:19:00,69.8,54.3,0.00,West,270,5.8,10.7,58,0.00,,---,0.00,VWS V14.01,2013-08-26 00:19:00,
2013-08-25 19:20:00,69.8,54.3,0.00,SW,225,10.7,10.7,58,0.00,,---,0.00,VWS V14.01,2013-08-26 00:20:00,
2013-08-25 19:21:00,69.9,54.5,0.00,SW,225,5.4,10.7,58,0.00,,---,0.00,VWS V14.01,2013-08-26 00:21:00,
2013-08-25 19:22:00,70.1,54.7,0.00,SW,225,8.1,12.1,58,0.00,,---,0.00,VWS V14.01,2013-08-26 00:22:00,
2013-08-25 19:23:00,70.3,54.8,0.00,NW,315,10.7,13.0,58,0.00,,---,0.00,VWS V14.01,2013-08-26 00:23:00,
2013-08-25 19:24:00,70.3,54.8,0.00,SSW,202,9.2,13.0,58,0.00,,---,0.00,VWS V14.01,2013-08-26 00:24:00,
2013-08-25 19:25:00,70.3,54.8,0.00,SW,225,5.6,13.0,58,0.00,,---,0.00,VWS V14.01,2013-08-26 00:25:00,
2013-08-25 19:26:00,70.5,54.5,0.00,SW,225,5.6,13.0,57,0.00,,---,0.00,VWS V14.01,2013-08-26 00:26:00,
2013-08-25 19:27:00,70.5,54.5,0.00,SW,225,7.8,13.0,57,0.00,,---,0.00,VWS V14.01,2013-08-26 00:27:00,
2013-08-25 19:28:00,70.7,54.7,0.00,SW,225,5.8,13.0,57,0.00,,---,0.00,VWS V14.01,2013-08-26 00:28:00,
2013-08-25 19:30:00,70.7,54.7,0.00,South,180,8.1,13.0,57,0.00,,---,0.00,VWS V14.01,2013-08-26 00:30:00,
2013-08-25 19:31:00,70.7,54.7,0.00,South,180,8.1,8.1,57,0.00,,---,0.00,VWS V14.01,2013-08-26 00:31:00,
2013-08-25 19:32:00,71.0,54.5,0.00,SW,225,7.8,9.8,56,0.00,,---,0.00,VWS V14.01,2013-08-26 00:32:00,
2013-08-25 19:33:00,71.2,54.2,0.00,SW,225,7.4,9.8,55,0.00,,---,0.00,VWS V14.01,2013-08-26 00:33:00,
2013-08-25 19:34:00,71.2,54.2,0.00,SW,225,10.3,11.0,55,0.00,,---,0.00,VWS V14.01,2013-08-26 00:34:00,
2013-08-25 19:35:00,71.4,54.4,0.00,SW,225,6.9,11.0,55,0.00,,---,0.00,VWS V14.01,2013-08-26 00:35:00,
2013-08-25 19:36:00,71.4,54.4,0.00,SW,225,8.7,11.0,55,0.00,,---,0.00,VWS V14.01,2013-08-26 00:36:00,
2013-08-25 19:37:00,71.4,54.4,0.00,SW,225,8.7,11.0,55,0.00,,---,0.00,VWS V14.01,2013-08-26 00:37:00,
2013-08-25 19:38:00,71.6,54.6,0.00,NW,315,4.0,11.0,55,0.00,,---,0.00,VWS V14.01,2013-08-26 00:38:00,
2013-08-25 19:39:00,71.6,54.6,0.00,SW,225,4.9,11.0,55,0.00,,---,0.00,VWS V14.01,2013-08-26 00:39:00,
2013-08-25 19:40:00,71.7,54.7,0.00,West,270,6.0,11.0,55,0.00,,---,0.00,VWS V14.01,2013-08-26 00:40:00,
2013-08-25 19:41:00,71.7,54.7,0.00,SW,225,3.6,11.0,55,0.00,,---,0.00,VWS V14.01,2013-08-26 00:41:00,
2013-08-25 19:42:00,71.9,54.9,0.00,SW,225,5.6,11.0,55,0.00,,---,0.00,VWS V14.01,2013-08-26 00:42:00,
2013-08-25 19:43:00,71.9,54.4,0.00,West,270,4.0,11.0,54,0.00,,---,0.00,VWS V14.01,2013-08-26 00:43:00,
2013-08-25 19:44:00,72.1,54.6,0.00,WSW,248,7.8,11.0,54,0.00,,---,0.00,VWS V14.01,2013-08-26 00:44:00,
2013-08-25 19:45:00,72.3,54.7,0.00,West,270,5.8,11.0,54,0.00,,---,0.00,VWS V14.01,2013-08-26 00:45:00,
2013-08-25 19:47:00,72.3,54.7,0.00,WSW,248,6.5,6.5,54,0.00,,---,0.00,VWS V14.01,2013-08-26 00:47:00,
2013-08-25 19:48:00,72.5,54.9,0.00,SW,225,5.4,6.5,54,0.00,,---,0.00,VWS V14.01,2013-08-26 00:48:00,
2013-08-25 19:49:00,72.5,54.4,0.00,SW,225,5.4,7.2,53,0.00,,---,0.00,VWS V14.01,2013-08-26 00:49:00,
2013-08-25 19:50:00,72.6,54.5,0.00,SW,225,7.4,7.4,53,0.00,,---,0.00,VWS V14.01,2013-08-26 00:50:00,
2013-08-25 19:51:00,72.6,54.5,0.00,SW,225,4.3,7.6,53,0.00,,---,0.00,VWS V14.01,2013-08-26 00:51:00,
2013-08-25 19:53:00,72.6,54.5,0.00,West,270,7.4,7.6,53,0.00,,---,0.00,VWS V14.01,2013-08-26 00:53:00,
2013-08-25 19:54:00,73.0,54.4,0.00,SW,225,9.8,9.8,52,0.00,,---,0.00,VWS V14.01,2013-08-26 00:54:00,
2013-08-25 19:55:00,73.0,54.4,0.00,SW,225,5.6,9.8,52,0.00,,---,0.00,VWS V14.01,2013-08-26 00:55:00,
2013-08-25 19:56:00,73.0,54.4,0.00,SW,225,6.3,9.8,52,0.00,,---,0.00,VWS V14.01,2013-08-26 00:56:00,
2013-08-25 19:57:00,73.0,54.4,0.00,SW,225,8.5,10.5,52,0.00,,---,0.00,VWS V14.01,2013-08-26 00:57:00,
2013-08-25 19:58:00,73.0,54.4,0.00,SW,225,8.5,10.5,52,0.00,,---,0.00,VWS V14.01,2013-08-26 00:58:00,
2013-08-25 19:59:00,73.2,54.5,0.00,SW,225,7.2,10.5,52,0.00,,---,0.00,VWS V14.01,2013-08-26 00:59:00,
2013-08-25 20:00:00,73.2,54.5,0.00,SW,225,5.6,10.5,52,0.00,,---,0.00,VWS V14.01,2013-08-26 01:00:00,
2013-08-25 20:01:00,73.2,54.5,0.00,SW,225,8.1,10.1,52,0.00,,---,0.00,VWS V14.01,2013-08-26 01:01:00,
2013-08-25 20:02:00,73.4,54.7,0.00,SW,225,12.3,12.3,52,0.00,,---,0.00,VWS V14.01,2013-08-26 01:02:00,
2013-08-25 20:04:00,73.4,54.7,0.00,SW,225,6.3,13.2,52,0.00,,---,0.00,VWS V14.01,2013-08-26 01:04:00,
2013-08-25 20:05:00,73.4,54.7,0.00,SSW,202,9.8,13.2,52,0.00,,---,0.00,VWS V14.01,2013-08-26 01:05:00,
2013-08-25 20:06:00,73.4,54.7,0.00,SW,225,7.8,13.2,52,0.00,,---,0.00,VWS V14.01,2013-08-26 01:06:00,
2013-08-25 20:07:00,73.5,54.3,0.00,SW,225,5.8,13.2,51,0.00,,---,0.00,VWS V14.01,2013-08-26 01:07:00,
2013-08-25 20:08:00,73.7,54.5,0.00,SW,225,7.4,13.2,51,0.00,,---,0.00,VWS V14.01,2013-08-26 01:08:00,
2013-08-25 20:09:00,73.9,54.7,0.00,SW,225,7.2,13.2,51,0.00,,---,0.00,VWS V14.01,2013-08-26 01:09:00,
2013-08-25 20:10:00,73.9,54.7,0.00,SW,225,5.6,13.2,51,0.00,,---,0.00,VWS V14.01,2013-08-26 01:10:00,
2013-08-25 20:11:00,73.9,54.7,0.00,SW,225,6.3,13.2,51,0.00,,---,0.00,VWS V14.01,2013-08-26 01:11:00,
2013-08-25 20:12:00,73.9,54.7,0.00,SW,225,7.2,13.2,51,0.00,,---,0.00,VWS V14.01,2013-08-26 01:12:00,
2013-08-25 20:13:00,74.3,54.4,0.00,SW,225,7.2,13.2,50,0.00,,---,0.00,VWS V14.01,2013-08-26 01:13:00,
2013-08-25 20:14:00,74.4,54.6,0.00,West,270,3.1,13.2,50,0.00,,---,0.00,VWS V14.01,2013-08-26 01:14:00,
2013-08-25 20:15:00,74.6,54.8,0.00,SSW,202,3.8,13.2,50,0.00,,---,0.00,VWS V14.01,2013-08-26 01:15:00,
2013-08-25 20:17:00,74.6,54.8,0.00,WSW,248,4.9,5.8,50,0.00,,---,0.00,VWS V14.01,2013-08-26 01:17:00,
2013-08-25 20:18:00,75.0,54.5,0.00,SW,225,3.8,6.3,49,0.00,,---,0.00,VWS V14.01,2013-08-26 01:18:00,
2013-08-25 20:19:00,75.0,54.5,0.00,West,270,4.3,6.3,49,0.00,,---,0.00,VWS V14.01,2013-08-26 01:19:00,
2013-08-25 20:20:00,75.2,54.7,0.00,NW,315,3.8,6.3,49,0.00,,---,0.00,VWS V14.01,2013-08-26 01:20:00,
2013-08-25 20:22:00,75.3,54.3,0.00,NW,315,3.8,6.3,48,0.00,,---,0.00,VWS V14.01,2013-08-26 01:22:00,
2013-08-25 20:23:00,75.5,54.5,0.00,SW,225,5.6,6.3,48,0.00,,---,0.00,VWS V14.01,2013-08-26 01:23:00,
2013-08-25 20:24:00,75.7,54.6,0.00,SW,225,3.6,6.3,48,0.00,,---,0.00,VWS V14.01,2013-08-26 01:24:00,
2013-08-25 20:25:00,75.7,54.6,0.00,SSW,202,4.0,6.3,48,0.00,,---,0.00,VWS V14.01,2013-08-26 01:25:00,
2013-08-25 20:26:00,75.9,54.8,0.00,SW,225,4.9,6.3,48,0.00,,---,0.00,VWS V14.01,2013-08-26 01:26:00,
2013-08-25 20:27:00,76.1,55.0,0.00,SW,225,2.0,6.3,48,0.00,,---,0.00,VWS V14.01,2013-08-26 01:27:00,
2013-08-25 20:28:00,76.2,55.1,0.00,NW,315,2.2,6.3,48,0.00,,---,0.00,VWS V14.01,2013-08-26 01:28:00,
2013-08-25 20:29:00,76.4,54.7,0.00,SW,225,7.4,7.4,47,0.00,,---,0.00,VWS V14.01,2013-08-26 01:29:00,
2013-08-25 20:30:00,76.8,54.5,0.00,SSW,202,4.3,7.4,46,0.00,,---,0.00,VWS V14.01,2013-08-26 01:30:00,
2013-08-25 20:31:00,76.8,54.5,0.00,SW,225,4.3,5.6,46,0.00,,---,0.00,VWS V14.01,2013-08-26 01:31:00,
2013-08-25 20:32:00,76.8,54.5,0.00,SW,225,3.6,5.6,46,0.00,,---,0.00,VWS V14.01,2013-08-26 01:32:00,
2013-08-25 20:33:00,77.1,54.8,0.00,SW,225,4.3,5.6,46,0.00,,---,0.00,VWS V14.01,2013-08-26 01:33:00,
2013-08-25 20:34:00,77.1,54.8,0.00,SW,225,4.3,5.6,46,0.00,,---,0.00,VWS V14.01,2013-08-26 01:34:00,
2013-08-25 20:35:00,77.3,55.0,0.00,West,270,3.1,5.6,46,0.00,,---,0.00,VWS V14.01,2013-08-26 01:35:00,
2013-08-25 20:36:00,77.5,55.1,0.00,West,270,4.9,5.6,46,0.00,,---,0.00,VWS V14.01,2013-08-26 01:36:00,
2013-08-25 20:37:00,77.5,54.5,0.00,SW,225,5.6,5.6,45,0.00,,---,0.00,VWS V14.01,2013-08-26 01:37:00,
2013-08-25 20:38:00,77.5,54.5,0.00,SW,225,4.9,5.6,45,0.00,,---,0.00,VWS V14.01,2013-08-26 01:38:00,
2013-08-25 20:39:00,77.7,54.7,0.00,South,180,4.3,6.5,45,0.00,,---,0.00,VWS V14.01,2013-08-26 01:39:00,
2013-08-25 20:40:00,77.7,54.7,0.00,SW,225,3.6,6.5,45,0.00,,---,0.00,VWS V14.01,2013-08-26 01:40:00,
2013-08-25 20:42:00,77.9,54.8,0.00,SW,225,3.8,6.5,45,0.00,,---,0.00,VWS V14.01,2013-08-26 01:42:00,
2013-08-25 20:43:00,78.4,55.3,0.00,SW,225,3.4,6.5,45,0.00,,---,0.00,VWS V14.01,2013-08-26 01:43:00,
2013-08-25 20:44:00,78.6,55.5,0.00,SW,225,4.5,6.5,45,0.00,,---,0.00,VWS V14.01,2013-08-26 01:44:00,
2013-08-25 20:45:00,78.8,55.7,0.00,West,270,4.3,6.5,45,0.00,,---,0.00,VWS V14.01,2013-08-26 01:45:00,
2013-08-25 20:46:00,78.9,55.2,0.00,SW,225,3.6,5.4,44,0.00,,---,0.00,VWS V14.01,2013-08-26 01:46:00,
2013-08-25 20:47:00,79.1,55.4,0.00,SW,225,4.3,5.4,44,0.00,,---,0.00,VWS V14.01,2013-08-26 01:47:00,
2013-08-25 20:48:00,79.1,55.4,0.00,SW,225,3.1,5.4,44,0.00,,---,0.00,VWS V14.01,2013-08-26 01:48:00,
2013-08-25 20:49:00,79.1,55.4,0.00,NW,315,5.8,5.8,44,0.00,,---,0.00,VWS V14.01,2013-08-26 01:49:00,
2013-08-25 20:50:00,79.1,55.4,0.00,SW,225,6.0,6.0,44,0.00,,---,0.00,VWS V14.01,2013-08-26 01:50:00,
2013-08-25 20:51:00,79.1,55.4,0.00,SW,225,6.3,6.3,44,0.00,,---,0.00,VWS V14.01,2013-08-26 01:51:00,
2013-08-25 20:52:00,79.5,55.0,0.00,SW,225,3.8,6.3,43,0.00,,---,0.00,VWS V14.01,2013-08-26 01:52:00,
2013-08-25 20:53:00,79.7,55.2,0.00,SW,225,2.9,6.3,43,0.00,,---,0.00,VWS V14.01,2013-08-26 01:53:00,
2013-08-25 20:54:00,79.8,55.4,0.00,SW,225,2.7,6.3,43,0.00,,---,0.00,VWS V14.01,2013-08-26 01:54:00,
2013-08-25 20:55:00,80.0,55.5,0.00,SW,225,4.5,6.3,43,0.00,,---,0.00,VWS V14.01,2013-08-26 01:55:00,
2013-08-25 20:56:00,80.0,55.5,0.00,SW,225,3.6,6.3,43,0.00,,---,0.00,VWS V14.01,2013-08-26 01:56:00,
2013-08-25 20:57:00,80.2,55.7,0.00,SW,225,3.1,6.3,43,0.00,,---,0.00,VWS V14.01,2013-08-26 01:57:00,
2013-08-25 20:58:00,80.2,55.0,0.00,WSW,248,5.4,6.3,42,0.00,,---,0.00,VWS V14.01,2013-08-26 01:58:00,
2013-08-25 20:59:00,80.2,55.0,0.00,WSW,248,5.4,6.3,42,0.00,,---,0.00,VWS V14.01,2013-08-26 01:59:00,
2013-08-25 21:00:00,80.4,55.2,0.00,SW,225,7.4,7.4,42,0.00,,---,0.00,VWS V14.01,2013-08-26 02:00:00,
2013-08-25 21:01:00,80.4,55.2,0.00,SW,225,7.4,7.4,42,0.00,,---,0.00,VWS V14.01,2013-08-26 02:01:00,
2013-08-25 21:02:00,80.2,55.0,0.00,SW,225,5.4,8.7,42,0.00,,---,0.00,VWS V14.01,2013-08-26 02:02:00,
2013-08-25 21:03:00,80.2,55.0,0.00,SW,225,9.0,9.0,42,0.00,,---,0.00,VWS V14.01,2013-08-26 02:03:00,
2013-08-25 21:04:00,80.2,55.0,0.00,South,180,6.3,9.0,42,0.00,,---,0.00,VWS V14.01,2013-08-26 02:04:00,
2013-08-25 21:05:00,80.4,55.2,0.00,SW,225,8.7,9.0,42,0.00,,---,0.00,VWS V14.01,2013-08-26 02:05:00,
2013-08-25 21:06:00,80.4,55.2,0.00,SW,225,8.7,9.0,42,0.00,,---,0.00,VWS V14.01,2013-08-26 02:06:00,
2013-08-25 21:07:00,80.4,55.2,0.00,SW,225,5.6,9.0,42,0.00,,---,0.00,VWS V14.01,2013-08-26 02:07:00,
2013-08-25 21:08:00,80.4,55.2,0.00,SW,225,8.5,10.3,42,0.00,,---,0.00,VWS V14.01,2013-08-26 02:08:00,
2013-08-25 21:09:00,80.2,55.0,0.00,SW,225,9.8,10.3,42,0.00,,---,0.00,VWS V14.01,2013-08-26 02:09:00,
2013-08-25 21:10:00,80.2,55.0,0.00,WSW,248,11.9,11.9,42,0.00,,---,0.00,VWS V14.01,2013-08-26 02:10:00,
2013-08-25 21:11:00,80.2,54.4,0.00,SW,225,12.8,12.8,41,0.00,,---,0.00,VWS V14.01,2013-08-26 02:11:00,
2013-08-25 21:12:00,80.0,54.9,0.00,SW,225,8.5,12.8,42,0.00,,---,0.00,VWS V14.01,2013-08-26 02:12:00,
2013-08-25 21:13:00,80.0,54.9,0.00,SW,225,8.5,12.8,42,0.00,,---,0.00,VWS V14.01,2013-08-26 02:13:00,
2013-08-25 21:14:00,80.0,54.9,0.00,SW,225,8.5,12.8,42,0.00,,---,0.00,VWS V14.01,2013-08-26 02:14:00,
2013-08-25 21:15:00,80.0,54.9,0.00,SW,225,7.8,12.8,42,0.00,,---,0.00,VWS V14.01,2013-08-26 02:15:00,
2013-08-25 21:16:00,80.2,55.0,0.00,SW,225,8.1,10.3,42,0.00,,---,0.00,VWS V14.01,2013-08-26 02:16:00,
2013-08-25 21:17:00,80.2,54.4,0.00,SW,225,6.9,10.5,41,0.00,,---,0.00,VWS V14.01,2013-08-26 02:17:00,
2013-08-25 21:18:00,80.4,54.5,0.00,SW,225,8.1,10.5,41,0.00,,---,0.00,VWS V14.01,2013-08-26 02:18:00,
2013-08-25 21:19:00,80.4,54.5,0.00,SSW,202,8.7,12.3,41,0.00,,---,0.00,VWS V14.01,2013-08-26 02:19:00,
2013-08-25 21:20:00,80.4,54.5,0.00,SW,225,8.1,12.3,41,0.00,,---,0.00,VWS V14.01,2013-08-26 02:20:00,
2013-08-25 21:21:00,80.7,54.9,0.00,SW,225,8.7,12.3,41,0.00,,---,0.00,VWS V14.01,2013-08-26 02:21:00,
2013-08-25 21:22:00,80.9,55.0,0.00,SW,225,7.6,12.3,41,0.00,,---,0.00,VWS V14.01,2013-08-26 02:22:00,
2013-08-25 21:23:00,81.3,55.4,0.00,South,180,6.3,12.3,41,0.00,,---,0.00,VWS V14.01,2013-08-26 02:23:00,
2013-08-25 21:24:00,81.5,55.5,0.00,SW,225,7.4,12.3,41,0.00,,---,0.00,VWS V14.01,2013-08-26 02:24:00,
2013-08-25 21:25:00,81.6,55.7,0.00,SW,225,10.3,12.3,41,0.00,,---,0.00,VWS V14.01,2013-08-26 02:25:00,
2013-08-25 21:26:00,81.8,55.8,0.00,SW,225,4.0,12.3,41,0.00,,---,0.00,VWS V14.01,2013-08-26 02:26:00,
2013-08-25 21:27:00,81.8,55.8,0.00,SW,225,10.7,12.3,41,0.00,,---,0.00,VWS V14.01,2013-08-26 02:27:00,
2013-08-25 21:28:00,81.8,55.8,0.00,SW,225,7.4,12.3,41,0.00,,---,0.00,VWS V14.01,2013-08-26 02:28:00,
2013-08-25 21:29:00,82.0,55.3,0.00,South,180,5.6,12.3,40,0.00,,---,0.00,VWS V14.01,2013-08-26 02:29:00,
2013-08-25 21:30:00,82.5,55.8,0.00,SW,225,4.0,12.3,40,0.00,,---,0.00,VWS V14.01,2013-08-26 02:30:00,
2013-08-25 21:31:00,82.7,56.0,0.00,SW,225,4.0,5.4,40,0.00,,---,0.00,VWS V14.01,2013-08-26 02:31:00,
2013-08-25 21:32:00,82.7,56.0,0.00,SW,225,5.6,7.6,40,0.00,,---,0.00,VWS V14.01,2013-08-26 02:32:00,
2013-08-25 21:33:00,82.9,56.1,0.00,SW,225,6.5,7.6,40,0.00,,---,0.00,VWS V14.01,2013-08-26 02:33:00,
2013-08-25 21:34:00,83.1,56.3,0.00,NW,315,6.3,7.6,40,0.00,,---,0.00,VWS V14.01,2013-08-26 02:34:00,
2013-08-25 21:35:00,83.1,56.3,0.00,South,180,4.3,7.6,40,0.00,,---,0.00,VWS V14.01,2013-08-26 02:35:00,
2013-08-25 21:36:00,83.3,56.5,0.00,SW,225,3.4,7.6,40,0.00,,---,0.00,VWS V14.01,2013-08-26 02:36:00,
2013-08-25 21:37:00,83.4,56.6,0.00,West,270,6.3,7.6,40,0.00,,---,0.00,VWS V14.01,2013-08-26 02:37:00,
2013-08-25 21:38:00,83.4,56.6,0.00,SW,225,4.9,7.6,40,0.00,,---,0.00,VWS V14.01,2013-08-26 02:38:00,
2013-08-25 21:39:00,83.6,56.8,0.00,SW,225,4.3,7.6,40,0.00,,---,0.00,VWS V14.01,2013-08-26 02:39:00,
2013-08-25 21:40:00,84.0,56.4,0.00,SW,225,3.1,7.6,39,0.00,,---,0.00,VWS V14.01,2013-08-26 02:40:00,
2013-08-25 21:41:00,84.2,56.5,0.00,SW,225,3.8,7.6,39,0.00,,---,0.00,VWS V14.01,2013-08-26 02:41:00,
2013-08-25 21:42:00,84.2,56.5,0.00,West,270,7.8,7.8,39,0.00,,---,0.00,VWS V14.01,2013-08-26 02:42:00,
2013-08-25 21:44:00,84.3,56.7,0.00,West,270,4.9,7.8,39,0.00,,---,0.00,VWS V14.01,2013-08-26 02:44:00,
2013-08-25 21:45:00,84.7,57.0,0.00,SW,225,4.9,7.8,39,0.00,,---,0.00,VWS V14.01,2013-08-26 02:45:00,
2013-08-25 21:46:00,84.9,56.5,0.00,West,270,4.5,5.8,38,0.00,,---,0.00,VWS V14.01,2013-08-26 02:46:00,
2013-08-25 21:47:00,84.9,56.5,0.00,WNW,292,2.7,6.5,38,0.00,,---,0.00,VWS V14.01,2013-08-26 02:47:00,
2013-08-25 21:48:00,85.2,56.8,0.00,West,270,3.4,6.5,38,0.00,,---,0.00,VWS V14.01,2013-08-26 02:48:00,
2013-08-25 21:49:00,85.4,57.0,0.00,SW,225,6.5,6.5,38,0.00,,---,0.00,VWS V14.01,2013-08-26 02:49:00,
2013-08-25 21:50:00,85.6,57.1,0.00,SW,225,3.6,6.5,38,0.00,,---,0.00,VWS V14.01,2013-08-26 02:50:00,
2013-08-25 21:51:00,85.6,57.1,0.00,NW,315,2.7,6.5,38,0.00,,---,0.00,VWS V14.01,2013-08-26 02:51:00,
2013-08-25 21:52:00,86.0,56.7,0.00,WSW,248,3.8,6.5,37,0.00,,---,0.00,VWS V14.01,2013-08-26 02:52:00,
2013-08-25 21:53:00,86.1,56.8,0.00,SW,225,6.0,6.9,37,0.00,,---,0.00,VWS V14.01,2013-08-26 02:53:00,
2013-08-25 21:54:00,86.1,56.8,0.00,West,270,7.2,7.2,37,0.00,,---,0.00,VWS V14.01,2013-08-26 02:54:00,
2013-08-25 21:55:00,86.1,56.8,0.00,SW,225,7.4,7.4,37,0.00,,---,0.00,VWS V14.01,2013-08-26 02:55:00,
2013-08-25 21:57:00,86.1,56.8,0.00,SW,225,7.4,7.4,37,0.00,,---,0.00,VWS V14.01,2013-08-26 02:57:00,
2013-08-25 21:58:00,86.5,57.2,0.00,SW,225,1.6,7.4,37,0.00,,---,0.00,VWS V14.01,2013-08-26 02:58:00,
2013-08-25 21:59:00,86.7,56.6,0.00,SW,225,6.0,7.6,36,0.00,,---,0.00,VWS V14.01,2013-08-26 02:59:00,
2013-08-25 22:00:00,86.7,56.6,0.00,South,180,5.6,7.6,36,0.00,,---,0.00,VWS V14.01,2013-08-26 03:00:00,
2013-08-25 22:01:00,86.9,56.7,0.00,West,270,7.6,8.5,36,0.00,,---,0.00,VWS V14.01,2013-08-26 03:01:00,
2013-08-25 22:02:00,86.7,56.6,0.00,SW,225,6.3,8.7,36,0.00,,---,0.00,VWS V14.01,2013-08-26 03:02:00,
2013-08-25 22:03:00,86.9,55.9,0.00,SW,225,5.6,8.7,35,0.00,,---,0.00,VWS V14.01,2013-08-26 03:03:00,
2013-08-25 22:04:00,87.0,56.9,0.00,NW,315,4.0,8.7,36,0.00,,---,0.00,VWS V14.01,2013-08-26 03:04:00,
2013-08-25 22:05:00,87.0,56.1,0.00,SW,225,6.3,8.7,35,0.00,,---,0.00,VWS V14.01,2013-08-26 03:05:00,
2013-08-25 22:06:00,87.0,56.1,0.00,SW,225,5.4,8.7,35,0.00,,---,0.00,VWS V14.01,2013-08-26 03:06:00,
2013-08-25 22:07:00,87.2,56.3,0.00,SW,225,4.7,8.7,35,0.00,,---,0.00,VWS V14.01,2013-08-26 03:07:00,
2013-08-25 22:08:00,87.6,55.8,0.00,SSE,158,5.4,8.7,34,0.00,,---,0.00,VWS V14.01,2013-08-26 03:08:00,
2013-08-25 22:09:00,87.8,55.9,0.00,WSW,248,3.8,8.7,34,0.00,,---,0.00,VWS V14.01,2013-08-26 03:09:00,
2013-08-25 22:10:00,87.9,56.1,0.00,WSW,248,5.8,8.7,34,0.00,,---,0.00,VWS V14.01,2013-08-26 03:10:00,
2013-08-25 22:11:00,88.1,56.2,0.00,West,270,4.9,8.7,34,0.00,,---,0.00,VWS V14.01,2013-08-26 03:11:00,
2013-08-25 22:12:00,88.1,56.2,0.00,West,270,5.6,8.7,34,0.00,,---,0.00,VWS V14.01,2013-08-26 03:12:00,
2013-08-25 22:13:00,88.1,56.2,0.00,West,270,7.4,8.7,34,0.00,,---,0.00,VWS V14.01,2013-08-26 03:13:00,
2013-08-25 22:14:00,88.1,56.2,0.00,South,180,5.6,8.7,34,0.00,,---,0.00,VWS V14.01,2013-08-26 03:14:00,
2013-08-25 22:15:00,88.1,56.2,0.00,SW,225,6.0,8.7,34,0.00,,---,0.00,VWS V14.01,2013-08-26 03:15:00,
2013-08-25 22:16:00,88.5,55.7,0.00,West,270,4.0,6.0,33,0.00,,---,0.00,VWS V14.01,2013-08-26 03:16:00,
2013-08-25 22:17:00,88.5,55.7,0.00,South,180,6.7,6.7,33,0.00,,---,0.00,VWS V14.01,2013-08-26 03:17:00,
2013-08-25 22:18:00,88.5,55.7,0.00,NW,315,8.5,8.5,33,0.00,,---,0.00,VWS V14.01,2013-08-26 03:18:00,
2013-08-25 22:19:00,88.5,55.7,0.00,West,270,7.8,8.5,33,0.00,,---,0.00,VWS V14.01,2013-08-26 03:19:00,
2013-08-25 22:20:00,87.9,55.3,0.00,SW,225,3.8,8.5,33,0.00,,---,0.00,VWS V14.01,2013-08-26 03:20:00,
2013-08-25 22:21:00,88.1,55.4,0.00,SW,225,3.1,8.5,33,0.00,,---,0.00,VWS V14.01,2013-08-26 03:21:00,
2013-08-25 22:22:00,88.3,55.6,0.00,West,270,4.0,8.5,33,0.00,,---,0.00,VWS V14.01,2013-08-26 03:22:00,
2013-08-25 22:23:00,88.5,55.7,0.00,West,270,3.1,8.5,33,0.00,,---,0.00,VWS V14.01,2013-08-26 03:23:00,
2013-08-25 22:24:00,88.7,55.9,0.00,SW,225,4.3,8.5,33,0.00,,---,0.00,VWS V14.01,2013-08-26 03:24:00,
2013-08-25 22:25:00,88.8,56.0,0.00,SW,225,5.4,8.5,33,0.00,,---,0.00,VWS V14.01,2013-08-26 03:25:00,
2013-08-25 22:26:00,88.8,56.0,0.00,West,270,4.7,8.5,33,0.00,,---,0.00,VWS V14.01,2013-08-26 03:26:00,
2013-08-25 22:27:00,89.2,56.4,0.00,South,180,2.7,8.5,33,0.00,,---,0.00,VWS V14.01,2013-08-26 03:27:00,
2013-08-25 22:28:00,89.2,56.4,0.00,West,270,6.0,8.5,33,0.00,,---,0.00,VWS V14.01,2013-08-26 03:28:00,
2013-08-25 22:29:00,89.4,56.5,0.00,SW,225,5.6,8.5,33,0.00,,---,0.00,VWS V14.01,2013-08-26 03:29:00,
2013-08-25 22:30:00,89.6,56.7,0.00,West,270,2.9,8.5,33,0.00,,---,0.00,VWS V14.01,2013-08-26 03:30:00,
2013-08-25 22:31:00,89.7,56.8,0.00,West,270,6.0,6.0,33,0.00,,---,0.00,VWS V14.01,2013-08-26 03:31:00,
2013-08-25 22:32:00,90.3,57.3,0.00,WNW,292,1.6,6.0,33,0.00,,---,0.00,VWS V14.01,2013-08-26 03:32:00,
2013-08-25 22:33:00,90.6,56.8,0.00,West,270,3.4,6.0,32,0.00,,---,0.00,VWS V14.01,2013-08-26 03:33:00,
2013-08-25 22:34:00,90.8,56.9,0.00,West,270,4.9,6.0,32,0.00,,---,0.00,VWS V14.01,2013-08-26 03:34:00,
2013-08-25 22:35:00,90.8,56.9,0.00,SW,225,4.3,6.0,32,0.00,,---,0.00,VWS V14.01,2013-08-26 03:35:00,
2013-08-25 22:36:00,91.0,57.1,0.00,NW,315,5.8,6.0,32,0.00,,---,0.00,VWS V14.01,2013-08-26 03:36:00,
2013-08-25 22:37:00,91.0,57.1,0.00,West,270,4.9,6.0,32,0.00,,---,0.00,VWS V14.01,2013-08-26 03:37:00,
2013-08-25 22:38:00,90.8,56.9,0.00,SW,225,5.8,10.3,32,0.00,,---,0.00,VWS V14.01,2013-08-26 03:38:00,
2013-08-25 22:39:00,91.0,56.2,0.00,West,270,3.1,10.3,31,0.00,,---,0.00,VWS V14.01,2013-08-26 03:39:00,
2013-08-25 22:40:00,91.2,56.3,0.00,South,180,7.8,10.3,31,0.00,,---,0.00,VWS V14.01,2013-08-26 03:40:00,
2013-08-25 22:41:00,91.4,56.5,0.00,North,0,6.3,10.3,31,0.00,,---,0.00,VWS V14.01,2013-08-26 03:41:00,
2013-08-25 22:42:00,91.4,56.5,0.00,WSW,248,5.8,10.3,31,0.00,,---,0.00,VWS V14.01,2013-08-26 03:42:00,
2013-08-25 22:43:00,91.4,56.5,0.00,SW,225,5.6,10.3,31,0.00,,---,0.00,VWS V14.01,2013-08-26 03:43:00,
2013-08-25 22:44:00,91.5,55.8,0.00,SW,225,5.8,10.3,30,0.00,,---,0.00,VWS V14.01,2013-08-26 03:44:00,
2013-08-25 22:45:00,91.7,55.9,0.00,SW,225,7.2,10.3,30,0.00,,---,0.00,VWS V14.01,2013-08-26 03:45:00,
2013-08-25 22:46:00,91.9,56.1,0.00,SW,225,5.4,7.8,30,0.00,,---,0.00,VWS V14.01,2013-08-26 03:46:00,
2013-08-25 22:47:00,91.9,56.1,0.00,SW,225,4.0,7.8,30,0.00,,---,0.00,VWS V14.01,2013-08-26 03:47:00,
2013-08-25 22:48:00,92.1,56.2,0.00,SW,225,7.6,7.8,30,0.00,,---,0.00,VWS V14.01,2013-08-26 03:48:00,
2013-08-25 22:49:00,92.3,56.4,0.00,WSW,248,6.5,7.8,30,0.00,,---,0.00,VWS V14.01,2013-08-26 03:49:00,
2013-08-25 22:50:00,92.4,56.5,0.00,NW,315,7.4,7.8,30,0.00,,---,0.00,VWS V14.01,2013-08-26 03:50:00,
2013-08-25 22:51:00,92.4,56.5,0.00,NW,315,6.0,7.8,30,0.00,,---,0.00,VWS V14.01,2013-08-26 03:51:00,
2013-08-25 22:52:00,92.1,56.2,0.00,NW,315,6.3,7.8,30,0.00,,---,0.00,VWS V14.01,2013-08-26 03:52:00,
2013-08-25 22:53:00,91.9,56.1,0.00,WNW,292,5.8,7.8,30,0.00,,---,0.00,VWS V14.01,2013-08-26 03:53:00,
2013-08-25 22:54:00,92.3,56.4,0.00,West,270,5.4,7.8,30,0.00,,---,0.00,VWS V14.01,2013-08-26 03:54:00,
2013-08-25 22:55:00,92.3,56.4,0.00,NW,315,3.8,7.8,30,0.00,,---,0.00,VWS V14.01,2013-08-26 03:55:00,
2013-08-25 22:56:00,92.6,56.7,0.00,SW,225,6.5,7.8,30,0.00,,---,0.00,VWS V14.01,2013-08-26 03:56:00,
2013-08-25 22:57:00,92.6,56.7,0.00,SW,225,6.5,7.8,30,0.00,,---,0.00,VWS V14.01,2013-08-26 03:57:00,
2013-08-25 22:58:00,92.4,56.5,0.00,SE,135,5.6,7.8,30,0.00,,---,0.00,VWS V14.01,2013-08-26 03:58:00,
2013-08-25 22:59:00,92.8,56.8,0.00,West,270,5.8,7.8,30,0.00,,---,0.00,VWS V14.01,2013-08-26 03:59:00,
2013-08-25 23:00:00,92.8,56.8,0.00,West,270,7.4,7.8,30,0.00,,---,0.00,VWS V14.01,2013-08-26 04:00:00,
2013-08-25 23:01:00,92.6,56.7,0.00,West,270,5.8,7.6,30,0.00,,---,0.00,VWS V14.01,2013-08-26 04:01:00,
2013-08-25 23:02:00,92.6,55.8,0.00,West,270,8.1,8.1,29,0.00,,---,0.00,VWS V14.01,2013-08-26 04:02:00,
2013-08-25 23:04:00,92.6,56.7,0.00,SW,225,4.3,8.1,30,0.00,,---,0.00,VWS V14.01,2013-08-26 04:04:00,
2013-08-25 23:05:00,92.8,55.9,0.00,NW,315,7.6,9.8,29,0.00,,---,0.00,VWS V14.01,2013-08-26 04:05:00,
2013-08-25 23:06:00,92.8,55.9,0.00,West,270,9.4,9.8,29,0.00,,---,0.00,VWS V14.01,2013-08-26 04:06:00,
2013-08-25 23:07:00,92.8,55.9,0.00,West,270,3.1,9.8,29,0.00,,---,0.00,VWS V14.01,2013-08-26 04:07:00,
2013-08-25 23:08:00,92.8,55.9,0.00,NW,315,3.4,9.8,29,0.00,,---,0.00,VWS V14.01,2013-08-26 04:08:00,
2013-08-25 23:09:00,92.8,55.9,0.00,SW,225,5.4,9.8,29,0.00,,---,0.00,VWS V14.01,2013-08-26 04:09:00,
2013-08-25 23:10:00,93.3,56.4,0.00,SW,225,9.8,9.8,29,0.00,,---,0.00,VWS V14.01,2013-08-26 04:10:00,
2013-08-25 23:11:00,93.5,56.5,0.00,SW,225,5.6,9.8,29,0.00,,---,0.00,VWS V14.01,2013-08-26 04:11:00,
2013-08-25 23:12:00,93.5,56.5,0.00,SW,225,7.8,9.8,29,0.00,,---,0.00,VWS V14.01,2013-08-26 04:12:00,
2013-08-25 23:13:00,93.9,56.8,0.00,West,270,2.7,9.8,29,0.00,,---,0.00,VWS V14.01,2013-08-26 04:13:00,
2013-08-25 23:14:00,93.9,56.8,0.00,West,270,2.7,9.8,29,0.00,,---,0.00,VWS V14.01,2013-08-26 04:14:00,
2013-08-25 23:15:00,94.2,57.1,0.00,South,180,7.8,9.8,29,0.00,,---,0.00,VWS V14.01,2013-08-26 04:15:00,
2013-08-25 23:16:00,94.4,57.3,0.00,SW,225,7.4,7.8,29,0.00,,---,0.00,VWS V14.01,2013-08-26 04:16:00,
2013-08-25 23:17:00,94.6,56.5,0.00,SW,225,5.8,7.8,28,0.00,,---,0.00,VWS V14.01,2013-08-26 04:17:00,
2013-08-25 23:18:00,94.8,56.6,0.00,SW,225,2.9,7.8,28,0.00,,---,0.00,VWS V14.01,2013-08-26 04:18:00,
2013-08-25 23:19:00,95.0,56.8,0.00,South,180,6.3,7.8,28,0.00,,---,0.00,VWS V14.01,2013-08-26 04:19:00,
2013-08-25 23:20:00,95.0,56.8,0.00,WSW,248,6.3,7.8,28,0.00,,---,0.00,VWS V14.01,2013-08-26 04:20:00,
2013-08-25 23:21:00,95.0,56.8,0.00,SW,225,6.9,7.8,28,0.00,,---,0.00,VWS V14.01,2013-08-26 04:21:00,
2013-08-25 23:22:00,95.1,56.9,0.00,South,180,7.8,8.7,28,0.00,,---,0.00,VWS V14.01,2013-08-26 04:22:00,
2013-08-25 23:24:00,95.1,56.9,0.00,West,270,4.0,8.7,28,0.00,,---,0.00,VWS V14.01,2013-08-26 04:24:00,
2013-08-25 23:25:00,95.3,57.1,0.00,SW,225,6.3,8.7,28,0.00,,---,0.00,VWS V14.01,2013-08-26 04:25:00,
2013-08-25 23:26:00,95.3,57.1,0.00,West,270,3.4,8.7,28,0.00,,---,0.00,VWS V14.01,2013-08-26 04:26:00,
2013-08-25 23:27:00,95.3,57.1,0.00,West,270,6.9,8.7,28,0.00,,---,0.00,VWS V14.01,2013-08-26 04:27:00,
2013-08-25 23:28:00,95.7,57.4,0.00,SW,225,6.0,8.7,28,0.00,,---,0.00,VWS V14.01,2013-08-26 04:28:00,
2013-08-25 23:29:00,95.7,57.4,0.00,SW,225,4.0,8.7,28,0.00,,---,0.00,VWS V14.01,2013-08-26 04:29:00,
2013-08-25 23:30:00,95.7,57.4,0.00,SW,225,4.0,8.7,28,0.00,,---,0.00,VWS V14.01,2013-08-26 04:30:00,
2013-08-25 23:31:00,95.7,56.4,0.00,SW,225,10.1,10.1,27,0.00,,---,0.00,VWS V14.01,2013-08-26 04:31:00,
2013-08-25 23:32:00,95.9,56.5,0.00,West,270,4.9,10.1,27,0.00,,---,0.00,VWS V14.01,2013-08-26 04:32:00,
2013-08-25 23:33:00,96.0,56.7,0.00,NW,315,3.6,10.1,27,0.00,,---,0.00,VWS V14.01,2013-08-26 04:33:00,
2013-08-25 23:34:00,96.0,56.7,0.00,SW,225,6.5,10.1,27,0.00,,---,0.00,VWS V14.01,2013-08-26 04:34:00,
2013-08-25 23:35:00,96.0,56.7,0.00,SW,225,6.5,10.1,27,0.00,,---,0.00,VWS V14.01,2013-08-26 04:35:00,
2013-08-25 23:36:00,96.0,56.7,0.00,SW,225,8.1,10.1,27,0.00,,---,0.00,VWS V14.01,2013-08-26 04:36:00,
2013-08-25 23:37:00,96.0,56.7,0.00,SW,225,8.1,10.1,27,0.00,,---,0.00,VWS V14.01,2013-08-26 04:37:00,
2013-08-25 23:38:00,95.3,56.1,0.00,SW,225,8.1,10.1,27,0.00,,---,0.00,VWS V14.01,2013-08-26 04:38:00,
2013-08-25 23:39:00,95.3,56.1,0.00,SW,225,6.5,10.1,27,0.00,,---,0.00,VWS V14.01,2013-08-26 04:39:00,
2013-08-25 23:41:00,95.3,56.1,0.00,West,270,6.3,10.1,27,0.00,,---,0.00,VWS V14.01,2013-08-26 04:41:00,
2013-08-25 23:42:00,95.9,56.5,0.00,West,270,5.8,10.1,27,0.00,,---,0.00,VWS V14.01,2013-08-26 04:42:00,
2013-08-25 23:43:00,95.9,56.5,0.00,SW,225,6.0,10.1,27,0.00,,---,0.00,VWS V14.01,2013-08-26 04:43:00,
2013-08-25 23:44:00,96.2,56.8,0.00,West,270,4.0,10.1,27,0.00,,---,0.00,VWS V14.01,2013-08-26 04:44:00,
2013-08-25 23:45:00,96.6,57.2,0.00,SW,225,6.3,10.1,27,0.00,,---,0.00,VWS V14.01,2013-08-26 04:45:00,
2013-08-25 23:46:00,96.9,57.5,0.00,SW,225,3.6,6.3,27,0.00,,---,0.00,VWS V14.01,2013-08-26 04:46:00,
2013-08-25 23:47:00,97.1,57.6,0.00,South,180,6.9,7.4,27,0.00,,---,0.00,VWS V14.01,2013-08-26 04:47:00,
2013-08-25 23:48:00,97.3,57.8,0.00,SW,225,5.4,7.4,27,0.00,,---,0.00,VWS V14.01,2013-08-26 04:48:00,
2013-08-25 23:49:00,97.3,57.8,0.00,SW,225,7.4,7.8,27,0.00,,---,0.00,VWS V14.01,2013-08-26 04:49:00,
2013-08-25 23:50:00,97.3,57.8,0.00,SW,225,7.8,8.7,27,0.00,,---,0.00,VWS V14.01,2013-08-26 04:50:00,
2013-08-25 23:51:00,97.3,56.7,0.00,SW,225,5.4,8.7,26,0.00,,---,0.00,VWS V14.01,2013-08-26 04:51:00,
2013-08-25 23:52:00,97.5,56.9,0.00,SW,225,6.3,8.7,26,0.00,,---,0.00,VWS V14.01,2013-08-26 04:52:00,
2013-08-25 23:53:00,97.5,57.9,0.00,South,180,11.0,11.0,27,0.00,,---,0.00,VWS V14.01,2013-08-26 04:53:00,
2013-08-25 23:54:00,97.3,57.8,0.00,SW,225,7.8,11.0,27,0.00,,---,0.00,VWS V14.01,2013-08-26 04:54:00,
2013-08-25 23:55:00,97.5,56.9,0.00,SW,225,4.9,11.0,26,0.00,,---,0.00,VWS V14.01,2013-08-26 04:55:00,
2013-08-25 23:56:00,97.3,56.7,0.00,SW,225,12.3,12.3,26,0.00,,---,0.00,VWS V14.01,2013-08-26 04:56:00,
2013-08-25 23:57:00,97.1,56.6,0.00,SW,225,10.5,12.3,26,0.00,,---,0.00,VWS V14.01,2013-08-26 04:57:00,
2013-08-25 23:58:00,96.9,56.4,0.00,South,180,9.8,12.8,26,0.00,,---,0.00,VWS V14.01,2013-08-26 04:58:00,
2013-08-25 23:59:00,96.6,56.1,0.00,SW,225,8.7,12.8,26,0.00,,---,0.00,VWS V14.01,2013-08-26 04:59:00,